GFSSW_sfc_dewp_000.txt.gz
Dewpoint
55 55 56 56 56 56 56 57 57 57 57 58 58 58 58 58 58 55 37 43 46 68 71 69 63 59 62 49 50 52 42 41 43 44 46 55 59 60 62 61 61 62 63 65 69
55 55 55 55 55 56 56 56 56 57 57 57 57 58 58 59 55 48 52 65 70 71 40 48 43 45 41 38 46 46 43 42 44 45 51 53 58 59 59 59 61 63 66 68 69
54 54 54 55 55 55 56 56 56 56 57 57 57 58 58 58 41 25 62 66 70 66 34 35 25 28 26 32 40 46 41 44 44 46 52 52 57 57 57 57 61 62 65 68 68
54 54 54 54 55 55 55 55 55 56 56 57 57 57 58 55 21 28 71 72 71 58 35 29 23 24 28 29 29 39 43 45 45 49 51 52 55 57 57 57 61 63 66 67 68
53 54 54 54 54 54 55 55 55 55 56 56 57 56 53 36 31 30 65 72 66 52 34 25 23 28 30 32 30 29 30 44 48 46 48 52 54 57 56 60 63 64 66 66 67
53 54 54 54 54 54 55 55 55 55 55 56 56 56 48 28 30 33 50 61 52 39 31 25 25 31 32 30 26 28 42 45 47 48 49 53 55 56 58 62 64 64 64 65 66
53 53 54 54 54 54 55 55 54 54 55 56 55 56 50 29 31 41 40 47 42 33 30 28 28 28 29 30 28 42 42 44 46 48 54 53 52 54 59 62 63 64 65 66 66
54 53 53 53 53 54 55 54 54 55 58 56 57 54 37 40 42 46 40 30 30 31 27 26 28 25 27 30 38 39 42 41 44 48 53 49 47 57 59 59 62 64 65 65 66
54 54 54 54 54 54 53 53 54 57 57 57 54 50 40 49 41 43 36 30 25 26 27 27 27 24 25 24 37 36 39 40 43 47 50 50 49 57 58 59 61 63 63 64 66
53 54 54 54 54 53 52 53 53 55 57 57 55 46 39 32 37 38 36 28 24 20 22 23 21 23 24 26 36 36 39 39 43 43 48 48 50 57 57 57 59 60 60 63 63
53 53 53 53 52 52 50 42 31 33 50 38 37 39 36 34 38 36 32 28 19 13 11 15 16 17 24 22 29 35 39 39 42 44 45 48 50 56 57 56 56 57 58 60 61
53 53 53 53 52 51 47 27 32 33 21 29 30 32 33 38 33 32 29 27 24 18 16 18 14 18 22 26 28 35 33 37 37 42 44 49 50 55 56 56 56 57 57 58 59
53 53 53 51 51 46 38 27 34 35 25 25 29 29 30 34 31 31 31 25 20 18 12 12 14 20 26 27 23 25 24 26 35 43 47 48 48 51 55 56 56 57 57 58 58
52 52 51 50 34 45 36 35 35 32 25 26 28 28 34 37 33 33 32 26 16 18 12 11 13 20 24 27 27 24 25 26 35 39 37 44 37 47 50 53 54 54 56 57 58
52 52 50 49 45 42 30 41 36 31 19 24 27 30 30 27 24 30 30 25 24 15 14 14 14 18 25 24 26 23 27 28 36 37 39 44 37 39 50 50 51 52 54 55 56
51 51 50 47 45 45 45 43 32 22 20 23 30 25 28 27 24 23 26 25 25 17 14 16 16 18 16 24 27 25 19 26 30 34 32 37 38 36 48 49 50 52 54 55 56
50 49 49 46 36 41 38 26 20 19 22 19 22 22 21 22 24 22 22 19 21 18 17 18 12 18 21 19 26 20 21 19 22 30 29 36 39 36 42 49 49 51 53 56 57
48 49 47 47 46 45 28 16 22 20 20 24 22 21 18 21 21 22 18 23 21 17 18 13 8 15 18 20 21 21 21 20 16 22 30 38 38 39 41 43 49 51 53 54 56
48 44 43 44 48 40 20 11 16 25 26 25 20 20 21 20 19 21 20 19 21 15 14 14 13 18 18 20 19 20 18 21 19 26 22 29 29 31 36 39 47 49 52 53 56
45 42 39 46 45 30 19 13 13 23 21 13 19 20 18 19 18 18 19 21 15 17 15 15 12 14 15 21 21 19 21 19 20 19 22 24 26 29 34 37 42 47 50 51 54
39 26 20 46 35 26 12 11 10 14 14 7 19 21 21 18 18 19 18 20 19 18 16 15 13 12 17 16 14 21 20 21 21 21 18 18 23 30 32 37 39 45 48 49 52
39 10 27 36 30 27 19 15 23 12 15 15 19 17 16 18 16 18 18 18 21 19 15 14 13 12 12 16 19 19 19 20 17 18 23 21 20 29 34 37 45 44 47 48 52
37 36 39 32 29 28 29 28 27 28 27 28 21 17 18 19 21 19 19 21 21 22 20 18 13 10 10 12 22 18 23 21 21 23 24 21 21 33 39 42 48 47 48 49 53
38 30 35 32 30 26 21 20 23 29 30 29 28 27 24 25 25 21 25 30 33 34 53 40 14 12 11 11 16 20 24 25 19 21 22 24 22 29 38 43 47 49 49 49 52
38 34 36 33 31 33 25 24 26 26 27 29 28 30 29 27 28 24 24 27 36 46 36 16 14 14 14 14 20 19 22 25 22 22 21 21 24 28 37 41 44 49 51 51 50
40 39 39 37 37 27 31 25 28 28 27 25 30 31 33 30 30 29 31 33 35 43 36 23 15 16 14 13 17 15 19 26 25 26 25 26 26 29 40 44 44 47 50 50 51
38 39 41 37 36 30 27 30 30 31 29 27 27 32 36 37 35 37 36 37 45 39 43 34 18 18 14 17 16 18 15 20 24 27 25 24 27 32 39 41 43 44 47 48 49

GFSSW_sfc_dewp_003.txt.gz
Dewpoint
55 55 55 55 56 56 56 57 57 57 58 58 58 58 58 58 58 55 39 40 48 74 72 66 59 64 65 57 56 51 43 40 41 47 48 55 54 60 60 60 60 61 61 61 65
55 55 55 55 55 55 56 56 56 56 57 57 58 58 58 58 53 44 52 64 69 74 60 52 51 55 45 39 46 45 44 41 42 47 49 55 54 58 59 58 58 61 63 65 67
54 54 55 55 55 55 56 56 56 56 56 57 57 58 57 57 42 26 68 67 71 68 53 44 43 38 29 34 40 45 42 43 43 46 51 54 55 58 57 56 57 60 64 65 66
54 54 54 54 55 55 55 55 56 56 56 56 57 58 57 55 22 24 71 67 69 58 36 33 30 27 23 22 32 38 41 42 43 49 51 53 55 55 56 53 57 62 65 65 65
54 54 54 54 54 55 55 55 55 55 55 56 57 57 53 34 30 31 65 71 63 51 30 27 24 22 19 28 29 32 31 39 43 49 50 54 54 54 56 56 60 63 65 65 65
53 54 54 54 54 54 55 56 55 55 55 56 56 56 47 27 29 37 59 61 59 46 34 28 23 25 22 32 31 28 33 36 45 49 51 51 54 54 55 61 62 63 64 65 65
53 54 54 54 54 54 55 55 54 54 55 56 56 55 47 30 32 38 43 48 52 41 32 27 27 28 31 30 27 43 43 46 47 48 51 53 54 53 56 61 61 62 63 65 65
53 53 54 54 54 54 54 54 53 55 56 56 56 56 41 42 42 43 43 36 38 36 30 30 30 24 24 30 41 40 43 40 47 49 52 48 42 53 59 60 60 61 62 64 65
53 54 54 54 54 53 53 53 54 56 56 58 55 52 40 50 40 41 42 29 27 35 34 29 29 24 25 27 37 40 35 40 45 49 52 49 44 53 59 59 59 61 61 63 64
53 53 53 54 52 52 52 52 53 56 57 56 56 49 43 34 36 37 40 26 21 26 26 25 24 17 25 28 25 34 38 40 41 46 50 49 47 56 58 58 59 61 62 63 64
53 53 53 53 52 51 50 42 37 36 49 37 34 40 36 36 34 36 33 31 16 21 21 21 15 13 18 26 30 34 38 38 43 45 46 47 47 54 57 57 57 60 62 63 63
52 52 52 52 51 51 47 18 32 28 18 18 23 26 28 29 26 28 32 30 27 22 14 16 11 18 21 23 25 38 38 38 41 44 44 47 46 51 56 57 57 58 60 61 62
52 52 52 50 50 46 38 28 34 30 17 17 22 24 26 29 27 25 28 29 28 27 18 11 11 18 24 24 22 29 34 38 38 41 46 46 43 49 55 56 57 57 58 59 60
52 52 50 49 38 41 33 37 37 33 21 22 25 28 34 33 31 30 27 28 23 26 22 18 13 16 20 23 24 24 33 36 40 39 37 43 35 46 50 55 56 56 57 57 59
51 51 50 48 45 39 32 40 37 32 15 22 25 31 34 33 24 30 31 29 26 23 21 18 13 15 18 20 27 27 29 33 37 37 38 42 37 36 50 51 54 55 56 57 57
51 50 50 47 46 43 42 41 34 24 17 20 29 25 27 29 27 29 29 28 29 25 18 20 17 12 17 22 27 28 29 31 35 33 29 31 36 30 46 48 49 52 55 56 57
49 49 49 45 36 41 39 26 19 18 22 17 22 22 20 21 26 23 25 25 25 27 27 24 19 15 13 16 27 26 25 24 25 27 24 32 38 34 39 45 47 48 53 55 56
48 48 48 47 46 44 33 15 16 17 15 21 22 20 16 20 23 22 25 21 27 27 24 24 19 20 17 14 21 26 23 23 25 23 23 37 33 33 41 41 46 50 51 54 55
48 44 43 43 47 43 21 1 7 17 24 24 21 18 15 19 20 21 22 21 23 26 25 23 22 17 16 20 22 25 25 23 24 25 23 26 36 35 38 41 43 46 50 53 54
44 42 36 45 47 36 16 7 5 21 24 13 16 20 17 19 15 19 22 23 24 25 28 24 21 15 13 15 21 22 24 20 24 27 25 24 29 24 37 39 43 47 49 52 55
42 25 32 47 38 28 14 6 3 8 20 11 12 17 21 15 17 17 17 21 20 23 28 25 20 13 17 14 13 18 20 25 23 24 23 22 23 36 42 46 42 45 48 51 55
40 10 31 40 32 27 18 15 22 10 9 8 15 18 16 15 13 16 17 22 22 20 20 24 23 21 15 17 15 15 20 24 21 30 25 23 21 31 37 38 41 42 45 49 56
35 34 36 36 23 25 29 24 24 21 21 22 15 18 19 17 18 21 20 20 22 21 27 24 22 22 20 19 18 18 18 22 23 25 33 21 21 35 37 40 42 46 48 53 56
36 27 32 34 31 29 30 26 23 25 26 28 24 27 28 28 29 27 24 25 31 25 51 39 30 28 19 22 18 17 19 21 22 20 23 24 23 31 36 42 43 47 52 52 55
36 33 39 34 33 36 30 25 22 21 26 27 30 28 28 28 27 26 26 25 24 38 40 35 32 31 27 24 19 15 12 19 24 25 25 22 28 31 41 45 46 48 53 53 54
36 38 37 37 37 35 31 25 26 28 29 24 26 24 28 32 31 29 29 30 33 39 40 31 35 27 24 24 19 16 16 17 22 20 25 25 30 33 39 44 46 48 53 53 53
39 38 36 32 33 31 30 29 28 29 29 30 28 27 27 28 32 34 34 36 40 41 45 45 38 37 28 20 18 20 19 19 25 27 25 26 31 37 36 42 45 47 52 54 54

GFSSW_sfc_dewp_006.txt.gz
Dewpoint
55 55 55 55 56 56 56 57 57 57 57 57 58 59 59 59 58 54 40 44 46 74 74 57 56 56 54 49 50 49 40 36 37 40 43 47 48 53 54 56 57 57 56 59 61
55 55 55 55 55 56 56 56 56 56 56 57 57 58 59 58 48 36 54 64 68 75 53 51 46 52 42 33 39 41 40 36 37 40 45 47 47 53 54 54 55 58 58 60 61
54 54 54 54 55 55 56 56 56 56 56 56 57 57 59 57 41 22 66 68 72 73 41 42 36 41 26 22 28 35 38 39 39 39 44 47 49 52 49 51 52 56 59 60 61
54 54 54 54 55 55 55 56 56 56 56 56 56 57 58 52 18 28 68 70 72 61 39 36 29 28 18 20 24 30 32 33 38 42 44 46 48 50 50 48 52 55 59 61 61
53 54 54 54 54 55 55 56 56 55 55 56 56 56 52 36 25 39 64 66 52 52 33 30 22 22 17 20 23 27 27 28 31 40 41 47 48 48 50 52 54 57 60 60 61
53 54 54 54 54 55 55 55 55 54 54 55 56 56 48 25 26 39 48 53 44 40 29 24 20 18 17 20 25 26 27 27 29 37 43 47 49 51 51 52 56 58 60 60 60
53 53 54 54 54 54 54 54 54 53 54 56 57 53 45 27 29 32 36 38 43 38 28 24 20 17 19 22 25 27 31 39 38 41 45 47 49 50 52 55 58 58 60 60 60
53 53 53 52 53 54 54 54 53 54 55 58 57 53 35 35 39 38 38 36 39 42 33 28 23 21 17 26 26 28 31 32 40 45 47 47 40 49 54 55 57 58 59 60 61
53 53 53 53 54 53 52 52 54 56 56 58 55 51 31 48 39 37 39 31 32 35 32 25 23 23 21 24 26 29 28 30 42 46 49 47 40 49 53 54 55 57 57 59 61
53 53 53 53 53 52 51 53 54 58 57 55 54 49 40 27 37 34 40 29 28 33 30 25 23 20 21 21 23 28 28 30 33 45 47 46 42 50 53 52 53 57 57 58 59
53 53 52 52 52 51 49 36 41 43 49 33 26 33 25 29 34 31 35 26 24 27 19 19 16 15 19 24 25 27 30 30 33 42 45 42 42 46 53 53 52 55 57 58 57
52 52 52 51 50 50 45 18 27 25 17 15 15 18 20 24 23 23 31 29 24 21 18 15 12 15 16 21 24 26 28 29 33 42 43 40 42 44 48 53 52 53 56 58 58
52 52 51 51 50 45 30 27 30 25 17 13 15 15 19 20 23 23 26 28 25 20 15 15 9 11 14 17 23 26 27 29 33 41 42 39 41 42 43 51 53 52 53 57 58
52 51 51 50 40 33 28 32 33 29 16 16 21 25 30 27 26 27 23 25 24 20 18 12 9 9 13 17 22 25 25 27 31 36 35 40 33 37 40 48 51 53 53 53 57
51 51 50 49 39 30 29 29 30 30 14 20 23 30 31 29 27 27 24 22 22 21 21 17 10 12 12 13 18 25 25 27 28 33 35 37 36 35 40 41 46 51 53 52 52
51 50 49 39 40 36 33 33 34 24 15 15 23 25 27 26 24 29 25 24 22 21 22 19 15 10 11 11 17 23 25 28 29 29 30 34 33 30 33 40 38 44 50 53 51
50 48 47 40 26 33 34 22 16 12 18 14 17 21 19 16 21 24 24 22 21 24 23 19 15 10 7 13 15 21 26 27 27 25 26 33 32 33 30 32 35 32 42 52 52
48 47 44 39 39 38 31 9 14 11 12 18 19 19 19 17 17 20 22 17 20 22 19 19 14 14 12 11 18 21 23 24 28 22 24 31 30 29 33 32 32 33 39 48 52
47 34 31 37 42 39 24 3 8 11 12 9 11 16 17 17 15 20 21 19 17 21 23 20 19 15 11 13 13 21 22 24 23 24 20 21 30 30 31 34 34 35 41 45 51
40 34 29 36 46 38 20 11 5 2 8 16 15 14 13 12 16 17 18 19 18 20 25 25 23 19 15 14 14 16 23 22 23 29 26 24 27 28 33 31 30 34 40 45 50
37 25 33 46 45 35 17 9 6 0 6 13 12 12 15 14 17 16 16 18 20 20 26 24 25 19 20 15 13 15 17 24 23 24 23 24 24 30 33 34 33 29 41 42 48
33 19 36 43 33 25 20 16 20 6 1 2 9 8 12 16 18 18 17 18 20 22 25 28 25 23 14 13 11 14 20 24 23 31 25 24 21 24 29 30 30 29 29 32 46
32 24 27 34 19 15 21 17 16 15 7 4 2 8 11 14 18 16 15 14 15 21 25 27 26 25 23 12 14 12 14 20 23 26 33 25 24 26 28 31 33 39 40 42 50
32 19 19 34 25 26 25 27 23 18 15 11 11 11 8 13 17 18 18 15 19 19 53 39 24 27 20 24 18 17 13 14 16 21 25 24 27 28 27 31 31 34 42 45 53
32 23 33 20 28 35 35 32 25 20 22 21 20 20 16 17 18 20 21 22 26 40 36 38 35 29 24 20 19 18 13 13 15 18 23 24 24 28 31 31 31 30 34 44 54
34 32 35 31 30 27 27 27 26 22 25 25 25 18 19 22 22 20 20 24 22 27 28 34 36 34 30 24 22 19 19 15 13 14 17 18 22 24 28 31 30 30 32 44 53
37 35 33 28 22 23 21 23 24 30 29 26 27 29 27 27 29 30 31 33 33 31 33 36 36 38 32 27 26 25 23 20 18 15 16 18 23 23 25 29 33 34 40 45 52

GFSSW_sfc_dewp_009.txt.gz
Dewpoint
55 55 55 56 56 56 56 57 57 57 58 58 58 58 59 60 58 54 42 45 48 72 74 53 53 45 47 44 43 40 43 36 35 44 36 39 39 44 48 50 51 53 56 59 62
54 55 55 55 55 56 56 56 56 57 57 57 58 58 59 59 47 33 54 70 72 72 50 43 41 42 41 39 38 38 50 38 34 45 38 39 39 43 46 48 50 52 56 60 62
54 54 55 55 55 56 56 57 56 56 56 56 57 58 59 57 38 25 66 68 73 70 37 38 36 39 37 33 31 33 44 41 36 36 42 39 40 42 43 45 49 52 56 59 61
54 54 54 54 55 55 55 56 56 56 56 56 56 57 58 49 23 36 68 69 73 52 43 33 34 32 34 26 27 29 34 33 35 37 39 39 41 41 40 43 47 52 56 58 60
53 54 54 54 54 54 55 56 55 55 55 55 56 57 52 35 26 44 69 67 55 44 42 30 30 28 29 24 26 27 30 29 30 34 36 42 42 40 40 42 48 53 55 57 59
53 54 54 54 54 54 55 55 55 54 54 55 56 56 47 28 23 34 36 44 38 40 32 28 28 25 24 25 24 27 27 27 29 29 35 40 40 43 42 45 49 54 54 56 57
53 53 54 54 53 53 54 54 53 53 54 56 56 53 39 29 23 25 37 36 35 33 30 25 24 20 20 22 23 26 26 30 31 30 34 38 39 40 44 48 49 53 55 55 56
53 53 54 53 52 53 53 53 52 54 56 57 58 51 34 28 32 27 27 28 31 33 29 24 20 20 20 23 24 24 26 27 32 32 34 38 38 43 45 47 47 51 54 55 56
53 53 53 54 53 53 52 52 53 57 57 58 55 48 31 46 34 31 31 31 30 28 33 25 24 19 20 19 21 26 24 27 32 34 39 39 43 43 47 45 47 49 52 54 56
53 53 53 53 52 51 51 52 53 57 57 54 51 45 37 29 30 32 33 29 25 29 28 26 21 19 18 20 21 27 26 27 36 33 39 38 43 44 47 46 44 48 50 53 54
53 53 52 52 51 50 48 35 40 47 47 35 33 29 27 26 33 30 32 28 23 28 22 20 14 13 18 23 24 26 27 26 28 31 36 38 38 43 47 47 45 47 48 51 53
52 52 52 51 50 49 47 23 23 21 17 16 18 19 20 19 20 27 30 24 20 21 22 16 13 13 18 22 23 24 25 27 29 32 34 36 38 41 47 47 48 47 47 49 51
52 52 51 51 49 46 22 25 24 22 17 13 13 13 13 14 15 18 21 27 20 19 18 12 11 11 15 21 23 24 24 26 27 38 38 36 37 38 41 48 49 47 48 49 49
52 52 51 49 40 27 24 28 25 23 17 12 14 13 16 17 14 15 19 20 24 19 16 14 9 8 11 17 21 22 24 25 25 34 34 33 31 39 37 40 47 48 48 48 49
52 51 50 48 38 29 23 21 21 25 14 16 18 22 23 23 25 23 24 20 22 20 18 15 11 10 12 13 18 22 23 25 26 31 39 30 29 36 36 37 41 46 49 48 48
52 50 49 38 36 34 29 25 25 20 16 15 20 23 25 24 20 25 22 21 22 21 19 16 13 8 9 11 17 20 22 25 25 25 26 31 31 33 36 37 38 41 47 50 49
50 49 46 40 27 25 24 22 14 14 17 14 15 17 18 18 18 22 21 19 19 19 21 19 15 13 7 11 14 18 21 22 23 22 22 27 30 40 34 35 36 36 39 46 51
49 46 43 35 36 34 28 15 15 14 14 11 12 17 15 15 16 19 21 17 19 18 16 18 16 16 12 11 13 17 19 20 27 22 22 27 27 29 35 32 33 34 31 36 47
48 35 30 29 32 32 23 11 12 15 13 11 13 14 16 14 14 15 20 18 17 18 20 18 19 16 14 10 9 14 17 20 21 24 22 23 27 29 33 34 32 31 31 32 42
42 37 29 29 37 33 24 17 13 10 8 9 13 14 16 16 15 16 18 18 17 16 18 21 22 18 12 11 9 9 14 18 22 28 25 22 26 25 33 33 32 33 31 33 38
41 25 29 32 39 34 21 17 16 12 10 8 12 14 12 12 14 16 16 15 15 18 19 17 22 21 20 16 13 9 9 18 20 22 23 22 24 28 35 36 34 33 31 31 37
34 26 29 37 33 29 27 24 24 14 12 8 7 13 17 15 15 15 16 16 14 17 18 20 20 23 20 19 15 12 13 13 20 30 23 25 22 26 29 31 32 33 33 32 37
33 29 28 23 18 19 24 21 21 20 18 14 9 8 12 15 19 18 17 15 16 18 22 22 21 22 24 19 18 17 15 13 12 22 33 25 23 26 29 30 32 32 33 36 37
35 25 22 23 22 18 18 19 19 19 18 17 16 13 9 11 15 17 16 15 16 16 52 35 24 27 20 26 20 17 14 12 11 14 21 21 26 29 30 31 31 33 33 36 39
36 28 25 26 23 28 32 35 28 32 29 24 22 17 13 13 13 14 15 16 15 31 26 26 29 27 24 23 22 18 10 10 13 16 19 21 24 28 34 32 32 31 34 34 36
38 34 32 29 30 28 29 26 22 25 29 30 27 20 17 17 16 14 14 20 23 19 25 25 30 31 26 21 20 18 18 15 12 11 14 16 20 23 28 33 33 32 34 34 35
43 44 37 30 25 23 20 26 24 19 28 34 34 36 31 24 28 29 26 18 21 28 29 31 30 35 32 28 27 24 21 19 20 18 15 16 21 23 26 32 34 32 33 36 36

GFSSW_sfc_dewp_012.txt.gz
Dewpoint
55 55 55 55 56 56 56 57 57 57 57 57 57 58 59 59 58 52 45 46 49 74 71 46 55 50 46 40 43 43 42 42 38 35 33 38 37 44 49 49 54 56 56 58 60
54 55 55 55 55 55 56 56 56 57 57 57 57 58 58 59 48 36 46 67 71 72 36 31 37 44 37 38 40 44 48 42 47 41 37 36 38 39 43 47 49 55 56 58 60
54 54 54 54 54 54 55 55 56 56 56 56 56 57 58 57 39 29 70 72 73 67 28 27 30 36 35 37 36 45 47 42 41 42 41 37 37 38 42 44 48 55 57 57 59
54 54 54 54 53 53 53 54 55 55 55 55 56 56 58 49 23 33 70 71 73 48 34 28 27 32 32 35 33 29 39 40 38 41 41 36 38 38 41 43 48 56 58 58 58
53 54 54 54 54 54 54 55 55 54 55 55 56 56 50 32 32 33 70 67 52 40 34 33 28 32 30 32 30 26 34 32 30 33 36 39 39 39 38 44 48 53 58 58 58
52 53 54 55 54 54 54 54 54 54 54 55 56 57 47 25 26 43 36 44 35 35 30 32 28 30 30 30 28 26 26 28 26 28 32 40 40 38 38 42 47 51 55 57 58
53 54 54 54 53 53 54 54 53 53 54 56 57 53 36 21 27 27 28 34 32 34 27 30 29 27 28 27 27 25 24 26 27 28 31 34 38 38 41 41 47 49 53 55 57
53 54 54 54 54 53 53 52 53 53 55 58 58 51 32 20 24 28 27 29 31 31 29 28 26 23 25 24 23 22 22 24 26 30 31 33 39 36 43 42 44 49 51 53 55
53 53 53 53 53 52 51 51 52 54 58 58 55 50 35 44 30 29 29 23 23 26 30 27 23 18 19 20 20 22 22 23 25 31 32 33 40 46 43 43 44 47 50 51 55
53 53 53 53 52 51 51 51 53 55 58 53 49 44 42 30 30 26 27 23 22 26 24 26 22 19 15 18 18 21 21 24 26 32 31 44 49 49 47 44 44 45 48 51 52
53 53 53 52 51 50 47 40 38 40 48 40 37 29 22 33 26 29 29 28 26 24 22 26 20 19 19 20 22 21 24 24 26 34 32 46 50 52 48 48 42 46 47 49 52
53 53 53 52 51 49 46 33 22 21 17 17 20 30 33 28 26 29 27 27 24 20 24 20 19 17 15 20 21 22 23 25 27 35 35 38 48 49 50 48 43 44 44 46 48
52 52 52 51 49 45 29 21 25 20 17 15 13 11 17 29 26 19 25 28 20 19 21 19 15 12 10 16 20 22 23 25 25 31 32 31 33 44 44 43 44 43 45 45 48
52 52 51 50 41 32 27 26 18 18 16 14 11 11 10 12 12 15 15 25 25 17 16 18 17 11 9 12 18 22 22 23 23 30 31 34 32 44 44 44 43 44 44 45 47
52 51 50 49 39 34 28 24 21 21 14 15 11 14 9 10 12 11 13 15 18 21 19 16 16 12 9 10 15 22 23 23 23 29 34 37 34 39 43 42 45 44 46 46 48
51 51 50 39 37 36 32 25 22 17 15 15 18 17 13 10 11 19 12 13 15 15 21 19 15 13 9 7 10 19 21 22 23 23 26 33 33 34 38 40 40 44 45 47 48
51 49 48 42 32 27 29 22 15 14 18 15 15 19 19 17 14 20 17 17 19 18 21 20 17 13 11 9 10 11 17 22 21 22 22 28 34 38 40 41 40 50 50 48 49
49 47 45 39 37 38 31 20 18 17 16 15 13 15 17 20 18 17 21 19 19 17 17 18 16 15 13 10 11 12 13 20 25 22 22 27 26 31 41 40 42 50 53 46 49
48 39 37 32 30 33 27 14 17 19 17 15 14 13 15 15 15 15 17 18 15 16 20 16 17 16 14 13 8 11 13 14 18 21 20 22 25 25 33 41 40 37 35 39 47
42 39 38 34 29 28 25 23 17 16 15 14 15 15 15 15 14 15 17 19 18 14 17 18 19 16 16 14 13 9 13 11 15 24 25 23 29 29 34 41 40 41 37 36 36
41 32 28 27 28 31 26 22 22 21 20 17 15 14 13 15 15 15 14 15 16 18 17 15 20 18 19 18 15 11 10 12 13 19 22 25 26 33 40 44 43 42 38 35 38
35 28 26 31 29 31 29 29 30 24 23 20 18 15 13 12 16 16 16 16 15 16 17 18 16 21 17 18 16 13 13 13 13 26 21 23 24 26 39 35 38 37 37 38 40
34 30 29 26 22 20 22 20 24 25 26 25 22 19 16 13 18 16 17 14 15 16 18 20 19 22 18 17 20 15 13 13 11 16 25 22 23 28 41 38 43 39 39 43 46
37 26 24 22 23 20 20 19 18 18 22 24 24 26 23 19 17 19 16 16 14 15 51 32 20 26 18 24 21 22 17 16 13 13 19 18 27 30 38 40 38 44 43 43 49
38 31 27 23 23 26 34 35 30 29 27 29 31 31 30 27 18 15 13 14 15 31 27 22 29 25 20 18 19 20 17 17 18 21 21 20 21 29 34 40 38 40 44 42 49
39 36 35 31 28 25 24 28 24 26 28 28 28 34 35 33 34 31 25 21 21 21 22 20 30 28 26 22 20 20 21 17 15 16 19 19 20 22 28 34 38 40 38 44 45
40 43 42 35 27 23 18 19 24 29 30 32 30 37 35 35 37 33 30 28 27 25 28 29 24 32 28 24 23 22 24 22 21 14 16 17 24 27 28 33 40 46 44 45 45

GFSSW_sfc_dewp_015.txt.gz
Dewpoint
55 55 55 55 54 55 55 55 56 56 56 56 57 58 58 59 58 50 45 45 52 71 72 42 56 52 53 51 57 54 49 52 47 42 36 41 51 54 56 57 58 58 58 61 62
54 55 55 54 54 54 54 54 55 55 55 56 56 57 58 58 51 38 46 63 66 73 45 36 29 48 46 45 42 45 45 47 47 44 37 40 51 52 55 56 56 57 59 62 62
53 53 53 54 53 53 54 55 54 54 54 55 56 56 58 57 46 28 69 63 64 69 40 31 25 26 32 38 35 44 41 44 44 44 43 38 38 45 52 54 55 56 60 62 62
52 52 53 53 53 53 54 54 55 54 54 55 55 56 58 54 21 35 69 71 71 62 43 31 24 23 26 32 34 42 41 41 44 44 40 38 38 44 45 51 56 57 59 62 62
53 53 53 53 53 54 54 55 55 54 54 54 55 56 53 41 36 35 71 70 59 47 37 31 26 25 26 31 32 33 37 40 44 43 41 39 39 43 45 55 57 57 58 61 62
53 54 54 54 54 54 55 54 54 54 53 54 55 56 52 31 22 23 50 53 44 41 33 31 29 28 28 31 30 31 30 35 34 43 40 40 42 42 48 56 56 57 57 59 62
54 54 54 54 54 53 54 54 53 53 53 54 56 54 45 28 22 35 36 42 40 35 31 29 31 30 28 29 30 28 26 26 26 27 40 45 45 47 47 51 56 57 57 58 58
54 54 54 54 54 54 53 53 53 52 53 55 58 52 43 30 29 26 23 23 35 31 33 30 28 29 26 27 27 25 22 21 25 27 29 42 44 46 43 50 54 56 57 58 58
53 53 53 53 53 53 52 51 53 54 55 58 56 53 44 46 35 29 24 25 28 29 31 29 27 25 24 22 22 21 19 21 22 26 33 42 44 41 41 48 50 53 55 56 58
53 53 53 53 52 51 51 50 51 54 56 56 51 47 47 35 31 30 28 28 25 23 25 27 27 22 20 17 18 19 20 20 22 28 32 40 43 46 44 44 48 51 52 54 55
53 52 52 52 51 50 47 42 37 41 48 45 43 35 25 28 32 29 27 25 23 21 21 25 23 21 19 15 18 20 20 21 22 31 44 45 44 47 40 46 47 49 50 52 53
53 52 52 52 51 49 47 41 30 20 20 19 17 25 37 39 35 28 28 24 23 23 25 21 20 23 22 20 16 18 20 21 23 31 42 45 44 43 40 38 46 47 49 50 52
53 52 51 51 49 46 32 28 27 21 17 15 15 15 15 20 30 31 28 27 26 24 22 19 23 24 20 19 19 17 19 20 23 32 41 44 44 45 43 45 47 47 48 50 51
53 52 51 51 42 37 34 32 29 22 18 15 14 13 14 14 17 24 29 27 26 22 21 19 22 20 19 16 14 18 20 21 22 23 34 41 38 47 49 53 51 50 44 48 50
53 52 50 50 43 39 35 34 29 25 17 18 15 13 12 11 14 22 30 22 24 25 19 16 20 20 17 12 10 14 22 21 22 22 33 32 31 42 48 49 48 48 44 44 47
52 51 50 44 40 40 37 33 29 20 17 17 13 11 9 10 9 13 24 21 17 23 23 22 20 15 17 16 9 11 17 21 22 22 22 31 32 35 46 48 49 47 44 44 46
51 50 48 44 38 32 38 33 20 16 20 18 16 15 10 9 8 8 10 12 11 11 15 16 19 21 16 14 11 8 10 14 18 20 21 29 31 35 37 42 44 45 48 50 50
50 48 46 41 42 42 39 26 18 20 17 18 17 17 16 15 10 9 13 10 12 12 14 13 13 19 20 14 12 8 6 11 17 20 20 25 24 33 37 42 43 45 49 50 50
49 40 38 37 37 39 33 25 20 20 20 18 17 17 16 18 18 13 15 12 11 11 14 14 16 22 19 17 13 12 8 8 11 19 20 21 23 26 37 39 41 42 47 48 45
44 40 39 39 38 34 30 27 23 21 22 23 20 19 18 17 16 19 14 18 17 15 18 19 20 20 19 17 15 9 13 8 8 10 15 18 23 28 37 38 43 44 43 46 46
43 34 31 29 29 31 26 26 25 25 26 23 22 21 20 19 17 15 16 19 18 20 19 17 17 17 20 16 13 13 8 8 10 11 13 19 20 27 34 42 43 42 42 45 45
37 31 30 31 26 28 24 26 31 27 29 28 28 26 24 23 20 18 16 15 18 18 18 17 15 15 15 18 17 14 14 10 11 15 19 14 15 26 25 41 41 40 40 40 42
35 33 33 31 22 23 24 23 24 21 20 19 22 26 27 26 25 23 21 21 15 15 19 20 15 15 17 16 16 15 14 15 9 15 15 20 19 18 19 32 38 41 45 42 43
39 29 27 29 27 23 22 27 30 31 31 28 28 29 30 30 31 28 27 26 21 13 48 39 19 15 15 18 20 23 16 15 11 9 9 9 10 14 28 35 33 36 43 39 47
42 32 29 29 31 30 28 33 28 25 28 30 28 32 33 31 35 32 33 33 32 33 26 24 19 19 19 19 18 15 18 15 13 11 13 13 12 16 22 40 40 39 42 38 42
39 34 34 32 32 29 28 22 23 21 25 28 29 36 35 35 38 36 35 35 33 31 29 29 27 29 24 23 16 15 18 20 14 14 15 15 16 23 28 35 44 42 39 34 34
45 42 40 36 30 28 28 24 28 30 32 34 31 31 32 33 39 38 37 34 34 33 31 28 28 30 21 25 25 21 17 19 23 20 20 17 17 22 23 26 34 40 40 36 38

GFSSW_sfc_dewp_018.txt.gz
Dewpoint
54 54 54 54 54 54 54 55 55 55 55 55 56 57 58 58 58 54 43 42 51 75 73 66 65 61 64 64 62 60 49 49 47 46 51 54 55 57 58 58 59 60 61 62 63
53 53 53 54 54 54 54 54 55 54 54 55 55 56 57 58 54 45 46 63 66 71 50 56 57 54 55 56 58 53 47 44 49 49 47 53 54 56 56 56 57 60 61 62 62
53 53 53 53 54 54 54 54 54 54 54 54 55 56 57 57 44 31 69 65 66 70 45 42 36 45 49 47 44 49 45 45 42 48 49 53 55 56 56 55 58 59 61 61 62
53 53 53 53 53 54 54 54 54 54 54 54 55 56 57 55 9 30 72 72 67 58 47 40 31 24 23 24 28 38 43 43 45 45 45 52 56 55 56 56 59 61 61 61 61
53 53 53 53 53 54 54 54 54 54 53 54 54 56 52 42 37 28 67 69 62 54 45 37 29 24 23 25 29 35 38 43 44 43 41 43 50 56 55 57 59 61 61 61 61
54 54 54 54 54 54 54 54 54 54 53 53 54 55 50 18 17 23 33 52 47 43 40 34 30 28 26 27 28 32 32 32 41 43 42 39 44 48 54 57 60 61 61 61 61
54 54 54 54 54 54 54 53 54 53 53 54 54 54 49 20 23 28 38 46 44 42 36 34 31 29 29 27 29 31 28 27 30 40 42 44 45 51 56 57 60 61 61 61 61
54 54 54 54 54 53 53 52 53 53 54 54 55 54 43 37 33 26 24 23 26 40 36 33 31 30 29 29 25 24 24 22 24 31 44 41 42 52 56 56 56 60 60 60 61
53 54 53 53 53 52 52 52 52 54 54 57 54 51 42 49 43 36 26 22 23 28 32 32 28 26 26 23 21 22 21 21 21 33 43 43 43 46 56 55 55 56 59 60 61
53 53 53 52 52 51 51 51 51 54 55 56 54 44 38 29 40 31 28 23 26 31 29 30 28 24 23 20 18 20 20 19 20 26 41 42 43 44 55 56 56 56 56 57 58
53 53 53 52 51 50 48 45 31 29 48 43 43 40 32 32 39 31 29 26 27 25 22 24 23 24 23 21 19 20 20 20 21 27 41 41 41 42 51 55 55 56 56 56 56
53 53 53 52 51 49 47 37 37 30 23 22 25 32 37 36 35 37 30 26 25 21 20 21 21 24 24 22 18 16 16 18 20 23 39 43 40 42 47 50 53 54 55 56 57
53 53 52 51 50 43 36 30 32 31 18 17 18 18 18 23 27 30 30 25 22 21 22 19 21 24 24 22 19 15 14 15 19 22 43 42 42 43 43 43 49 52 53 54 56
53 52 52 51 39 42 38 36 35 33 17 17 15 15 16 16 17 22 33 25 27 20 22 23 23 22 21 22 20 17 17 16 18 22 22 40 36 45 46 48 46 49 50 52 53
53 52 51 50 44 43 37 37 36 24 16 22 16 16 15 13 14 16 22 28 25 24 23 21 21 20 22 22 22 18 19 19 20 21 22 28 36 40 45 45 46 48 48 50 52
52 51 50 45 43 42 40 39 31 16 15 18 16 11 13 12 11 16 21 29 27 26 25 22 21 21 20 22 21 19 14 16 22 20 21 23 35 36 46 43 45 46 48 48 50
51 50 49 45 40 39 41 34 16 16 20 20 17 15 10 10 8 11 23 25 25 16 21 25 24 22 18 18 19 14 9 10 11 14 18 21 31 34 41 45 44 44 46 48 49
50 49 46 41 45 43 38 22 17 18 17 20 22 19 16 11 9 8 13 25 26 14 14 17 18 18 21 19 15 13 8 9 9 15 17 22 26 29 40 45 46 44 46 47 46
49 43 40 38 38 40 33 26 18 18 22 23 23 19 18 19 20 12 8 9 17 20 11 13 14 19 16 18 20 17 8 8 9 25 18 22 23 26 34 42 45 46 47 45 45
45 41 40 40 39 36 31 29 23 26 25 25 23 21 24 23 21 22 18 14 11 14 14 12 14 16 13 16 16 14 13 13 8 5 6 15 20 24 27 35 41 45 46 46 46
42 36 35 32 29 33 29 27 26 25 25 26 26 26 26 25 25 25 22 17 18 13 12 11 14 13 19 16 18 18 13 16 8 9 7 12 11 21 25 31 41 44 45 47 46
38 31 34 33 26 26 28 27 30 26 26 25 27 26 24 23 24 25 25 22 25 24 23 15 9 10 14 18 19 18 15 9 9 9 14 8 10 24 24 27 42 43 47 47 47
36 35 36 31 25 26 27 29 30 29 29 30 27 28 31 29 29 30 32 33 35 32 26 32 17 15 14 14 18 16 15 12 10 11 8 16 13 18 19 31 42 43 43 45 47
36 31 29 30 32 29 30 29 27 29 26 28 28 32 33 32 31 33 33 36 37 34 44 34 29 17 15 15 15 15 16 14 11 10 9 10 13 14 18 26 32 38 43 43 46
36 32 32 29 30 30 29 29 29 27 30 28 28 29 35 33 33 31 36 36 35 37 34 32 25 18 18 17 15 18 17 16 13 11 10 11 10 12 14 17 23 28 42 40 39
38 36 35 33 33 29 30 27 31 27 30 31 31 30 32 33 32 33 36 32 34 34 33 33 27 27 25 22 15 15 17 17 18 15 13 11 11 14 15 21 28 36 34 40 37
44 42 39 35 31 27 27 26 26 26 32 34 29 31 30 27 31 35 35 34 34 33 32 32 28 26 25 21 16 17 16 17 17 18 15 13 14 20 20 25 27 28 40 40 36

GFSSW_sfc_dewp_021.txt.gz
Dewpoint
54 54 54 54 54 54 54 55 55 55 55 55 55 56 56 58 57 55 37 40 48 75 76 73 69 68 68 67 64 63 49 48 45 47 52 56 56 58 59 59 58 60 60 62 65
54 53 53 53 53 54 54 54 55 55 54 55 55 55 56 57 54 48 47 62 66 74 70 69 64 65 63 63 63 57 49 47 47 48 54 55 56 57 58 58 59 60 61 64 64
53 53 53 53 53 53 54 54 54 54 54 54 54 55 56 57 42 18 66 63 69 73 61 61 59 59 55 51 60 56 51 47 46 48 54 55 56 57 57 56 59 59 61 63 62
53 53 53 53 53 53 53 54 54 54 54 54 54 55 56 54 7 24 73 70 69 63 45 42 36 41 43 49 49 42 51 51 46 49 54 54 56 55 57 56 59 60 61 61 62
53 53 53 53 53 53 53 53 53 53 53 54 54 54 52 41 28 19 70 68 65 51 42 37 32 30 22 24 30 44 42 39 46 44 53 54 56 55 56 58 60 61 61 61 62
54 54 54 54 54 54 54 54 54 53 53 53 54 54 47 9 15 29 29 55 54 50 44 37 32 28 25 24 25 31 31 33 37 42 45 54 55 56 56 59 60 60 61 61 62
54 54 54 54 54 54 54 53 53 53 53 54 54 52 50 15 18 27 36 43 48 45 39 37 32 26 26 24 26 29 29 28 29 33 45 53 52 54 56 59 60 60 60 61 61
54 54 54 54 54 54 53 52 52 53 55 55 55 52 34 37 35 25 21 21 40 42 36 35 34 29 29 30 27 24 24 23 26 29 42 45 44 54 56 58 59 60 60 60 61
54 54 54 54 53 53 51 52 52 55 55 56 53 49 33 47 45 38 27 22 23 29 36 36 30 28 28 27 23 22 22 22 23 25 43 41 41 54 56 58 58 59 60 60 61
54 54 53 53 53 52 51 52 51 54 56 55 54 43 39 26 43 36 30 24 22 23 31 30 29 25 24 22 21 21 20 20 21 31 42 42 43 54 56 58 59 59 60 60 61
54 53 53 53 52 50 49 44 31 31 44 41 43 38 31 32 37 35 27 24 26 28 27 27 27 25 25 23 22 21 20 20 22 29 40 40 42 53 55 56 58 59 60 60 60
53 53 53 52 51 50 44 30 32 31 29 28 27 27 32 34 28 28 27 21 24 22 24 23 23 25 26 24 22 20 19 18 20 23 31 35 40 49 54 55 56 57 59 60 60
53 53 52 51 50 43 39 33 36 34 24 20 21 20 20 27 29 27 29 24 24 23 21 21 20 24 25 24 20 19 17 18 17 25 35 41 41 43 54 55 56 56 57 58 58
53 52 51 50 38 43 36 37 37 37 17 17 16 16 19 27 28 27 32 24 24 22 23 21 20 22 22 22 23 20 19 18 18 19 17 39 36 43 44 54 54 55 56 56 57
52 51 50 50 43 42 33 38 40 25 18 24 16 17 16 15 16 22 30 28 25 22 22 21 22 20 21 21 23 22 21 20 21 19 20 25 33 36 43 45 49 52 54 56 56
51 50 50 45 43 42 41 41 30 15 15 18 16 13 14 14 11 19 22 29 28 25 25 22 24 22 22 22 22 24 22 16 20 19 18 17 25 25 44 42 45 47 51 53 54
50 49 48 45 39 40 41 32 15 14 19 20 20 21 19 12 11 15 18 22 24 23 23 24 22 20 22 21 24 21 15 15 11 14 14 16 25 21 38 44 43 45 47 50 52
49 48 45 41 42 44 38 23 15 17 16 24 24 23 18 22 15 18 20 22 25 20 23 22 22 24 21 20 20 18 17 15 9 11 13 19 21 24 31 41 45 45 46 48 50
48 42 41 41 40 40 32 22 17 19 24 24 24 21 24 25 24 24 20 21 23 19 17 19 20 21 24 21 19 16 16 16 9 25 14 19 22 25 30 35 42 44 45 47 49
44 40 39 41 37 36 31 27 25 26 25 26 23 26 25 25 24 25 24 21 20 26 19 16 13 15 18 21 21 19 15 14 9 10 10 11 17 19 27 28 39 45 45 46 48
39 35 35 34 33 33 29 29 27 27 26 24 24 24 26 26 25 25 25 29 33 32 28 20 14 15 15 15 17 17 16 12 11 10 9 9 10 16 25 31 36 43 46 46 47
36 30 32 35 26 26 27 28 33 28 29 29 28 27 27 28 28 24 25 28 35 34 32 31 16 13 14 18 15 16 15 14 13 11 11 9 9 20 21 23 32 37 41 47 47
34 32 38 32 27 26 29 28 29 29 28 28 27 29 33 29 25 33 33 34 36 34 37 36 28 14 11 12 17 16 18 15 14 13 13 10 12 17 21 24 34 36 41 45 47
35 31 32 31 31 29 29 27 30 31 29 30 28 33 34 33 31 31 31 35 33 32 42 34 28 24 15 14 17 16 16 17 14 13 14 12 12 16 19 20 25 42 43 47 48
37 30 31 28 30 31 29 29 30 29 32 31 29 32 34 29 33 31 33 35 32 38 34 33 29 26 26 26 24 16 15 15 15 15 13 14 11 12 17 20 21 25 37 42 47
36 36 36 33 32 30 29 27 30 26 27 28 35 32 29 31 30 28 32 33 32 34 30 33 30 29 26 24 23 21 18 17 15 15 14 14 13 15 16 18 18 18 24 41 42
42 42 39 34 33 31 28 27 27 29 30 31 30 30 27 31 34 34 32 35 33 32 31 32 31 29 26 26 25 20 19 17 16 16 15 14 15 16 15 17 18 21 29 33 41

GFSSW_sfc_dewp_024.txt.gz
Dewpoint
54 54 54 54 54 54 55 55 55 55 55 55 55 55 56 57 57 54 35 37 47 72 75 71 69 66 68 67 65 63 51 48 46 49 49 57 57 59 59 58 59 60 61 62 66
53 53 53 53 53 53 54 54 54 55 55 55 55 55 55 57 54 47 47 62 70 75 71 68 67 66 66 63 64 61 52 48 47 48 54 57 57 57 58 57 59 60 62 64 65
53 53 53 53 53 53 54 53 53 54 54 54 55 55 55 56 41 17 62 62 75 75 70 67 67 66 62 59 62 60 55 50 47 47 55 56 56 57 57 56 59 59 62 63 64
53 53 53 53 53 53 53 53 53 53 53 54 54 55 55 53 9 50 72 66 74 69 67 63 63 59 55 55 58 50 52 55 48 51 55 56 57 56 56 57 59 60 62 63 64
53 54 54 53 53 53 53 53 53 53 53 54 54 54 51 40 23 60 69 67 71 55 58 52 59 49 34 41 49 50 49 44 42 44 54 56 56 56 57 59 60 61 62 63 64
55 55 55 55 54 54 54 54 54 53 53 53 54 53 46 6 12 29 62 64 65 54 43 39 39 35 30 26 34 30 39 37 32 35 43 53 55 56 57 59 59 61 62 62 62
55 55 55 55 55 54 54 53 53 53 53 54 54 51 49 8 17 24 52 51 53 48 42 39 33 31 28 25 25 26 27 29 30 31 41 53 54 55 57 59 59 60 61 62 62
54 54 54 54 54 54 53 52 53 54 55 56 55 51 28 31 37 32 23 33 49 46 38 40 34 29 28 28 27 24 25 23 27 31 39 52 48 55 58 59 59 59 60 61 62
54 54 54 54 53 52 51 52 53 56 56 56 51 47 26 45 43 35 22 19 33 43 40 35 32 29 29 25 23 23 22 23 25 28 39 50 45 52 57 58 59 59 59 60 61
53 53 53 53 52 51 50 52 51 56 54 53 53 41 39 29 41 40 29 21 24 30 30 33 30 27 25 23 15 22 21 21 22 30 42 48 42 50 56 58 58 59 60 60 60
53 53 53 52 51 50 48 37 31 31 34 45 43 38 35 32 34 33 29 22 26 26 26 29 28 26 25 23 23 23 22 22 23 29 41 40 42 54 56 57 58 59 59 60 60
53 52 52 51 50 50 41 32 32 31 30 30 29 30 36 32 28 27 25 21 22 22 27 24 26 28 28 24 23 22 21 21 21 22 24 30 39 52 55 57 57 58 59 60 60
52 52 51 50 50 42 39 33 36 36 28 24 27 25 25 27 26 26 24 23 21 22 25 24 24 29 28 25 23 21 21 20 21 24 29 39 38 42 54 56 58 59 59 60 60
52 52 50 50 36 42 32 38 38 38 19 19 17 18 26 27 24 28 26 23 23 19 22 22 23 25 25 24 23 21 21 19 18 17 16 36 29 41 49 54 55 57 59 59 60
52 51 50 49 42 40 31 39 39 27 19 26 16 18 21 21 18 25 30 29 23 22 22 21 22 21 22 23 24 23 21 20 19 17 19 23 29 31 47 53 54 55 56 58 60
52 51 50 44 42 42 42 41 32 22 19 21 15 15 15 15 14 22 26 29 26 23 24 23 24 23 21 23 23 24 21 18 21 19 17 19 22 23 42 47 53 55 55 57 57
50 49 48 45 37 40 42 32 16 17 21 21 22 23 21 16 14 18 21 24 23 22 21 23 22 22 22 20 23 22 19 18 15 16 16 18 22 20 33 43 46 52 54 55 57
49 48 44 42 42 41 37 22 16 18 17 24 25 24 21 25 24 25 18 21 26 24 22 21 20 21 22 20 20 20 19 18 13 13 15 20 17 21 24 42 44 44 47 52 54
48 42 40 40 38 39 31 19 17 19 24 24 25 23 24 26 25 24 22 20 26 21 22 22 23 23 22 21 21 20 18 17 14 23 13 17 20 24 30 29 42 43 44 46 49
43 40 37 40 36 36 31 26 25 27 27 25 24 25 24 25 24 25 24 33 32 32 28 20 21 19 24 22 22 17 18 17 14 15 14 15 17 21 28 30 35 43 45 46 47
37 33 32 37 35 32 24 27 28 30 29 26 24 23 26 25 25 22 25 35 35 34 33 30 15 16 19 21 21 18 15 15 16 15 14 12 15 20 24 31 28 36 44 45 46
34 28 31 34 26 27 24 26 32 31 30 28 28 30 29 29 26 24 30 35 33 35 36 37 24 18 16 17 21 22 19 15 16 15 12 14 14 20 20 22 32 34 42 47 48
33 34 37 32 25 26 29 26 27 32 32 29 27 31 33 30 25 32 31 36 33 32 37 35 27 15 11 13 17 15 20 17 16 17 15 12 15 18 23 24 26 31 37 44 50
33 29 31 32 30 28 29 27 27 30 33 34 30 33 33 32 33 31 33 35 33 35 41 34 29 24 20 22 26 22 20 18 17 16 16 15 16 20 23 24 26 33 38 39 46
34 28 32 27 28 30 29 28 29 28 30 34 35 33 29 28 30 30 29 32 32 37 32 32 28 28 28 28 27 26 24 22 18 16 16 16 17 21 23 24 25 26 40 42 46
35 36 36 33 33 30 28 26 27 26 28 28 35 35 30 28 30 29 30 32 31 33 29 31 27 30 28 27 26 25 25 24 22 18 19 17 18 19 22 25 26 27 31 33 42
42 41 38 36 32 29 28 27 27 28 29 31 31 30 28 28 33 32 32 31 32 32 30 30 30 29 25 28 27 22 21 21 21 19 18 17 21 21 21 23 23 23 27 29 32

GFSSW_sfc_dewp_030.txt.gz
Dewpoint
55 54 55 55 55 55 55 55 55 55 55 55 56 55 56 57 56 50 33 35 41 71 71 63 64 64 64 62 63 62 52 45 44 45 48 54 54 56 56 56 56 58 58 62 65
54 54 54 54 54 54 55 55 55 55 55 55 55 55 55 56 46 32 46 61 62 75 58 59 61 61 59 58 60 57 49 43 44 43 45 52 53 55 54 54 55 58 60 63 64
54 54 54 54 54 54 54 54 54 54 55 55 55 55 55 54 36 16 61 63 66 72 49 56 56 56 52 55 57 55 48 45 43 44 46 52 53 55 52 52 55 58 61 63 63
53 53 53 53 53 53 53 54 54 54 54 54 55 55 55 47 15 32 72 63 70 52 46 50 53 52 49 52 54 51 49 47 45 43 44 48 53 53 54 50 54 59 61 62 63
53 53 54 54 53 53 54 54 54 53 54 54 54 54 50 33 17 26 67 63 60 48 45 47 52 48 45 48 49 52 46 44 45 44 40 41 50 51 53 54 55 59 60 61 62
53 53 54 54 54 54 54 54 54 53 54 54 54 53 41 22 12 17 44 49 53 48 45 47 49 47 44 45 46 41 45 43 37 33 34 34 45 50 51 55 56 58 59 60 60
53 54 54 54 54 54 54 53 52 54 57 56 54 50 40 26 13 22 46 51 54 50 44 46 48 49 39 39 34 39 27 26 26 28 30 34 39 45 49 57 57 57 58 59 60
53 54 54 54 54 53 52 52 53 57 57 55 55 48 34 27 26 34 43 50 55 52 44 46 45 49 39 30 26 27 25 25 30 27 28 30 34 40 49 55 57 57 57 58 59
53 53 53 53 53 52 51 52 55 57 56 56 50 45 29 40 19 20 45 45 53 49 48 44 45 40 39 35 24 24 25 29 30 28 30 31 34 37 47 53 55 57 57 57 59
53 53 53 52 52 51 51 52 56 56 53 52 46 40 32 23 25 15 28 34 50 45 39 39 34 28 31 27 23 24 23 28 30 30 29 32 34 36 48 50 53 57 57 58 58
53 52 52 51 51 50 45 36 38 43 32 39 39 32 32 27 34 19 17 36 42 43 30 30 25 23 19 24 24 24 24 26 28 29 27 30 32 34 43 49 51 56 57 57 58
52 52 51 51 51 50 39 29 32 32 28 27 27 30 38 37 32 25 17 30 30 34 29 26 23 22 20 19 21 22 22 23 27 26 27 31 32 34 39 50 51 54 56 57 58
52 51 51 50 50 41 35 34 37 36 29 25 27 25 27 30 29 26 20 23 25 27 23 21 20 21 20 21 20 21 22 23 23 25 25 25 28 31 34 47 51 52 55 56 58
52 51 50 50 41 35 29 34 37 37 26 16 21 25 26 28 26 29 17 19 20 22 20 19 19 21 20 19 19 19 19 19 19 21 22 26 25 33 32 40 46 49 53 54 58
52 50 49 49 38 31 33 35 37 36 8 22 19 23 24 25 25 25 27 16 15 18 19 19 18 20 21 21 21 19 14 17 18 19 22 23 23 29 32 32 37 43 49 53 55
51 50 49 40 36 32 34 36 37 23 8 19 16 17 20 23 21 24 27 19 18 17 19 19 19 19 22 22 21 20 17 19 20 15 16 22 23 25 28 35 35 40 46 52 55
50 48 46 38 31 34 34 33 18 9 15 23 22 22 21 18 21 21 25 26 26 22 20 19 18 20 20 21 23 22 20 17 15 13 12 20 21 27 28 30 34 36 40 51 55
48 47 43 36 33 35 33 23 11 13 24 26 24 23 22 23 20 18 22 23 25 23 19 18 16 18 21 22 22 22 19 13 17 8 9 19 18 21 27 29 31 34 34 45 52
48 33 31 30 33 36 28 11 9 26 27 25 23 23 22 24 24 22 19 21 24 25 23 20 19 17 20 22 21 24 21 15 10 14 11 9 16 20 26 27 29 30 33 35 48
39 31 28 30 32 32 21 20 22 25 26 25 23 24 25 25 25 23 20 29 25 25 32 27 23 19 19 20 21 21 21 15 14 19 17 9 16 15 25 28 30 31 33 37 46
35 26 29 31 29 20 14 18 21 21 25 25 24 25 26 27 27 24 28 30 29 30 34 29 26 23 21 21 19 19 20 19 15 15 12 11 12 21 26 30 30 30 34 36 43
33 18 31 31 20 21 18 23 28 20 23 24 26 23 25 28 27 28 30 33 32 33 30 30 26 25 21 20 20 20 22 21 16 24 18 17 12 17 20 22 29 29 33 36 42
31 29 31 28 19 20 23 21 22 22 24 25 28 30 28 28 28 29 31 31 29 32 35 33 26 25 23 22 23 21 21 21 20 20 27 18 16 23 26 27 33 33 34 36 39
32 23 25 27 28 23 23 22 21 22 24 23 34 35 32 25 26 28 27 27 26 28 37 34 30 29 21 25 25 25 22 22 21 20 21 20 21 23 22 27 26 29 32 34 41
33 27 31 25 24 27 26 24 21 22 24 23 32 35 35 30 27 24 28 27 26 32 29 29 31 31 30 28 26 25 22 22 24 25 23 22 23 26 27 28 30 31 32 34 36
31 32 33 31 29 28 26 25 23 25 24 23 25 26 30 34 31 32 28 28 27 29 28 27 29 30 29 25 25 24 25 25 24 25 25 24 25 26 29 31 32 33 35 35 35
40 39 40 34 30 28 24 25 25 25 26 27 25 25 23 28 30 30 29 27 26 28 28 28 25 27 26 25 25 25 26 26 27 27 26 26 29 30 30 31 33 33 32 33 36

GFSSW_sfc_dewp_033.txt.gz
Dewpoint
54 54 54 54 54 54 55 55 55 55 55 55 56 56 56 57 57 48 35 39 44 67 69 56 58 61 60 58 59 58 53 48 39 43 44 46 45 50 53 55 55 56 60 63 64
54 54 53 53 53 54 54 54 54 54 55 55 55 56 56 56 46 32 47 65 66 69 56 52 55 58 56 54 54 53 57 52 41 40 45 46 44 47 50 52 54 56 61 62 63
53 53 53 53 53 53 53 54 54 54 54 55 55 55 56 54 39 23 67 64 68 71 41 50 52 55 52 49 50 50 53 56 41 41 45 45 46 46 47 49 53 57 61 62 62
53 53 53 53 53 53 53 53 53 54 54 54 55 55 55 48 21 41 67 66 68 50 36 46 48 52 48 46 48 46 48 51 41 41 42 44 46 46 45 45 53 58 61 61 61
53 53 54 54 54 54 54 55 54 53 53 54 54 55 51 36 23 43 70 64 43 45 33 43 46 49 45 42 45 46 45 44 44 42 39 43 46 49 48 47 52 58 60 61 61
53 54 54 54 54 54 54 54 54 53 54 55 55 54 45 32 24 19 33 46 38 45 31 39 42 46 45 42 43 44 44 43 42 41 38 36 43 46 50 51 53 57 59 60 60
53 54 54 54 54 54 54 53 53 55 57 58 57 50 40 34 23 11 35 39 40 41 30 35 37 44 44 41 42 43 37 42 42 37 33 35 38 44 49 53 54 55 58 59 60
53 54 53 53 53 53 53 53 53 58 56 56 56 48 39 34 36 20 33 39 42 43 35 34 36 41 43 40 34 39 38 33 34 33 32 33 34 40 45 52 54 55 55 57 59
53 53 53 53 52 52 52 52 54 57 55 55 51 45 37 40 26 30 28 39 43 45 43 37 38 40 41 37 29 28 29 31 30 32 31 31 32 37 44 48 52 55 55 55 57
53 53 53 52 52 51 51 52 54 55 54 51 47 42 38 29 27 22 26 37 44 44 43 39 39 36 38 38 29 26 25 28 31 32 30 30 31 36 40 46 49 54 55 55 55
53 53 52 51 51 51 46 31 36 45 46 40 39 35 31 29 26 18 32 36 43 42 39 40 37 37 31 38 33 28 25 26 30 31 31 32 33 35 38 43 46 52 55 55 55
53 53 52 51 51 50 36 29 32 32 28 25 21 20 28 32 30 19 25 29 41 38 33 33 33 29 24 22 29 29 25 25 28 29 31 32 32 32 35 41 45 50 53 55 55
53 52 51 50 50 39 30 27 29 32 27 19 17 18 17 32 31 29 16 28 35 38 28 22 22 23 17 17 19 22 23 24 23 28 29 30 30 32 33 37 45 47 52 53 55
53 52 50 50 40 29 24 26 28 32 24 11 17 19 19 23 29 30 14 22 30 33 33 24 21 19 19 17 15 14 17 21 21 23 25 28 25 32 32 33 43 45 50 52 54
52 51 50 49 38 29 26 24 27 32 11 15 18 24 21 20 21 27 24 14 22 24 27 26 21 18 19 17 16 16 15 17 20 22 23 24 25 30 31 30 35 42 47 50 53
51 50 49 35 31 24 25 24 29 24 11 16 17 19 20 21 22 25 25 16 21 20 22 23 19 17 18 18 17 17 15 16 16 15 18 22 21 25 26 32 33 38 41 47 49
50 48 46 36 25 23 26 23 15 9 10 22 22 22 19 20 22 23 26 18 18 19 20 20 19 17 16 18 18 19 16 14 12 11 13 19 20 26 28 28 31 34 38 41 47
48 47 44 28 24 25 26 18 12 8 22 24 23 23 22 23 21 21 25 25 19 17 16 18 16 17 19 18 20 20 16 12 18 10 10 17 18 21 26 27 29 34 34 39 44
48 30 28 23 25 25 23 11 8 21 23 21 22 21 20 21 23 21 22 23 24 17 20 20 20 19 18 18 21 21 18 13 12 12 8 8 15 17 22 25 28 31 34 37 43
41 29 28 23 26 25 20 16 15 17 17 17 18 22 25 25 24 24 21 21 23 23 26 26 24 21 18 19 19 21 19 14 14 20 17 13 17 15 25 26 27 31 33 35 38
38 22 26 24 25 19 9 12 15 14 14 16 15 19 24 27 29 27 25 28 29 28 27 25 26 25 22 19 19 18 19 19 14 13 14 16 14 19 25 28 29 30 32 33 35
30 22 28 26 19 17 12 16 24 13 14 16 19 21 20 25 30 30 29 32 28 31 29 28 27 27 21 19 20 20 20 23 17 25 15 16 16 18 20 21 27 29 32 32 37
31 25 27 24 17 15 17 15 17 16 15 18 17 27 30 30 31 35 34 33 28 30 34 32 29 28 26 20 21 20 19 20 20 19 26 16 17 24 26 26 28 29 32 36 39
32 23 22 22 20 19 20 19 17 24 18 18 23 26 28 26 26 29 33 32 27 27 40 38 31 30 24 26 22 23 19 19 19 19 21 20 21 25 27 30 32 32 34 35 39
33 27 29 23 21 23 23 21 20 21 19 19 25 27 26 26 28 35 34 31 27 32 32 31 34 32 28 26 25 21 20 19 21 23 21 21 23 26 29 29 30 32 35 36 40
38 32 31 30 27 27 25 25 22 19 20 18 19 22 23 27 28 26 34 31 30 31 30 30 30 33 31 27 28 26 25 21 19 21 22 22 23 25 29 30 30 30 32 34 36
48 44 39 33 28 25 26 23 20 21 22 25 25 21 21 24 27 25 26 27 27 28 27 30 29 32 31 30 29 27 26 26 24 23 23 23 27 28 28 30 32 33 34 35 35

GFSSW_sfc_dewp_036.txt.gz
Dewpoint
54 54 54 54 54 54 54 54 55 55 55 55 55 56 57 58 57 49 36 35 42 70 67 51 46 54 59 59 58 57 57 54 51 44 42 43 47 52 54 55 56 60 61 63 64
53 53 53 53 53 53 54 54 54 54 55 55 55 56 56 57 50 39 47 61 68 66 37 47 44 52 55 55 53 53 57 53 53 52 50 44 45 48 50 51 57 60 62 63 63
53 53 53 53 53 53 53 54 54 54 54 54 55 55 56 55 44 27 67 60 68 62 35 43 45 50 52 51 50 51 51 50 48 49 47 43 43 47 47 50 57 59 61 61 62
53 53 53 53 53 53 53 54 53 54 54 54 54 55 55 49 28 38 69 66 67 35 35 37 44 49 51 48 47 47 54 52 49 48 45 48 51 42 46 50 58 60 61 61 61
53 53 54 54 53 53 54 55 54 54 54 55 54 54 51 41 31 36 69 65 42 29 36 34 42 46 48 47 45 44 54 51 50 46 50 52 53 49 46 52 57 60 60 60 61
54 54 54 54 54 54 54 54 54 53 56 58 56 55 45 37 35 35 42 47 33 30 34 32 38 42 47 46 42 44 47 48 48 43 38 40 50 50 44 49 55 59 59 60 59
54 54 54 54 54 54 54 54 53 53 57 59 58 51 40 36 33 20 30 42 36 35 31 30 34 40 45 44 43 41 41 42 43 40 37 35 37 44 50 50 53 57 59 59 59
54 54 54 54 54 53 53 53 52 54 59 57 58 49 40 39 40 36 13 26 33 34 34 29 30 37 40 44 41 38 40 38 40 40 37 33 32 41 51 51 53 55 56 59 59
54 54 54 53 53 52 51 52 52 56 57 56 53 46 39 45 37 35 27 28 32 37 37 31 29 31 35 39 39 37 35 38 38 39 35 32 32 38 48 50 53 54 54 56 59
54 53 53 53 52 51 51 51 52 56 55 52 50 44 41 34 32 33 32 24 32 37 37 34 30 28 31 35 36 34 30 34 35 33 33 30 30 37 41 48 52 54 54 55 56
53 53 52 52 51 50 47 29 22 41 28 36 40 35 32 35 28 26 30 24 34 38 37 37 32 29 30 35 36 33 27 27 31 32 30 31 30 38 41 48 49 53 54 55 55
53 53 52 51 51 50 44 22 21 23 23 23 23 23 28 32 30 25 26 24 33 37 38 36 33 32 31 32 33 35 30 24 25 28 32 32 30 33 39 45 45 50 53 54 54
53 52 51 51 50 42 23 20 19 22 21 18 18 17 15 20 27 28 21 26 30 36 37 35 33 33 32 31 28 34 32 28 24 25 30 32 32 34 34 39 43 48 52 54 55
52 52 51 50 39 32 21 19 18 21 17 12 12 12 13 10 19 30 20 30 30 33 37 34 32 31 31 29 27 24 30 27 26 24 25 33 28 37 33 33 40 42 49 51 55
51 51 50 49 39 30 20 17 18 23 12 13 13 22 14 9 15 20 28 24 28 26 35 34 26 24 27 26 19 17 19 23 22 22 23 23 25 30 33 33 35 41 46 50 53
51 50 49 37 34 28 18 18 20 17 9 17 20 23 18 13 10 17 27 24 25 26 31 34 30 22 19 19 16 15 14 14 15 17 21 23 23 28 30 35 35 38 43 50 52
50 48 47 40 29 19 18 19 9 9 9 18 21 21 22 22 15 14 25 26 18 23 27 29 30 27 21 17 18 16 14 14 14 14 15 21 21 27 27 32 34 35 42 49 51
48 47 45 35 24 20 20 16 12 7 11 18 17 17 19 22 22 17 21 24 21 17 20 22 20 24 21 19 18 16 14 13 18 13 11 18 18 23 27 27 28 33 39 43 48
47 38 33 29 23 22 20 13 11 16 17 13 13 16 21 23 27 24 21 23 24 17 22 20 21 21 22 16 17 18 16 13 12 12 9 10 15 17 24 26 27 27 34 40 44
42 38 35 26 22 23 19 17 10 13 12 10 10 11 15 17 23 28 28 21 23 19 19 23 22 19 19 18 16 17 18 14 15 20 19 14 21 19 26 28 29 31 30 37 41
39 27 26 25 23 22 15 9 13 10 9 8 7 8 10 29 28 28 29 34 28 27 25 20 22 21 21 19 18 17 19 18 15 15 15 17 13 26 32 31 31 31 33 36 41
37 30 27 24 19 14 11 14 22 16 21 13 15 11 21 29 28 33 36 38 38 29 28 27 19 23 24 21 19 18 20 22 19 26 18 20 16 22 28 30 30 30 34 37 42
36 32 27 21 17 15 16 13 12 22 21 24 15 13 20 22 27 35 37 40 35 31 32 33 29 26 26 24 21 20 19 20 21 19 28 19 17 25 28 27 34 32 37 41 46
38 30 30 26 22 21 18 15 16 20 25 29 25 17 18 22 23 35 35 37 35 32 46 37 32 31 25 28 26 24 19 20 19 21 23 19 24 26 27 28 32 37 40 41 47
35 33 33 27 27 26 22 19 23 23 32 26 18 27 26 21 24 28 34 31 34 39 32 32 33 32 28 28 24 19 18 19 21 25 24 22 22 30 35 34 35 36 42 44 48
41 41 39 36 32 27 27 21 24 18 15 19 21 22 21 17 21 25 29 30 35 31 29 30 32 34 33 31 29 27 20 20 19 19 21 21 22 30 33 38 37 41 41 45 46
41 42 41 38 32 29 29 27 22 20 22 21 19 18 19 18 23 22 22 23 25 26 27 28 31 32 30 32 31 28 27 22 21 20 20 23 29 32 34 36 38 38 37 38 36

GFSSW_sfc_dewp_039.txt.gz
Dewpoint
54 53 53 53 54 54 54 54 55 55 55 55 55 56 56 57 57 51 45 39 44 62 69 55 49 49 62 63 63 62 58 55 54 51 50 53 53 58 59 59 60 61 62 62 63
53 53 53 53 53 54 54 54 54 54 55 55 55 55 56 57 52 46 50 59 60 61 45 45 44 44 53 60 61 61 57 54 58 53 51 51 52 54 58 59 60 62 63 63 63
53 53 54 53 53 53 53 54 54 54 54 55 55 55 55 55 47 37 62 61 62 66 37 30 42 41 48 54 55 56 54 52 54 52 51 50 50 51 58 59 60 61 62 63 63
53 53 54 54 53 53 54 54 54 54 54 54 55 55 55 51 29 32 67 66 63 54 36 29 34 40 46 50 52 50 53 52 50 50 51 51 53 48 58 59 62 62 63 62 62
54 55 55 55 54 55 55 55 55 54 54 55 57 54 52 45 38 36 69 68 55 39 30 27 33 41 42 49 50 47 52 51 51 49 50 54 51 54 58 60 62 62 62 62 62
55 55 55 54 55 55 54 54 54 54 54 56 57 54 49 39 39 36 51 55 47 33 28 29 35 39 43 48 48 47 48 51 53 49 49 48 48 50 59 60 61 61 61 61 61
55 55 54 54 54 54 54 53 53 53 54 57 57 53 45 35 37 37 46 44 34 31 25 29 34 34 41 43 48 47 45 50 49 48 47 47 48 46 59 59 59 60 60 61 61
55 54 54 54 54 53 53 52 52 53 54 58 57 53 45 40 41 38 38 42 33 31 27 29 33 30 32 40 43 43 42 41 46 46 43 46 46 53 56 58 58 59 60 61 62
54 54 54 53 53 52 52 51 54 53 56 56 54 51 42 47 41 40 39 30 36 33 34 31 30 28 28 35 38 40 38 37 40 41 41 34 36 53 56 56 57 58 59 59 61
53 53 53 52 52 51 50 51 53 54 56 53 50 47 44 32 36 38 36 32 27 32 33 32 32 26 26 30 32 37 37 36 36 39 39 36 31 52 54 57 59 59 58 58 59
53 53 52 52 51 50 48 39 20 35 26 17 20 27 25 36 34 36 35 34 25 30 32 34 31 27 25 28 31 38 38 34 34 37 37 37 31 50 56 58 59 58 59 58 58
52 52 52 51 51 49 47 20 17 16 14 16 17 19 21 23 26 30 34 30 21 28 32 34 31 29 27 27 28 33 36 35 30 31 33 34 32 34 53 55 55 57 59 58 57
52 52 51 50 49 44 33 18 17 16 14 15 15 15 17 17 19 25 28 29 22 28 32 33 34 34 32 27 26 30 33 34 32 28 27 31 30 33 50 52 57 61 65 62 56
52 51 50 50 40 34 30 21 17 17 18 15 12 15 16 16 15 23 27 26 26 25 33 34 36 34 34 29 28 29 32 34 34 31 25 32 30 35 40 48 55 58 59 59 55
51 50 49 49 41 36 32 20 16 19 14 19 19 23 19 12 8 15 24 25 24 24 32 34 36 35 32 32 30 30 28 31 33 32 27 27 30 33 35 41 48 53 54 55 55
50 49 49 43 40 37 27 19 19 17 12 8 17 16 14 16 20 16 19 25 22 23 29 32 37 35 34 32 32 31 28 23 28 27 22 22 28 30 34 33 39 47 51 53 54
49 48 48 43 35 31 27 20 16 10 9 12 13 12 12 16 22 24 21 16 21 20 27 27 30 35 29 30 30 28 20 15 14 19 18 18 22 23 32 34 37 39 48 52 54
48 48 47 40 37 33 21 20 16 10 12 12 11 9 10 13 17 20 24 21 23 20 24 26 25 31 31 24 21 23 18 14 13 13 12 16 14 20 26 30 34 36 45 51 53
48 42 39 37 38 29 23 19 14 12 11 10 9 8 7 10 18 21 24 30 30 26 18 22 23 30 33 27 22 19 16 15 13 19 15 15 14 16 18 23 23 27 36 50 52
44 41 39 33 28 26 24 23 16 12 9 11 12 8 5 15 19 21 27 31 37 38 32 18 17 25 27 31 26 19 18 14 13 13 12 13 14 14 15 17 23 24 27 46 49
41 37 32 27 26 25 19 18 14 15 18 16 18 16 11 20 23 21 25 29 38 37 37 32 24 16 22 24 24 17 17 14 15 16 16 19 19 18 18 19 22 25 30 41 48
38 33 36 31 23 23 17 16 23 11 19 20 22 19 14 14 23 23 25 33 38 38 33 32 31 18 16 21 23 21 15 18 14 16 16 15 16 29 29 21 21 25 29 38 45
38 37 35 33 21 22 24 18 16 15 23 23 19 18 17 20 25 32 33 33 36 34 32 36 30 27 19 19 20 19 15 15 19 23 19 16 20 29 32 23 25 32 34 32 45
40 29 35 34 30 27 26 23 18 18 24 27 25 28 23 22 29 34 32 34 34 33 44 39 32 29 25 20 23 22 18 16 18 18 17 19 21 27 32 30 36 33 40 40 47
36 32 37 32 32 33 29 26 27 22 25 23 23 21 27 23 22 26 30 28 28 39 36 30 27 31 32 30 29 26 18 18 17 19 20 18 25 30 34 37 40 40 40 44 46
35 39 37 36 35 32 30 28 27 25 26 19 19 19 24 25 29 24 23 24 28 32 31 27 28 32 34 32 30 30 29 19 18 18 19 22 20 35 36 41 40 43 41 40 43
42 43 41 37 34 31 31 31 31 30 33 32 22 19 17 22 28 28 23 21 21 28 29 25 25 29 30 33 32 32 32 27 19 20 19 22 25 34 35 40 37 40 40 38 38

GFSSW_sfc_dewp_042.txt.gz
Dewpoint
53 53 53 53 54 54 54 54 55 55 55 55 55 56 56 57 57 53 48 44 45 60 71 66 62 61 65 65 62 61 55 55 54 54 53 58 59 61 62 60 60 61 58 56 57
53 53 53 54 54 54 54 54 54 55 55 55 55 55 56 56 52 48 48 56 60 60 60 58 54 52 62 62 63 61 58 56 56 55 55 57 58 59 59 60 60 59 56 60 60
53 53 54 54 53 53 54 54 54 55 55 55 55 56 55 55 49 43 60 61 63 62 44 52 47 44 44 55 60 61 57 56 53 56 54 50 59 60 60 60 60 60 61 61 60
53 53 54 54 53 53 54 54 54 54 54 55 55 57 55 52 31 32 68 63 64 54 44 31 32 40 42 48 54 55 59 55 52 55 55 50 53 59 59 60 62 61 62 62 62
54 55 55 55 54 55 55 55 54 53 54 54 55 55 53 45 39 39 66 66 59 48 38 31 28 35 40 45 49 51 53 54 53 51 51 51 50 57 59 62 62 62 61 62 63
55 55 55 54 54 55 54 54 54 53 53 54 56 54 49 36 38 40 56 56 48 43 35 31 29 31 40 40 47 50 51 51 49 48 50 49 53 59 60 62 62 62 61 62 62
54 54 54 54 54 54 54 53 53 54 54 53 58 53 48 34 34 36 55 50 47 38 33 29 29 34 37 42 42 45 47 50 48 47 49 50 49 58 61 61 61 61 62 62 62
54 54 54 53 54 53 53 52 53 56 54 54 58 52 46 46 44 42 39 41 44 36 29 30 28 33 32 32 31 41 45 45 48 48 50 48 48 59 61 60 60 61 61 61 62
54 53 53 53 53 52 52 52 53 54 56 57 53 51 46 50 46 42 40 40 34 32 30 26 29 31 31 27 27 36 36 41 45 49 48 47 48 59 60 60 59 60 60 61 61
53 53 53 52 52 51 51 52 52 56 56 55 53 48 42 31 30 32 40 40 34 32 31 28 28 27 27 28 26 33 39 38 39 40 46 46 50 58 59 59 60 60 60 60 60
53 53 52 51 51 50 49 35 15 16 20 13 14 41 24 21 20 29 36 37 37 32 30 32 28 27 26 26 29 34 37 38 38 39 38 42 51 57 58 58 59 60 60 60 61
52 52 52 51 50 50 45 22 18 16 13 14 14 14 15 17 16 17 31 32 32 29 31 33 29 29 31 26 27 29 29 36 39 39 35 37 50 54 56 57 58 59 60 60 60
52 51 51 50 50 40 34 29 26 16 13 15 16 15 15 16 16 15 24 31 30 28 28 30 33 33 30 28 25 27 27 29 37 37 32 35 42 50 53 56 56 57 60 60 59
51 51 50 50 36 39 34 30 32 18 16 17 17 18 15 18 15 18 19 27 30 23 24 28 32 31 32 29 25 24 26 27 31 34 33 31 31 49 53 55 55 56 58 59 59
51 50 48 49 42 39 32 35 30 20 2 17 14 17 12 15 19 20 25 25 26 26 23 26 29 32 30 30 29 25 27 27 30 32 32 32 29 41 53 53 53 54 55 57 59
50 48 49 44 43 41 38 33 20 14 12 12 12 10 10 12 14 22 23 27 26 25 26 24 32 33 34 33 33 31 30 30 30 29 28 30 27 29 50 52 53 54 52 54 56
48 48 48 45 28 33 35 21 13 8 12 11 10 9 9 8 12 18 21 23 30 22 22 24 24 31 36 34 34 33 30 27 25 23 23 28 23 25 40 52 52 53 56 57 55
48 48 47 44 43 39 27 19 14 11 9 10 11 8 6 15 19 17 21 23 33 35 29 20 20 26 31 35 34 31 28 26 24 19 21 18 17 21 25 38 50 53 57 55 54
48 42 41 39 40 36 22 18 15 12 13 14 13 12 12 16 23 20 20 26 32 35 33 30 20 28 29 33 32 31 29 24 15 21 14 16 15 18 19 18 30 46 54 53 55
43 41 39 39 33 24 21 23 20 17 16 16 17 19 15 18 21 23 20 25 32 33 34 33 28 24 27 28 31 23 23 20 16 15 15 14 14 17 16 16 18 29 48 50 55
40 36 38 35 26 22 17 18 15 15 19 21 21 21 15 13 14 22 19 22 31 32 34 33 31 27 20 22 27 28 20 18 17 16 13 13 14 15 19 20 19 22 43 51 53
39 35 37 35 22 23 21 21 25 16 24 22 21 20 18 21 21 22 23 30 36 35 33 34 36 32 26 21 21 31 22 17 14 14 16 17 14 24 21 19 19 17 26 50 53
39 37 37 32 26 27 27 28 24 26 25 25 22 24 24 23 24 31 31 30 34 34 37 39 36 30 25 20 19 18 26 17 16 15 15 13 14 23 25 29 30 25 24 37 50
38 30 34 35 33 32 31 30 28 28 25 27 26 26 24 24 28 28 29 32 32 32 38 41 31 31 29 27 29 22 19 23 16 16 14 15 16 21 23 30 28 24 31 39 49
36 32 35 30 32 34 33 31 28 27 30 28 22 25 26 24 24 26 27 25 26 33 36 37 29 26 25 26 27 31 26 21 15 16 16 16 19 20 26 35 33 34 37 42 48
36 35 36 35 35 33 33 30 33 34 32 30 32 32 24 24 26 26 28 27 28 31 33 36 30 27 24 30 32 31 31 31 17 16 21 19 19 22 29 39 40 41 44 47 45
40 40 40 38 35 35 31 33 33 32 37 34 34 33 28 28 30 31 31 29 27 30 33 33 28 26 26 31 32 30 31 31 23 18 18 19 22 29 46 51 51 39 38 40 46

GFSSW_sfc_dewp_045.txt.gz
Dewpoint
54 53 54 54 54 54 54 54 55 55 55 56 55 55 55 56 56 53 47 44 46 57 63 62 66 63 65 65 63 59 54 53 55 55 55 60 59 64 64 61 60 58 57 59 62
53 53 54 54 54 54 54 54 54 55 55 55 55 55 55 55 52 49 48 57 58 63 61 62 61 61 63 63 63 61 56 54 55 56 55 58 60 62 60 59 56 55 57 59 62
53 53 53 54 54 53 54 54 54 54 54 55 55 55 55 55 49 42 59 58 62 67 61 59 58 59 58 60 61 62 57 57 54 56 59 56 59 60 59 59 57 54 56 58 61
53 53 53 53 53 53 54 54 54 54 54 54 54 55 55 53 27 36 69 62 65 60 50 52 47 43 47 50 55 58 59 60 54 54 56 53 59 59 60 60 59 56 56 57 59
53 54 55 54 54 54 54 54 54 53 53 53 54 54 51 42 34 37 67 60 58 48 43 42 43 42 44 47 50 55 57 56 59 59 53 52 57 59 60 61 57 57 56 56 57
54 55 55 54 55 55 55 54 53 53 54 53 54 54 48 27 30 41 57 54 52 40 39 31 35 39 39 40 49 50 50 52 53 53 49 49 52 59 61 61 59 59 57 57 57
55 55 54 54 54 54 54 53 53 54 57 54 55 52 48 32 39 42 53 52 52 37 35 32 30 35 34 41 41 43 46 46 48 50 50 52 55 58 61 61 60 60 60 59 61
54 54 54 54 54 54 53 53 53 55 54 55 58 51 46 46 48 46 43 44 48 40 31 33 30 33 34 35 30 40 41 41 46 50 48 48 48 60 61 60 60 60 60 60 62
54 54 53 53 53 53 52 52 53 56 58 57 52 49 45 50 43 36 39 39 46 42 34 30 28 28 32 30 27 31 36 42 43 48 48 48 53 60 61 61 60 59 60 61 61
53 53 53 52 52 52 52 52 52 57 55 54 53 42 34 21 19 16 33 40 34 36 31 28 25 25 28 27 29 28 36 37 38 43 48 47 50 59 60 60 61 61 60 60 61
53 52 52 51 51 51 50 22 22 17 17 13 13 28 19 19 19 19 20 39 34 31 27 28 23 22 22 28 28 34 37 38 39 41 43 47 49 59 59 60 60 60 60 61 61
52 52 51 50 50 51 42 21 24 25 15 15 14 14 15 16 15 17 21 36 35 29 31 30 23 23 25 28 27 25 27 32 35 39 38 40 46 57 59 59 59 60 60 60 60
52 51 50 49 51 41 36 29 30 18 16 15 16 15 15 16 16 16 18 27 32 33 30 29 30 29 29 27 26 25 24 27 30 37 37 43 46 53 58 59 59 59 60 60 60
51 50 49 50 35 39 31 29 35 23 13 13 13 15 12 17 17 22 25 21 28 29 31 29 29 29 28 29 27 24 26 27 28 33 32 35 37 54 56 57 58 59 59 59 60
51 50 48 50 38 33 28 36 34 19 0 15 11 14 12 9 14 19 23 27 23 23 25 25 28 28 29 29 29 26 26 27 27 29 36 30 31 45 53 54 56 58 59 60 60
51 49 49 45 43 40 37 32 19 11 8 12 11 9 7 11 14 19 23 35 34 33 23 25 26 28 28 31 30 30 27 28 30 29 26 27 31 31 49 50 55 56 57 58 60
49 48 48 45 27 39 33 21 11 6 11 9 10 10 8 19 17 19 27 34 34 31 28 25 25 25 32 29 32 31 27 24 25 25 25 28 29 31 47 50 52 55 55 54 59
48 47 46 44 43 40 25 18 11 14 12 12 13 11 11 23 22 19 20 28 34 34 33 32 22 25 26 32 31 31 30 27 23 26 26 26 25 28 39 49 52 52 54 54 57
48 42 40 39 38 33 21 18 16 15 16 15 16 16 17 19 22 21 22 28 32 33 30 32 30 32 29 28 34 33 30 31 24 16 18 24 19 19 29 42 50 52 53 54 53
43 40 38 39 32 24 19 23 19 17 17 19 18 20 16 14 15 22 19 28 31 33 33 32 30 32 32 27 30 34 31 29 21 22 14 17 15 21 21 24 40 52 52 52 53
39 35 36 38 26 21 17 18 17 20 22 21 20 19 18 18 19 22 20 28 33 32 32 33 32 32 34 24 23 28 30 27 29 23 24 13 16 19 19 22 25 44 49 51 54
37 27 35 33 28 25 23 26 29 20 25 22 21 19 18 20 22 22 27 30 34 32 34 36 37 34 34 34 34 31 28 20 27 24 17 19 20 19 18 19 21 25 41 47 53
37 35 39 33 28 29 30 30 27 26 25 24 23 24 24 22 21 29 31 31 34 33 34 37 36 26 27 25 27 25 24 24 21 19 17 23 23 19 21 26 26 25 24 40 50
37 31 34 33 33 30 32 32 29 29 28 30 25 25 24 23 25 25 30 32 30 31 41 38 35 29 26 27 28 25 26 26 22 17 16 16 17 17 18 22 25 31 32 29 46
34 30 33 30 31 32 34 32 30 31 33 31 27 32 30 23 23 25 27 26 31 37 38 37 29 31 29 29 28 26 25 25 28 20 16 16 15 16 20 24 38 42 32 29 43
35 34 34 34 34 35 33 30 32 31 32 32 33 35 32 26 24 20 25 26 26 34 35 37 28 31 29 27 26 25 26 27 29 29 17 17 17 22 49 52 53 53 40 33 48
38 40 40 37 36 35 35 36 36 38 38 37 38 36 34 32 30 28 28 27 28 32 34 34 32 29 25 26 26 28 31 32 33 35 32 19 25 44 52 54 56 57 55 44 45

GFSSW_sfc_dewp_048.txt.gz
Dewpoint
54 54 54 54 54 54 54 55 55 55 55 55 55 56 55 55 54 53 47 44 48 59 65 70 66 64 64 65 65 59 54 52 55 56 57 61 60 63 64 61 58 58 59 61 65
54 54 54 54 54 54 54 55 55 55 55 55 55 55 55 54 52 49 49 55 58 63 65 66 62 62 63 64 64 59 54 52 56 56 57 60 59 62 61 60 55 57 61 64 64
54 54 54 54 54 54 54 54 55 55 55 55 55 55 55 54 47 38 59 56 59 65 61 58 58 62 61 62 62 61 57 56 55 56 57 56 60 61 60 59 55 57 61 62 63
54 54 54 54 54 54 54 54 54 54 55 54 54 55 54 52 21 39 69 59 62 63 58 57 59 56 56 55 60 59 60 60 56 56 56 55 60 59 60 60 58 58 61 61 62
54 54 54 54 54 54 55 54 54 54 55 54 54 54 50 37 30 36 62 60 58 58 54 50 55 46 52 53 52 58 58 58 59 59 58 56 57 59 60 58 57 58 60 61 61
54 54 54 55 55 54 55 55 54 54 56 55 54 54 46 18 29 44 55 55 56 52 50 43 52 44 44 47 52 51 54 55 54 53 54 55 55 59 59 56 56 57 58 60 61
54 54 54 54 54 54 54 54 53 55 56 55 56 51 47 32 42 47 53 52 52 51 42 36 40 45 38 41 42 47 42 43 45 50 51 52 56 57 58 56 55 56 57 60 60
53 54 53 54 53 53 53 53 54 55 55 56 55 50 43 45 47 46 53 47 50 43 32 32 31 36 35 36 31 38 40 41 45 48 49 50 48 60 58 57 55 55 55 57 58
54 53 53 52 52 52 52 52 53 57 57 57 52 47 33 48 30 31 36 42 47 44 39 31 30 30 32 32 31 30 39 41 44 47 49 48 53 60 60 59 58 56 55 55 56
53 53 52 52 51 51 52 52 56 57 56 55 52 37 26 16 18 18 27 44 43 42 38 29 26 25 28 31 31 31 33 38 40 42 48 47 51 60 60 60 59 58 58 57 58
53 52 52 51 51 51 49 26 24 22 23 20 13 18 18 17 18 17 19 39 34 34 31 28 24 21 21 31 32 33 36 37 39 40 48 47 52 59 60 60 59 59 59 59 59
52 52 51 51 50 51 40 25 27 29 22 17 15 15 15 15 15 20 18 37 33 29 29 28 22 22 22 25 29 29 27 32 35 40 42 44 47 58 60 60 60 60 59 60 60
52 51 51 50 51 40 35 25 29 18 17 15 16 16 14 15 16 18 24 22 33 31 29 26 25 24 23 26 26 27 27 26 33 33 38 39 41 54 59 59 60 60 61 60 60
52 51 50 50 35 37 26 34 36 25 9 12 11 13 10 13 14 20 21 24 24 33 31 28 30 25 22 23 26 25 28 29 27 31 30 38 35 49 57 58 59 59 60 60 61
51 51 49 49 39 30 29 37 32 16 -2 14 11 13 10 10 12 17 29 32 23 20 29 32 29 29 26 22 26 21 27 27 27 29 29 29 30 36 55 56 57 58 59 60 60
51 50 50 44 41 39 39 36 18 9 4 11 12 12 17 18 19 20 35 36 37 34 27 22 27 29 28 29 28 30 28 27 28 27 25 27 29 32 49 54 57 58 59 60 60
50 49 48 45 35 37 39 19 9 4 13 11 12 12 14 21 20 20 30 33 32 31 31 31 23 24 27 27 29 29 26 24 23 24 25 30 28 31 35 52 55 58 58 59 60
49 48 44 44 42 42 24 16 9 14 13 15 14 13 13 18 21 19 25 31 33 33 32 31 22 25 26 27 29 29 27 25 21 23 26 29 28 30 33 44 53 55 58 59 60
48 40 39 38 37 29 21 17 16 15 16 15 15 16 16 16 20 18 24 32 32 32 29 30 29 32 32 31 30 30 28 28 26 23 24 27 27 26 34 35 49 51 54 57 57
41 38 37 38 33 23 18 22 17 18 18 20 14 18 16 14 17 19 19 31 32 32 33 32 29 32 33 33 30 31 30 28 26 25 19 23 19 30 28 34 41 49 51 54 56
38 32 34 37 26 22 16 18 20 20 24 20 18 16 18 17 20 21 21 31 33 32 32 33 31 31 34 30 25 26 31 31 29 27 25 20 21 25 29 32 32 38 52 52 54
35 23 34 34 27 27 25 27 31 24 25 22 20 19 17 19 21 21 23 30 34 32 32 36 33 31 33 34 34 33 30 29 30 28 23 25 26 24 24 26 28 30 42 53 54
36 36 38 33 26 27 31 32 31 27 27 25 23 22 23 21 21 27 30 33 34 33 33 34 35 24 26 27 29 27 27 26 25 26 29 27 28 28 23 25 26 27 32 44 53
35 29 32 33 33 29 31 31 31 31 30 31 27 27 24 23 24 22 29 32 32 32 39 37 31 27 24 25 29 27 27 27 25 24 26 27 29 27 26 26 31 30 32 31 39
34 31 32 29 31 32 35 32 31 31 34 33 29 32 31 25 23 25 27 29 34 37 37 34 27 29 30 31 29 28 28 28 26 25 26 25 21 23 28 27 33 44 45 43 38
35 34 34 32 35 34 34 30 33 33 34 33 32 32 36 31 26 22 25 25 30 33 34 33 28 31 29 29 29 26 27 27 27 27 27 29 24 31 47 54 57 58 59 59 51
39 41 40 37 36 36 35 36 36 38 36 38 39 37 34 36 37 36 27 26 27 31 31 31 29 30 24 27 25 25 27 31 32 32 35 25 34 43 53 56 55 56 58 60 61

GFSSW_sfc_dewp_051.txt.gz
Dewpoint
55 55 55 55 55 55 55 55 55 56 56 56 56 56 55 55 54 52 42 41 44 59 67 68 65 64 63 64 65 60 55 52 53 55 56 60 59 62 63 58 58 58 59 61 66
55 55 54 55 55 55 55 55 55 55 56 56 55 55 54 54 51 47 49 52 57 65 62 62 59 61 59 62 64 59 57 53 55 57 57 58 59 61 61 58 57 58 61 64 65
54 54 54 54 54 55 55 55 55 55 55 55 55 55 54 53 43 32 54 64 59 62 62 59 59 58 58 61 61 60 56 56 55 56 58 59 59 62 60 58 58 59 62 63 64
54 53 53 54 54 54 55 55 55 55 55 55 55 54 54 51 17 32 62 65 60 58 63 53 56 55 52 56 59 58 59 58 57 56 55 57 59 60 60 59 60 60 62 63 63
53 54 54 54 53 54 54 54 55 55 55 56 54 53 51 35 23 41 62 59 57 56 52 46 53 51 45 51 57 57 58 58 59 58 57 57 56 57 59 59 59 61 62 61 61
54 55 54 54 54 54 53 54 54 54 56 56 54 54 47 17 33 44 55 54 56 52 51 50 50 50 48 55 52 53 56 57 55 54 55 53 52 57 59 59 59 61 61 61 60
54 54 54 54 54 53 53 53 53 55 56 55 56 51 42 26 40 46 53 53 56 52 49 51 51 47 42 43 48 49 50 48 48 49 51 51 52 56 58 58 59 60 60 60 60
53 54 53 53 53 53 53 53 53 54 55 56 56 51 34 41 45 47 51 50 53 50 43 41 43 47 36 36 32 37 40 43 47 48 49 50 47 58 57 58 58 59 59 59 59
53 53 53 53 53 53 52 53 53 57 57 56 52 49 19 41 17 21 32 43 46 52 39 36 34 39 37 34 31 35 29 39 46 48 48 49 48 59 57 57 57 58 59 59 59
53 53 53 52 52 52 52 53 59 58 56 55 50 34 18 14 16 17 31 46 43 43 36 29 35 29 30 32 19 27 28 40 45 46 47 48 48 59 58 57 56 57 57 58 58
53 52 52 52 52 51 47 30 26 25 26 16 15 16 13 14 18 22 23 40 40 32 26 28 24 27 24 28 31 35 35 35 43 45 46 47 48 57 59 58 57 55 56 57 57
53 52 52 51 51 51 40 29 31 31 21 18 16 15 15 15 16 16 26 37 38 30 28 25 21 22 24 24 29 29 33 35 39 41 43 46 46 54 59 59 59 57 55 55 56
52 52 51 51 51 40 31 30 34 26 18 14 16 12 11 14 15 14 24 25 35 34 28 21 22 23 22 21 22 25 27 33 33 33 38 40 41 48 58 59 60 59 59 57 56
52 52 51 50 38 37 28 33 38 31 11 15 11 11 12 12 13 17 35 26 21 33 32 31 30 24 22 20 21 18 24 31 32 30 36 40 39 43 51 57 59 59 59 59 59
52 51 50 50 39 30 34 39 28 18 -5 12 12 14 17 13 18 15 34 34 25 24 32 31 30 29 24 23 21 19 21 21 27 32 31 33 36 40 49 52 57 59 59 60 60
52 50 50 44 40 35 39 35 22 11 -1 11 13 12 14 19 18 21 32 35 37 34 31 28 32 31 29 27 23 22 25 23 21 23 30 33 33 36 44 50 54 57 59 60 60
50 50 48 45 34 37 39 22 13 4 13 12 12 13 16 15 16 21 31 31 30 24 28 30 25 26 30 28 28 25 21 23 22 18 21 33 32 35 39 46 50 55 58 60 61
49 47 45 43 39 38 26 20 9 13 14 14 14 14 14 15 17 18 23 28 30 29 31 28 16 24 25 28 28 28 24 17 21 15 12 29 30 32 37 38 46 51 56 59 60
48 39 39 37 37 32 24 16 15 16 15 14 15 14 14 15 16 15 23 29 32 28 26 28 28 32 31 32 27 28 27 23 18 25 20 16 29 33 35 36 38 44 53 57 59
42 38 35 37 33 26 23 23 18 19 18 17 13 16 13 14 13 15 16 32 31 29 32 31 28 31 33 33 31 28 29 26 25 21 20 19 22 25 36 35 38 42 46 54 58
38 32 33 36 30 25 22 20 21 21 23 18 16 15 16 15 16 16 15 30 31 27 32 32 28 24 31 31 27 28 28 30 27 26 19 17 19 29 34 40 37 41 44 49 56
40 24 35 34 27 29 26 30 32 25 26 22 21 19 18 18 17 18 17 23 32 29 24 33 32 26 25 31 34 32 30 27 29 30 28 25 19 28 35 36 37 37 40 47 54
38 37 36 35 28 30 32 31 30 29 28 26 23 20 21 19 19 23 26 31 32 29 27 33 31 22 12 24 29 29 29 29 29 30 32 24 23 31 35 35 35 36 39 45 54
37 28 32 34 34 33 31 30 29 31 31 32 29 27 24 22 25 22 26 31 33 31 38 36 29 21 17 21 27 27 26 28 28 29 31 31 30 31 30 35 35 35 38 37 45
37 34 35 31 32 33 33 32 30 30 33 33 31 30 30 25 23 24 24 28 32 34 37 33 23 23 21 22 26 25 24 23 28 29 30 32 31 36 37 36 37 34 45 51 50
37 38 37 35 35 35 34 32 33 34 34 32 33 34 37 35 28 24 25 26 27 35 34 36 22 25 21 19 25 26 25 24 26 28 29 29 31 34 49 51 50 56 58 58 59
41 42 41 37 36 35 36 37 37 38 37 35 38 37 35 35 37 38 39 37 33 30 34 32 30 22 15 23 26 25 25 24 28 33 31 30 33 43 48 55 55 56 57 58 59

GFSSW_sfc_dewp_054.txt.gz
Dewpoint
55 55 55 55 55 55 56 56 56 57 57 57 56 56 55 54 54 51 35 41 42 59 65 61 62 61 61 61 64 61 53 51 51 54 56 59 58 61 63 60 59 59 59 62 65
54 54 54 54 55 55 55 56 56 56 56 56 56 55 54 54 48 41 44 50 55 64 61 59 58 58 56 58 62 57 55 50 53 55 55 58 57 59 60 58 57 58 60 63 64
54 54 54 54 54 55 55 55 55 56 56 56 56 55 54 53 41 36 54 59 58 61 55 56 55 54 50 55 58 58 54 53 54 55 56 56 56 59 58 57 57 59 61 64 63
54 54 54 54 54 54 55 55 55 55 55 56 56 54 54 49 24 35 64 65 63 51 48 48 50 47 45 49 53 53 55 55 54 55 53 54 57 57 58 58 59 60 61 63 62
54 55 55 55 54 54 54 54 55 55 55 57 56 55 51 34 16 38 59 65 54 54 49 47 46 42 38 42 47 51 53 55 57 55 54 55 54 54 56 59 60 61 61 61 61
55 55 55 55 55 54 54 54 54 54 56 57 55 55 43 17 34 43 52 51 43 48 50 43 41 39 38 40 40 46 48 55 56 55 55 53 52 53 56 59 60 61 61 60 59
54 54 54 54 54 53 53 53 54 55 56 56 56 50 33 29 35 46 50 48 48 42 42 40 43 40 33 37 42 43 47 50 52 52 51 52 50 51 58 59 60 60 61 59 59
54 54 54 54 53 53 53 53 54 55 56 57 57 49 30 31 32 37 45 47 52 46 43 45 41 41 33 33 27 30 40 44 49 49 49 50 45 54 58 59 59 60 60 59 59
54 54 53 53 53 53 53 54 56 57 57 57 50 42 18 37 17 20 26 43 51 41 43 45 39 39 37 26 19 21 25 36 43 48 48 49 46 56 57 57 58 60 59 59 59
53 53 53 53 53 52 52 53 59 58 54 51 44 30 16 17 20 19 33 43 43 40 31 32 33 29 30 22 16 21 21 28 37 47 48 47 47 55 56 56 58 59 59 59 58
53 53 53 52 52 52 47 34 36 23 20 18 15 14 13 16 18 23 41 41 39 41 27 26 27 23 19 23 21 26 25 26 41 47 46 46 46 54 56 55 57 58 59 59 58
53 53 52 52 52 52 41 27 32 32 19 16 15 13 13 16 17 19 35 36 34 34 29 24 21 24 22 20 22 24 31 32 35 44 46 45 45 48 56 56 56 57 58 58 58
53 53 52 51 52 42 30 31 35 33 19 15 14 12 11 14 14 16 27 33 35 28 25 22 20 19 19 23 22 22 21 28 32 38 41 44 44 46 53 56 57 56 57 57 57
53 52 52 50 42 33 29 35 36 34 13 15 12 12 13 14 14 17 29 28 28 31 29 25 23 22 20 20 20 16 14 19 29 33 36 42 38 44 46 55 56 57 56 55 56
53 52 51 50 39 30 35 36 30 25 -1 12 11 14 14 12 14 16 30 30 22 23 32 28 27 25 23 22 20 19 16 15 19 30 34 36 39 41 44 48 54 56 57 56 56
52 51 50 45 40 34 35 32 24 14 3 10 12 12 12 14 13 17 23 30 33 26 27 28 30 29 28 26 25 22 20 19 19 14 25 34 35 37 39 44 48 54 55 57 58
50 50 47 41 33 35 36 24 13 7 12 11 11 12 13 13 13 17 20 21 18 18 18 22 23 28 30 28 28 24 21 19 17 10 8 25 31 36 37 42 44 48 54 56 58
49 48 44 39 36 35 31 21 16 12 11 13 13 13 12 13 14 13 15 16 25 23 15 17 14 19 26 29 27 26 23 18 20 12 7 13 22 31 37 39 41 46 50 55 56
48 39 37 36 35 35 28 19 16 15 14 13 13 12 13 13 13 13 16 17 25 23 18 18 17 26 28 25 28 27 25 23 18 18 16 10 12 21 33 37 39 40 45 52 55
39 38 33 35 32 31 26 25 19 17 16 15 14 14 13 13 14 14 13 24 26 24 26 26 22 22 27 31 30 29 28 24 23 23 21 18 19 13 32 35 37 39 40 46 52
36 33 34 35 31 28 24 23 21 20 22 18 17 16 16 16 16 15 14 22 27 23 23 22 20 17 25 26 21 26 26 27 25 23 21 20 17 22 27 31 37 37 39 42 50
35 26 35 36 28 29 26 28 32 24 24 22 21 20 20 19 19 17 16 17 26 22 17 21 18 18 15 20 30 29 28 26 25 29 25 24 19 21 26 25 32 36 39 41 45
33 32 35 35 30 30 32 29 29 28 28 27 24 23 22 21 20 19 19 21 26 20 20 26 16 15 10 10 19 25 28 30 28 29 30 26 25 28 28 33 31 34 37 42 45
34 31 34 34 34 32 31 30 28 30 30 31 29 27 25 23 22 22 20 24 26 22 37 30 17 17 6 16 20 25 28 29 29 27 28 28 31 30 32 32 35 38 39 39 44
36 34 35 30 32 32 32 31 29 29 31 31 30 29 27 26 24 23 23 24 26 29 33 28 22 18 16 15 12 18 20 24 26 29 29 28 31 34 33 31 34 36 38 42 41
37 37 36 34 35 33 34 32 30 33 33 30 31 30 36 36 30 28 25 25 25 28 30 28 22 20 18 14 8 7 12 20 23 25 27 30 31 33 37 44 46 43 49 51 50
42 42 39 36 35 35 36 37 35 37 37 36 34 36 35 36 35 38 39 36 33 31 32 30 25 20 16 11 10 15 16 23 24 25 26 28 33 36 39 44 51 52 53 53 55

GFSSW_sfc_dewp_057.txt.gz
Dewpoint
55 55 55 55 55 55 56 56 57 57 57 57 57 57 55 55 55 51 35 44 43 63 65 59 58 58 57 57 58 62 58 53 55 53 55 57 57 60 62 59 59 59 60 62 62
55 55 55 55 55 55 55 56 56 56 57 57 57 56 55 55 48 38 50 51 53 58 59 53 55 55 53 54 57 59 54 57 53 55 54 55 57 60 59 57 57 58 61 62 61
54 55 55 54 54 55 55 56 56 56 56 56 57 56 55 53 43 38 57 57 59 58 57 53 53 52 50 50 55 55 51 52 52 54 56 56 62 60 57 54 56 58 61 61 60
54 54 55 54 54 55 55 55 55 55 56 56 57 56 55 50 31 38 61 64 63 54 57 50 48 47 44 46 50 49 50 53 54 54 55 56 58 56 57 61 57 60 62 62 60
55 55 55 55 54 55 55 55 55 55 55 57 58 56 52 38 21 33 60 64 56 47 52 48 45 44 39 40 44 47 49 54 54 54 53 53 50 62 58 57 59 61 62 61 59
55 55 55 55 55 54 55 54 55 55 56 58 57 55 50 27 30 44 48 55 43 41 44 43 41 42 36 35 38 41 44 55 55 53 53 51 52 51 54 57 59 60 61 60 59
55 55 55 55 54 54 54 54 56 55 56 56 56 53 39 28 30 44 46 42 38 40 40 42 39 39 34 33 36 38 41 47 54 54 52 51 50 48 57 58 59 59 60 59 59
54 54 54 54 53 53 53 53 56 55 56 57 57 52 28 24 27 35 45 44 40 40 43 40 37 38 34 31 30 35 37 43 48 53 51 50 46 48 56 57 59 59 59 59 59
54 54 54 54 54 53 53 53 57 57 57 58 54 46 20 36 20 23 35 42 44 42 41 38 39 35 35 28 26 23 28 37 45 50 48 49 51 56 55 56 58 59 58 58 58
54 54 54 54 53 53 53 52 57 58 56 49 43 32 16 17 20 21 28 40 46 37 40 40 37 32 31 28 16 19 21 28 40 48 47 47 51 62 52 54 57 58 58 58 57
54 54 53 53 52 52 47 40 42 39 28 18 15 14 15 17 19 25 36 39 44 34 29 35 32 25 28 30 22 15 21 24 32 45 46 47 51 61 52 52 57 58 58 58 57
54 53 53 53 52 52 45 25 28 30 23 16 15 12 15 17 16 26 37 33 35 35 30 23 22 25 23 19 19 18 21 25 28 41 47 49 47 49 51 52 56 57 57 57 57
53 53 53 52 52 43 29 29 30 29 23 15 12 11 11 14 14 18 26 33 30 32 31 25 21 22 22 21 19 18 19 27 31 40 45 45 46 46 51 52 54 56 57 56 57
53 53 52 51 43 30 29 30 30 28 20 14 10 10 11 13 13 17 23 28 28 27 24 25 23 21 20 20 21 19 18 17 24 32 35 42 39 47 55 51 53 54 56 54 56
53 52 51 50 42 28 31 29 26 26 4 13 9 12 12 12 15 15 21 25 22 21 27 23 21 21 21 20 20 22 20 14 13 22 31 34 38 42 44 48 50 53 54 55 55
52 51 50 45 40 31 30 28 23 13 2 8 10 10 10 10 10 13 17 20 24 23 22 25 25 24 21 21 23 23 21 20 16 11 17 31 36 38 42 46 48 51 53 55 55
50 49 48 40 32 31 31 26 15 3 12 10 8 9 10 11 11 12 16 17 14 16 14 15 18 22 27 24 23 23 22 20 17 12 10 17 30 36 41 44 46 48 52 54 55
48 48 46 34 34 33 32 23 16 10 9 12 10 10 9 11 11 10 12 12 20 17 14 10 10 16 19 26 25 25 22 21 23 14 10 13 18 30 36 44 49 53 50 52 54
48 40 35 34 34 33 30 20 16 16 14 11 11 10 10 11 10 12 12 12 16 21 16 11 10 19 19 18 23 25 24 21 20 19 15 10 11 15 32 36 45 45 45 50 53
43 34 32 33 33 31 27 25 21 17 16 15 14 13 13 13 13 14 15 18 20 23 22 19 21 20 16 22 24 23 25 21 20 24 23 17 19 10 19 29 35 39 42 50 55
43 33 34 34 31 29 24 25 22 20 22 19 18 17 16 16 16 16 16 18 20 22 20 17 20 19 16 23 21 21 23 26 25 20 21 21 18 24 23 22 31 35 40 43 49
36 29 36 35 30 28 26 27 29 23 25 24 23 22 21 20 21 20 18 18 22 22 18 16 14 15 13 18 19 18 17 17 25 29 23 22 20 22 23 20 26 34 38 39 43
35 34 36 35 29 28 31 28 28 27 28 27 26 25 24 23 23 22 21 19 22 20 18 21 17 13 13 12 16 18 20 25 22 22 29 22 22 26 26 26 27 29 32 40 42
36 32 33 33 32 31 31 29 28 29 28 29 28 28 26 25 24 23 22 20 23 22 33 25 18 17 9 15 16 17 19 22 23 23 23 24 27 28 30 30 31 33 34 37 43
37 33 35 30 31 31 31 30 28 28 29 29 29 29 30 27 24 25 23 22 24 31 26 24 18 17 14 14 13 14 18 22 27 30 32 29 28 32 32 33 34 35 37 39 40
37 36 33 33 34 32 33 32 30 30 33 28 29 29 31 31 30 30 33 33 28 27 27 24 23 23 19 14 12 12 11 14 21 24 27 29 30 33 35 40 38 35 40 40 42
40 40 37 35 33 34 33 34 33 36 34 34 35 34 33 33 32 31 31 31 37 33 30 30 30 29 20 14 13 10 8 7 11 16 20 24 31 34 35 38 42 42 44 47 50

GFSSW_sfc_dewp_060.txt.gz
Dewpoint
56 56 55 55 55 55 56 57 57 57 57 57 58 57 57 56 55 51 35 43 48 64 64 49 54 58 59 56 55 59 60 56 55 53 59 58 57 64 68 60 60 60 61 61 60
55 55 55 55 55 55 56 56 57 57 57 57 57 57 57 55 49 41 56 57 52 60 49 52 52 55 54 53 53 56 59 58 58 56 57 58 56 59 59 57 57 59 61 61 59
54 54 55 55 55 55 56 56 56 56 56 56 57 57 57 54 46 37 61 60 59 56 56 51 50 52 50 50 51 52 53 59 56 56 56 56 59 62 57 55 57 60 60 60 58
54 54 55 54 54 55 55 56 56 56 56 56 57 58 56 50 36 43 65 65 64 46 55 53 49 48 47 47 48 49 52 54 54 53 52 56 60 58 63 62 58 61 60 59 58
55 55 55 55 55 55 55 55 55 56 56 56 57 57 52 42 34 46 67 64 53 45 51 54 47 46 43 43 44 44 48 51 53 54 53 56 60 61 64 65 63 61 60 59 58
55 55 55 55 55 55 55 55 55 57 56 57 59 57 47 39 28 39 44 55 43 35 50 52 45 44 40 39 37 41 41 46 53 54 55 53 55 56 63 62 60 60 59 59 58
55 55 55 55 55 54 54 54 54 57 57 56 57 52 48 34 27 37 42 50 42 30 43 49 44 40 39 34 34 33 38 42 51 53 57 55 56 55 63 64 59 59 59 58 58
55 55 55 55 55 55 55 54 54 58 57 57 57 52 41 21 24 33 41 39 39 30 36 40 40 37 36 33 29 30 35 35 44 53 50 53 51 57 64 60 58 59 59 59 57
54 55 55 55 55 54 53 53 54 59 58 57 55 52 35 35 20 25 38 38 37 38 42 41 38 35 33 32 27 26 28 34 38 52 50 47 53 56 61 58 56 57 58 58 59
54 54 54 54 54 53 52 52 53 57 57 50 47 37 25 15 18 17 23 39 40 36 37 37 34 32 31 30 25 22 24 26 34 46 48 46 51 58 60 58 56 56 57 58 57
54 54 54 54 53 52 47 38 40 44 42 26 24 21 16 16 20 21 25 37 42 37 36 36 35 32 31 28 28 22 17 20 24 42 47 45 53 54 53 55 57 55 56 57 57
54 54 53 53 52 51 45 30 25 27 24 17 13 11 13 15 16 28 33 34 40 34 31 33 33 32 24 26 26 26 22 16 22 37 45 50 53 54 50 52 56 54 55 56 56
54 53 53 52 51 43 32 28 27 25 20 19 11 9 11 13 13 19 31 32 31 32 30 26 22 25 25 22 22 19 18 18 22 30 41 42 51 52 53 59 62 53 55 56 57
53 53 52 50 44 32 29 28 27 24 20 14 9 8 10 10 11 15 19 27 28 28 27 28 26 21 21 22 22 19 17 16 17 24 29 42 43 51 55 58 63 54 53 54 56
52 52 50 50 42 32 30 27 25 23 11 14 8 11 9 8 14 13 18 22 24 24 25 24 26 24 22 20 21 21 21 18 15 16 22 30 34 43 56 56 56 55 54 52 56
51 51 50 42 43 35 28 28 23 16 5 10 9 6 6 7 9 13 16 18 21 22 21 20 23 21 20 21 20 20 19 22 20 13 12 19 28 31 49 51 55 57 58 53 54
50 49 48 41 34 30 29 28 16 8 11 10 6 7 7 8 8 8 12 14 11 14 11 11 17 22 24 21 20 21 19 19 18 15 12 12 15 32 39 51 54 56 60 55 55
49 48 46 37 32 30 31 26 17 10 8 10 7 7 6 7 9 9 10 10 11 13 13 14 8 8 16 23 23 20 20 19 21 17 14 18 13 14 28 39 54 56 56 56 54
48 42 39 36 31 31 29 22 17 17 13 10 8 6 6 8 8 10 12 8 8 19 19 11 7 9 14 13 19 24 22 19 18 18 18 16 16 16 18 28 43 51 54 59 59
45 41 32 32 32 29 26 26 22 19 18 14 11 12 11 8 11 11 9 14 12 21 22 20 17 15 14 16 18 17 21 21 21 22 23 19 24 16 23 25 36 50 52 57 59
45 36 34 34 31 28 24 25 22 21 23 20 18 18 17 15 15 14 15 16 17 19 22 19 17 14 15 18 16 17 19 21 21 23 21 20 21 28 33 28 32 46 53 56 56
41 31 35 35 31 28 29 28 30 24 26 25 23 22 21 21 21 20 19 19 21 21 20 20 15 14 15 15 15 18 21 18 20 27 26 23 19 24 28 26 26 28 37 55 58
40 34 34 34 31 30 30 27 27 27 26 26 26 25 24 23 23 22 22 22 21 21 23 22 18 15 15 14 14 15 17 19 17 17 28 26 22 24 29 33 30 27 28 53 56
42 33 33 32 31 29 30 28 27 27 27 28 27 27 26 25 25 24 23 22 23 22 34 24 19 21 15 16 16 17 14 15 16 15 17 18 25 31 30 32 33 33 36 38 53
37 31 34 30 31 31 32 30 28 28 29 27 27 26 27 27 24 22 23 27 27 30 26 23 20 20 17 14 12 13 14 14 16 21 22 21 23 28 38 43 44 44 46 41 42
37 37 33 32 33 31 33 32 28 30 31 31 30 29 28 28 28 27 26 28 28 31 30 29 22 23 21 20 16 13 13 13 15 20 22 23 30 33 36 44 42 46 51 56 46
40 40 35 33 30 30 31 32 31 33 32 30 32 32 30 30 30 30 28 26 27 31 29 31 34 32 26 23 23 16 15 14 15 16 20 24 29 32 33 37 43 45 49 58 57

GFSSW_sfc_dewp_063.txt.gz
Dewpoint
55 55 55 55 55 55 56 57 57 57 57 57 58 58 58 58 57 52 40 42 44 66 64 47 48 52 63 61 61 60 58 57 56 55 55 60 59 62 67 64 61 62 60 60 60
55 55 54 55 55 55 56 57 57 57 57 57 57 57 58 57 50 44 52 63 66 66 36 47 50 52 57 57 58 56 58 55 56 59 56 57 58 59 60 60 63 61 60 61 60
54 54 54 55 55 55 56 56 57 57 56 57 57 57 58 55 48 42 62 63 65 60 36 51 50 52 55 55 52 51 53 59 59 59 60 62 61 62 61 57 63 60 60 60 60
54 54 55 55 55 55 55 56 56 56 56 57 56 57 57 51 40 43 65 65 64 45 41 51 50 48 51 49 50 49 51 59 58 58 59 61 60 59 63 64 66 61 60 59 58
54 55 55 55 55 55 55 55 55 55 57 57 57 58 53 45 41 48 68 66 54 40 37 52 53 48 48 47 47 46 50 55 55 55 60 60 58 60 60 63 66 62 59 58 57
55 55 56 56 55 55 55 55 55 55 57 57 59 58 49 42 32 50 56 57 42 37 43 51 53 48 45 45 43 42 41 48 54 56 59 59 60 60 59 65 66 61 58 58 56
55 55 56 56 55 55 55 54 54 54 57 57 58 52 48 44 30 36 45 53 43 35 37 48 53 49 43 41 39 33 32 34 53 55 57 59 59 56 63 64 63 60 58 57 57
55 55 55 55 55 55 55 54 53 54 57 57 57 52 49 43 24 28 40 49 46 34 34 45 50 47 37 37 36 30 30 31 38 54 56 57 55 59 62 63 63 59 58 57 57
55 55 55 55 55 54 53 53 54 55 58 57 55 53 46 38 18 21 35 39 44 33 29 32 36 38 37 33 33 30 26 28 33 52 53 55 56 62 61 64 61 58 58 57 57
55 55 54 54 54 53 52 52 53 52 57 53 49 45 42 23 18 18 23 34 35 30 30 34 39 35 33 30 29 29 24 24 28 48 51 52 58 62 64 66 62 58 58 57 57
54 54 54 53 53 52 50 38 41 41 40 42 38 38 18 16 22 19 21 35 38 36 34 36 35 32 31 31 29 29 28 23 23 35 49 52 59 61 58 57 61 62 57 56 56
54 53 53 53 52 51 49 38 26 24 25 26 34 18 13 14 16 24 25 30 39 36 37 35 32 34 34 33 31 26 26 25 24 20 48 52 55 58 57 59 62 61 57 57 56
53 53 52 52 51 48 35 32 28 26 23 19 21 10 10 12 14 27 31 29 36 38 31 30 33 34 34 31 24 24 25 23 21 20 48 52 52 53 56 58 62 64 60 59 56
53 52 52 51 45 37 35 32 27 24 21 19 13 10 10 11 11 18 21 24 29 31 32 30 28 26 30 28 24 21 22 19 16 17 19 47 46 51 53 57 60 62 61 59 56
52 52 51 50 44 35 32 27 24 24 16 15 10 12 8 9 13 14 18 21 25 26 27 26 27 27 25 22 21 21 23 22 22 17 15 14 22 50 52 54 57 60 62 59 58
52 51 51 46 47 39 36 30 28 21 15 9 10 8 8 8 9 15 17 18 20 19 22 22 23 23 26 25 23 22 20 21 21 21 17 14 16 36 50 51 56 57 57 58 56
51 50 49 43 38 36 30 31 23 16 13 9 7 5 6 7 8 10 13 15 14 12 13 12 15 19 20 23 21 21 27 19 21 19 18 16 14 14 52 54 52 54 56 60 54
49 49 48 41 37 35 33 30 24 16 11 9 7 7 10 10 12 10 11 10 15 14 11 12 14 7 16 22 24 23 19 20 18 20 19 19 20 18 46 56 54 56 58 57 59
49 45 42 41 41 35 33 28 22 18 16 12 10 12 9 10 9 11 15 11 14 22 19 19 15 18 16 15 18 22 24 19 18 18 18 20 21 19 20 52 56 53 54 55 62
46 44 42 35 33 32 31 29 22 22 21 19 15 17 16 13 11 10 10 17 21 23 22 21 17 17 14 14 15 15 19 19 19 16 18 20 21 24 24 20 50 54 56 60 63
47 43 38 35 34 35 30 29 24 24 25 22 21 21 22 21 21 18 16 20 20 21 22 20 19 17 17 15 15 17 17 19 18 21 19 18 20 24 26 32 49 52 56 59 59
45 39 37 37 37 37 30 30 32 26 27 26 27 24 24 24 24 23 21 22 22 22 22 22 18 16 16 16 15 14 14 19 20 19 24 26 25 27 26 28 41 50 53 58 57
44 41 35 35 32 31 31 27 26 25 27 27 26 26 27 25 25 24 23 23 22 23 26 22 21 19 17 13 17 17 16 15 18 19 18 21 23 29 36 38 40 44 54 56 56
45 35 38 36 33 32 33 30 26 28 27 27 28 28 28 28 26 27 24 24 25 27 34 29 19 18 16 18 19 17 15 13 16 15 17 17 20 18 37 37 39 42 53 57 56
46 34 36 31 31 33 33 32 28 29 30 31 31 28 28 27 27 27 27 26 28 36 30 24 21 20 18 17 18 17 14 12 13 16 17 18 19 29 35 36 39 43 52 56 59
40 40 39 34 34 31 33 31 30 31 30 29 30 30 29 29 29 27 28 28 27 29 30 31 29 27 26 21 19 18 20 21 14 14 14 17 20 30 32 34 37 39 46 54 60
46 44 39 36 33 32 32 32 31 35 33 32 32 33 32 32 32 32 31 30 26 26 29 34 33 31 26 26 25 25 23 21 19 15 15 14 18 30 41 32 36 55 57 58 58

GFSSW_sfc_dewp_066.txt.gz
Dewpoint
54 54 54 55 55 55 55 57 57 57 57 57 57 58 58 59 58 54 44 41 42 70 68 62 59 52 64 64 63 61 57 56 54 56 58 62 60 64 66 63 60 63 59 60 63
54 54 55 55 55 55 56 56 57 57 57 57 57 57 58 58 52 46 52 60 62 67 42 47 46 48 52 61 61 60 58 56 56 59 58 61 60 62 63 62 60 61 60 60 63
54 54 55 55 56 56 56 56 56 56 56 57 57 57 58 56 49 45 58 64 69 65 34 48 50 50 52 55 57 58 55 57 57 59 60 60 61 61 60 61 65 63 59 59 60
54 55 55 55 56 56 56 56 56 56 56 57 57 57 58 53 39 44 67 65 67 47 40 42 48 49 51 53 55 52 52 52 58 60 61 58 62 60 63 65 66 65 59 59 57
54 55 55 55 55 55 56 55 55 55 55 58 57 58 53 47 35 53 67 65 58 40 36 48 53 50 47 50 51 48 49 51 56 60 61 62 60 60 61 66 66 64 60 59 58
54 55 55 55 55 55 55 55 54 54 55 58 58 58 47 36 44 55 58 58 48 37 35 45 53 53 49 49 48 46 44 42 58 60 61 59 59 60 59 64 64 63 59 59 57
54 55 55 55 55 55 54 54 54 54 54 58 58 54 48 37 43 53 56 54 45 37 39 40 50 51 51 43 44 41 34 34 56 60 59 60 59 57 63 65 64 63 59 58 57
54 55 55 54 54 54 54 54 53 54 54 58 57 53 47 51 49 44 54 51 44 36 35 42 48 48 49 44 35 34 31 29 52 56 59 58 55 61 62 64 63 60 58 58 57
55 55 54 54 54 54 53 53 53 54 56 58 53 52 46 49 18 20 37 49 46 38 33 32 36 35 37 34 32 32 29 27 32 55 57 56 56 60 64 63 62 60 57 57 57
55 54 54 54 54 53 52 52 51 53 56 55 52 45 41 36 20 21 24 45 40 37 30 28 30 36 35 32 29 30 29 26 26 46 56 56 58 60 62 63 62 61 58 57 56
54 54 54 53 53 52 50 42 31 37 45 41 42 38 31 24 21 18 19 30 35 31 29 36 36 35 35 32 31 30 28 28 29 29 54 55 60 59 63 60 62 62 60 57 56
54 53 53 53 52 51 49 35 31 24 22 31 37 37 36 17 17 21 22 28 37 34 35 35 33 34 34 32 31 31 29 27 27 35 47 56 58 59 62 59 61 61 59 59 57
53 53 53 52 51 47 37 32 33 34 24 22 22 29 16 11 15 27 23 25 38 37 35 35 35 35 34 33 33 32 29 28 26 46 56 56 57 59 61 58 61 62 62 62 58
53 53 52 51 42 39 33 32 29 25 18 19 17 13 11 11 12 26 29 26 33 37 38 32 34 31 33 33 33 27 26 24 22 18 36 52 49 55 56 56 62 63 63 62 59
53 53 51 50 43 34 29 35 35 22 15 19 11 12 10 8 13 14 20 22 25 27 27 28 29 29 28 26 31 29 25 23 25 21 17 33 36 43 54 56 60 62 62 62 62
53 52 51 47 45 42 40 37 25 18 17 11 10 8 7 9 11 15 19 18 21 21 21 20 23 26 27 28 26 23 23 20 22 21 18 18 15 32 51 52 58 62 60 61 60
51 50 49 46 33 37 36 31 20 15 16 9 8 7 6 6 8 12 16 15 13 8 10 14 14 13 18 20 24 21 19 18 18 17 17 20 16 15 51 52 56 60 60 59 58
49 49 49 44 41 40 34 28 20 17 18 12 7 6 5 7 10 10 9 8 16 18 11 11 10 15 17 17 23 24 18 18 16 16 20 21 16 16 32 51 53 58 57 57 58
49 45 42 40 42 40 29 25 19 20 21 19 11 7 14 10 9 10 15 18 21 21 16 16 16 19 17 15 17 15 21 21 18 26 17 19 21 24 27 45 52 53 56 57 58
45 44 42 42 40 31 27 28 23 25 24 21 19 20 20 20 18 8 16 20 22 22 22 20 15 18 17 17 17 15 18 14 19 18 17 20 20 22 30 41 52 51 56 57 58
46 40 39 35 33 31 27 28 26 27 27 24 22 21 22 22 22 20 20 21 22 21 21 24 17 16 15 15 17 15 13 15 17 21 18 17 19 28 39 41 44 53 55 54 61
45 32 34 37 34 34 26 26 31 26 27 27 26 25 24 24 23 22 20 21 23 23 22 21 17 17 17 20 18 16 15 15 17 16 22 22 23 36 38 40 43 52 53 54 60
43 42 36 34 29 30 30 26 28 27 28 26 26 27 27 25 22 24 24 26 27 26 24 21 19 17 14 17 20 18 18 20 13 18 17 18 19 33 35 38 47 53 57 56 59
43 30 33 33 33 31 30 29 29 31 30 30 29 28 27 26 27 27 27 28 29 30 40 28 19 18 15 18 18 17 17 18 14 13 15 18 18 23 30 33 46 53 58 59 61
41 35 33 30 30 31 31 31 30 29 31 31 30 30 27 27 27 27 28 27 28 36 30 23 19 21 20 23 21 20 19 20 20 20 14 16 17 26 38 45 54 55 57 59 60
37 36 36 33 31 31 33 31 32 32 30 30 30 31 31 30 31 29 30 28 26 27 28 31 26 29 28 27 26 25 25 25 23 21 22 18 16 42 44 50 53 54 55 56 58
44 43 34 34 33 31 31 32 33 35 34 32 33 32 32 31 32 31 31 31 30 29 24 31 31 29 24 27 26 23 24 25 27 33 35 23 37 42 43 46 50 51 52 54 57

GFSSW_sfc_dewp_069.txt.gz
Dewpoint
54 54 55 55 56 56 56 56 56 57 57 57 57 57 57 58 58 54 42 37 43 63 70 66 64 55 65 64 64 62 59 54 54 56 59 62 61 65 65 59 56 63 60 63 67
54 54 55 55 56 56 56 56 56 56 56 56 57 57 57 58 53 47 50 54 58 70 59 58 52 50 60 63 62 61 58 56 57 59 60 61 61 63 61 60 60 59 61 66 67
54 55 55 56 56 56 56 56 56 56 56 56 56 57 57 57 50 41 56 59 64 70 40 47 47 49 50 54 60 61 56 57 57 59 61 60 61 63 61 61 62 59 61 64 65
54 55 55 55 56 56 55 56 56 55 55 56 57 57 58 53 39 45 62 65 65 59 34 42 49 49 51 53 55 55 54 58 56 60 60 60 62 61 61 64 64 64 62 63 63
54 55 55 55 55 55 55 55 55 55 55 55 58 57 51 45 34 53 63 67 61 43 36 43 50 49 48 51 52 53 52 50 51 59 60 61 60 61 63 67 67 63 61 61 62
54 55 55 55 55 55 55 55 54 54 55 55 58 59 46 26 36 60 54 58 49 37 34 50 50 52 50 48 49 48 48 46 45 59 61 59 60 59 62 66 66 66 60 59 61
54 54 54 54 54 54 54 54 54 54 54 55 58 54 48 29 47 57 55 49 44 35 33 38 52 51 52 49 47 47 45 37 59 60 60 60 57 57 61 63 65 62 58 58 60
54 54 54 54 54 54 54 53 53 54 54 56 58 52 45 49 49 53 55 47 45 36 37 36 48 46 49 49 37 34 32 28 58 59 59 59 55 59 64 62 61 61 58 59 59
54 54 54 54 54 54 53 53 53 54 55 58 52 50 46 51 41 39 53 49 41 38 35 38 44 39 36 35 32 32 30 29 52 58 58 58 56 60 64 63 62 61 58 58 57
54 54 54 54 54 53 52 52 54 56 57 54 53 45 39 31 23 29 50 47 43 36 30 29 30 32 36 34 31 31 30 29 29 54 56 57 56 60 63 63 62 61 59 58 56
54 54 54 53 53 52 50 43 31 33 46 34 34 35 35 31 19 19 30 43 33 30 28 28 33 34 36 34 34 31 29 29 29 35 54 55 58 59 62 62 62 61 58 57 57
54 54 53 53 53 52 49 32 32 29 23 33 40 39 39 36 19 20 26 35 33 31 34 34 34 36 36 35 32 32 32 30 30 39 43 51 58 58 62 61 62 61 58 57 57
54 53 53 53 52 47 36 30 34 33 24 21 28 28 26 27 15 17 22 29 35 35 34 32 34 36 34 34 32 32 31 31 30 42 56 56 55 57 60 60 60 62 63 60 57
54 53 53 51 39 38 32 33 37 27 17 14 19 21 14 11 13 26 27 28 35 35 35 34 36 35 34 33 34 32 32 31 26 21 19 52 45 56 57 59 59 61 62 62 59
53 53 52 50 43 36 29 39 37 21 13 20 14 12 10 8 14 15 20 22 25 29 36 36 31 31 29 30 33 32 33 26 23 20 38 40 36 43 56 55 57 60 62 62 61
53 52 51 47 44 43 42 35 24 17 16 11 9 7 7 8 12 16 17 17 19 19 21 19 24 26 28 29 29 29 24 21 22 20 17 21 20 30 53 53 55 58 62 61 60
52 50 49 46 30 37 38 30 18 14 19 10 8 7 6 8 10 15 16 12 15 13 13 15 16 15 17 19 23 21 19 17 17 16 16 19 16 17 43 53 53 56 61 61 60
50 50 49 46 41 39 33 23 18 19 20 20 10 6 5 7 10 10 11 11 21 14 12 10 11 16 16 17 18 21 19 17 14 16 18 21 17 17 23 40 53 56 58 61 60
50 44 43 41 44 38 28 21 22 22 24 21 19 18 20 20 9 16 19 20 21 21 15 15 15 19 17 16 17 17 19 21 19 19 16 18 19 23 37 43 52 55 58 61 59
45 44 40 41 39 30 28 26 25 27 26 23 19 21 20 21 19 14 19 21 21 22 21 19 13 17 17 17 16 15 16 17 19 16 15 18 19 22 37 39 52 52 57 59 61
45 35 35 36 33 30 28 26 26 27 27 25 24 23 23 22 22 20 20 22 22 21 21 22 15 14 16 16 16 16 15 15 17 19 17 17 20 33 38 40 42 50 53 56 56
43 30 35 35 31 32 26 26 32 29 29 27 27 26 24 25 23 21 23 24 26 25 21 23 17 16 17 20 18 17 16 14 12 14 19 21 27 29 32 39 52 57 58 57 57
42 41 38 34 29 29 30 29 30 30 30 27 28 27 27 26 24 26 25 29 31 25 25 23 18 15 12 15 18 17 18 19 14 17 14 17 18 27 38 53 54 57 59 60 61
37 31 32 32 33 30 30 30 29 31 30 31 30 28 27 27 28 27 27 28 28 34 40 28 19 17 15 17 18 18 20 18 17 16 17 15 16 36 47 53 54 54 57 58 60
37 35 34 30 31 31 31 31 31 30 30 31 31 31 28 28 28 29 30 28 27 34 31 21 21 24 23 26 26 25 25 25 22 20 17 17 21 38 41 50 52 51 54 56 58
38 37 33 33 32 31 33 32 32 33 30 30 30 32 31 30 30 28 29 29 28 29 26 31 27 28 27 27 26 25 25 24 24 22 23 27 26 41 43 48 49 50 51 53 55
44 43 34 34 32 31 32 33 32 34 32 33 33 32 31 32 32 31 31 31 30 28 26 30 29 27 22 26 24 19 25 25 33 38 34 26 37 42 41 44 46 49 50 52 54

GFSSW_sfc_dewp_072.txt.gz
Dewpoint
54 55 56 56 56 56 56 56 56 56 56 56 57 57 56 56 57 55 42 35 42 61 69 67 62 60 65 63 64 63 59 55 54 56 59 62 61 66 66 58 59 62 62 65 69
54 55 55 56 56 56 56 56 56 56 56 56 56 56 56 57 53 48 49 53 56 67 64 59 57 56 62 63 62 61 57 55 57 59 60 62 62 62 60 57 60 63 66 68 69
54 55 55 55 55 56 56 56 56 56 55 56 56 57 57 56 49 42 56 57 64 66 59 50 51 51 53 55 61 61 57 57 57 60 61 61 62 63 61 61 61 62 65 66 66
55 55 55 55 55 55 55 55 55 55 55 55 55 57 58 52 34 50 60 63 66 48 48 47 49 50 53 53 56 56 57 57 57 61 62 61 63 62 62 63 62 64 66 66 66
55 55 55 55 55 55 55 55 55 55 55 55 56 57 50 41 36 55 61 63 63 50 40 45 50 50 51 52 53 55 54 53 52 60 61 62 60 63 64 64 63 64 65 65 65
54 54 54 54 55 55 54 54 54 54 55 55 57 58 44 18 33 58 60 59 54 39 34 47 49 51 50 49 49 50 50 49 48 57 60 59 61 60 65 65 64 63 63 63 64
53 54 54 54 54 54 54 54 54 54 54 54 58 54 45 21 50 54 58 51 43 36 33 46 52 51 51 50 48 46 42 41 60 60 59 60 58 58 64 66 65 64 63 62 62
53 53 54 54 54 54 54 53 53 54 54 55 58 52 45 47 54 53 49 47 40 36 35 37 49 47 47 48 38 33 32 29 58 59 60 59 54 60 64 63 64 62 61 61 62
53 53 53 53 53 54 53 53 55 54 55 58 53 48 45 55 48 51 51 44 40 36 36 34 46 45 35 35 33 33 31 28 50 59 59 59 55 61 64 62 63 62 59 59 60
54 54 54 54 54 52 51 52 56 57 56 55 53 45 38 36 29 46 53 41 41 34 32 33 34 31 35 34 34 32 29 29 29 56 58 57 56 61 64 64 61 59 58 58 59
54 54 54 53 53 51 49 42 28 32 48 34 32 32 34 35 23 36 50 40 35 32 26 28 31 31 33 36 34 31 29 30 30 42 54 55 55 59 62 63 62 59 58 58 57
54 54 54 52 52 51 48 31 30 30 28 37 41 40 38 38 23 19 47 37 34 28 33 34 34 35 37 37 33 32 30 30 31 33 43 48 55 59 61 62 62 62 59 58 57
54 54 52 51 52 46 34 29 34 35 27 22 32 32 27 33 24 18 38 35 32 33 33 33 35 36 35 34 32 33 32 30 31 31 56 55 54 56 59 61 60 62 62 59 58
54 53 52 51 37 39 32 37 38 33 15 12 20 21 18 15 12 23 26 32 37 34 34 33 35 35 34 33 33 32 33 33 32 24 23 51 44 53 57 59 59 60 62 62 58
54 53 51 49 42 36 33 39 37 21 9 18 16 15 11 10 16 17 21 26 31 37 36 35 33 34 33 33 34 32 33 32 30 23 39 39 35 42 56 55 57 59 60 62 62
53 52 51 46 43 41 41 37 23 17 16 12 10 7 8 8 13 16 17 17 23 18 23 31 24 31 31 31 34 30 23 21 21 20 16 27 24 22 50 52 53 57 59 60 62
52 51 49 45 27 37 38 28 18 15 21 18 9 7 7 9 13 15 14 18 16 16 15 15 15 17 17 19 24 23 21 18 17 16 16 19 19 21 26 34 45 52 57 59 61
51 50 50 46 43 42 30 24 20 21 21 21 17 18 13 13 12 19 17 19 21 14 13 12 13 17 17 17 19 21 21 18 14 17 18 22 18 28 35 41 51 53 58 60 60
49 44 41 41 44 37 27 23 24 25 25 22 21 19 21 21 13 19 20 20 21 21 15 13 15 18 17 16 18 19 21 23 19 21 16 19 23 26 35 41 46 53 58 59 62
45 42 36 37 39 32 27 27 25 27 27 24 21 22 20 22 17 19 19 21 21 22 21 18 13 17 17 17 17 16 18 18 19 16 15 19 27 30 31 35 49 56 58 58 62
43 31 34 36 35 29 26 25 26 29 28 25 24 23 23 23 21 20 24 23 28 23 21 23 15 13 18 19 16 16 15 15 19 19 17 17 27 32 33 44 53 54 57 60 58
39 30 35 34 28 30 27 29 33 30 31 28 27 27 25 25 25 23 26 28 31 24 20 23 17 16 17 19 19 18 18 15 16 14 19 23 23 44 51 53 52 54 57 59 61
40 37 35 33 26 28 30 30 30 30 30 29 28 28 27 26 24 27 27 29 30 32 25 21 17 13 14 15 19 19 20 17 15 17 16 21 23 42 47 50 50 53 56 57 59
35 30 32 33 33 31 30 30 29 31 30 31 31 30 27 28 29 28 27 28 29 36 40 27 19 16 11 15 19 22 24 22 17 17 18 16 21 37 45 48 49 50 53 54 56
35 33 33 30 31 32 32 32 31 31 30 31 31 31 29 27 28 28 29 28 27 34 32 22 24 25 26 25 25 25 25 24 22 21 18 18 28 39 43 47 48 49 50 52 54
39 33 33 33 32 31 33 31 31 31 30 29 31 31 30 29 28 28 29 29 28 28 27 30 29 27 26 27 25 24 25 25 24 24 23 24 33 41 44 47 46 46 48 50 53
44 40 33 34 31 30 31 32 32 33 32 33 32 31 31 32 32 32 31 30 29 27 26 29 28 26 21 27 23 23 25 26 35 38 37 29 38 41 40 44 43 43 43 45 47

GFSSW_sfc_dewp_075.txt.gz
Dewpoint
55 55 56 56 56 56 56 56 56 56 56 56 56 56 56 55 56 53 37 36 40 61 67 65 63 65 63 61 64 63 59 55 54 55 59 62 61 66 66 60 59 61 61 62 66
55 55 55 55 56 56 56 56 56 56 56 56 56 56 56 55 51 44 45 51 57 68 60 54 57 63 59 60 61 61 59 55 57 59 60 62 63 62 59 59 62 62 64 66 67
55 55 55 55 55 55 56 56 56 56 55 55 56 55 57 56 45 32 55 56 61 68 57 51 58 60 58 60 60 61 58 57 57 60 61 62 62 63 57 58 61 63 64 65 65
55 54 55 55 55 55 55 55 55 55 55 55 55 56 57 52 21 45 60 60 66 59 49 48 54 56 56 55 57 58 57 57 57 61 60 61 62 61 61 62 62 64 65 65 65
54 54 54 54 55 55 55 55 55 55 55 55 55 57 53 37 24 57 60 67 56 50 43 46 48 53 54 55 55 56 56 53 54 59 60 62 60 61 63 63 64 65 65 64 64
53 53 53 54 54 54 54 54 54 54 54 55 55 57 44 16 41 55 53 63 53 42 44 47 46 52 53 52 50 50 50 46 48 53 60 59 60 60 63 62 64 64 64 65 64
52 53 53 54 54 54 54 54 54 54 54 54 56 53 42 18 52 54 55 57 53 37 41 48 51 52 51 51 50 48 41 49 58 56 59 59 59 58 63 62 62 62 62 63 62
53 53 53 53 53 53 53 52 53 55 55 55 57 53 42 46 53 52 47 45 42 36 35 43 51 51 49 48 39 35 33 32 57 58 59 59 53 59 64 62 62 61 61 62 63
53 53 53 53 53 52 52 52 56 55 55 58 54 51 40 54 50 48 43 39 40 35 35 37 48 48 40 42 36 34 35 30 53 59 59 59 54 61 64 63 62 62 61 60 62
55 55 54 53 52 52 51 52 56 57 56 55 53 46 44 39 44 46 49 39 37 34 32 32 37 44 41 38 39 36 31 30 43 57 57 57 55 61 62 62 63 62 61 61 61
55 54 53 52 52 51 49 47 33 39 50 31 30 36 27 34 44 44 42 39 33 32 28 31 37 38 44 40 35 32 31 30 30 52 51 51 54 59 62 62 62 62 61 60 60
55 53 52 52 51 51 48 33 31 31 30 34 38 39 37 34 26 45 43 38 29 27 30 29 34 40 39 37 35 32 32 31 32 39 41 44 53 58 61 62 61 61 60 60 60
55 53 52 51 51 49 35 31 35 34 29 23 34 32 27 33 21 39 43 37 28 27 29 28 36 40 37 35 35 34 33 32 30 31 56 53 55 57 60 62 62 61 60 59 59
53 53 52 51 42 40 33 34 38 34 18 14 20 24 28 27 15 34 44 37 33 25 31 34 36 42 37 35 35 35 33 32 32 30 25 53 40 53 58 59 60 62 61 59 59
53 52 51 49 43 37 36 37 34 24 8 16 18 20 17 12 19 27 35 30 33 32 35 34 35 41 37 36 35 35 34 33 32 29 35 45 37 45 57 57 58 60 62 61 59
52 51 51 46 45 39 38 37 26 21 15 14 12 14 11 12 14 18 22 22 30 33 35 31 32 34 33 35 35 34 28 25 24 23 22 38 30 30 41 44 45 57 60 62 60
51 51 49 44 32 38 40 30 20 18 22 20 13 9 9 10 14 19 21 22 26 30 31 21 17 17 17 27 32 30 27 22 20 19 22 24 27 37 42 47 52 55 53 60 62
51 49 49 46 44 44 33 28 23 24 23 24 19 16 12 15 19 20 21 20 22 19 25 28 21 16 17 18 25 29 26 22 22 19 20 25 25 34 40 49 57 58 58 56 60
50 45 41 38 43 38 31 26 25 26 26 25 21 15 19 17 19 21 22 21 21 21 25 20 15 17 18 18 20 23 25 21 20 21 19 21 26 31 45 52 55 57 59 60 60
47 40 37 37 41 35 29 27 26 28 28 25 22 23 19 20 19 21 22 24 24 22 23 20 17 17 17 18 19 22 21 21 23 23 21 24 30 30 48 51 53 55 57 59 61
41 35 35 35 35 32 26 27 28 29 29 26 25 24 24 22 22 23 26 25 29 25 23 18 17 19 19 19 19 19 18 22 23 22 20 22 28 47 50 51 52 55 57 59 61
37 32 36 35 31 31 29 30 33 29 31 28 28 27 26 26 25 27 26 28 31 25 21 23 18 18 17 19 20 20 19 17 21 25 24 24 28 47 50 50 51 53 55 57 60
38 35 37 35 27 29 31 30 30 29 30 30 29 28 30 28 26 28 28 28 33 33 28 23 19 17 16 17 20 21 21 19 18 21 25 21 26 46 48 49 50 51 53 55 57
36 29 34 35 33 31 31 31 30 30 30 31 31 30 28 29 30 29 27 27 28 35 39 26 22 20 12 20 22 22 21 21 18 19 21 21 24 44 46 47 48 50 52 53 55
37 34 34 30 31 33 33 32 29 30 30 32 30 30 29 28 28 28 28 27 27 34 32 27 26 27 26 24 23 23 21 19 17 21 20 23 28 43 46 47 47 47 48 49 50
39 34 35 34 33 32 33 32 30 30 31 29 30 31 31 30 30 28 29 30 29 29 31 31 29 28 26 25 23 20 22 22 20 20 21 23 33 43 46 47 45 44 44 44 45
46 39 35 35 32 29 31 31 32 32 32 32 32 32 32 32 33 32 32 32 31 30 30 32 31 28 23 26 22 15 21 22 25 33 27 23 33 40 41 44 41 38 37 39 40

GFSSW_sfc_dewp_078.txt.gz
Dewpoint
55 56 56 56 56 56 56 57 57 56 56 56 56 55 56 56 55 52 33 35 40 64 69 59 58 62 61 59 61 62 59 54 55 54 57 62 60 65 65 62 61 61 58 59 61
55 55 55 55 55 56 56 56 56 56 56 56 56 55 56 55 47 36 50 54 56 68 58 50 56 61 58 57 59 61 58 55 56 58 58 61 61 62 61 60 59 60 59 60 61
55 55 55 55 55 55 56 56 56 56 56 55 56 55 56 55 39 21 59 57 64 67 53 45 54 58 55 56 57 59 55 54 55 59 61 61 60 60 58 58 62 61 60 60 60
54 54 54 54 55 55 55 55 55 55 55 55 55 55 57 49 18 40 61 63 68 55 49 44 53 54 52 53 58 57 55 53 54 58 61 62 60 61 59 61 61 63 60 60 59
53 53 53 54 54 54 55 55 55 55 54 55 55 56 52 35 15 52 60 61 59 50 45 42 45 44 48 52 55 56 53 50 49 59 59 61 60 60 62 62 63 62 60 59 59
52 53 54 54 53 54 54 54 54 54 54 54 55 57 41 20 42 49 42 45 50 43 37 37 37 43 46 52 52 52 51 45 44 52 56 57 59 59 61 63 63 61 60 60 59
53 53 53 53 53 54 53 53 53 54 54 54 56 53 35 20 47 42 51 47 43 37 34 37 38 42 47 48 51 50 44 45 49 47 53 57 58 57 62 62 62 61 60 60 60
54 53 53 53 53 53 52 52 54 57 55 55 56 51 32 44 50 41 48 48 40 38 36 42 45 43 47 50 48 46 41 37 51 51 55 57 55 60 62 62 60 59 60 60 59
53 54 54 54 53 53 52 52 57 56 56 57 52 48 30 54 47 41 44 44 37 35 38 42 43 43 46 43 41 43 40 35 50 54 56 56 55 61 61 60 58 56 55 54 56
55 54 54 53 52 52 51 52 56 57 55 52 50 42 41 35 44 40 37 38 35 31 30 35 40 37 40 39 34 42 38 34 46 54 55 53 54 61 61 62 60 59 58 54 56
55 54 54 53 52 52 49 47 40 45 42 27 23 30 33 37 43 41 40 34 33 31 25 30 32 30 31 39 39 41 37 36 42 53 50 47 47 59 62 62 62 61 60 58 57
55 54 54 52 51 51 46 34 32 32 27 30 29 30 31 36 36 38 41 36 31 28 26 25 27 25 30 41 37 37 35 33 33 40 39 35 42 53 61 60 61 61 61 60 57
55 54 53 52 52 48 36 32 33 34 27 23 27 25 26 29 30 37 39 37 29 27 25 22 22 29 36 41 37 37 38 33 32 32 43 44 50 54 57 61 60 61 61 60 59
54 53 52 51 44 39 33 34 36 35 20 17 18 20 25 26 22 37 37 35 28 24 26 19 32 34 38 36 36 33 37 34 30 30 34 43 42 52 55 60 61 60 60 59 59
53 52 51 50 43 36 34 36 33 30 13 12 17 22 24 21 26 33 35 35 30 24 26 25 33 35 35 34 35 32 36 35 31 30 28 34 34 46 53 53 59 60 60 59 59
52 52 51 46 43 35 35 37 28 20 17 13 16 19 19 16 20 34 37 32 33 27 26 30 33 39 35 34 35 35 34 34 31 27 26 32 32 36 44 47 48 53 59 61 60
52 51 50 44 35 38 40 33 20 19 21 16 13 16 13 15 19 27 30 28 31 27 28 32 34 33 33 36 36 34 28 27 27 22 21 31 29 41 46 53 55 56 57 57 61
51 50 49 42 41 41 38 27 23 23 23 23 16 13 12 17 20 23 25 26 26 27 24 23 25 28 21 29 32 32 26 21 26 20 20 29 30 39 50 54 57 58 58 52 59
50 45 39 36 40 42 31 24 25 26 27 23 20 12 16 17 21 25 24 23 22 25 26 26 20 17 18 19 24 31 26 23 21 21 20 24 37 43 48 52 56 57 59 60 57
46 40 36 35 40 35 29 28 28 28 28 24 20 18 16 18 22 24 24 24 22 22 24 26 21 18 17 18 20 27 28 23 22 25 23 23 32 38 48 51 54 55 58 61 60
42 32 35 34 35 32 28 28 28 28 29 26 24 21 20 20 20 21 22 26 27 23 23 21 22 19 19 21 21 22 24 25 21 21 21 23 30 49 49 52 53 55 57 60 62
35 28 35 36 31 33 28 29 33 28 30 27 27 26 25 23 25 25 25 27 31 26 21 22 19 19 19 19 21 22 24 26 22 27 23 23 38 48 50 51 52 54 56 58 60
35 31 34 34 27 29 31 28 29 28 29 29 28 28 28 28 27 27 26 27 32 28 28 23 20 19 16 16 21 22 22 23 22 25 27 19 37 47 50 51 53 53 54 55 56
33 25 30 34 35 31 32 30 28 28 29 30 30 29 28 28 29 28 25 26 28 30 37 30 22 24 15 21 21 22 19 20 21 21 25 24 41 45 47 49 51 52 52 51 53
34 29 33 26 30 32 31 29 27 27 28 30 30 29 28 28 28 28 27 27 28 33 30 28 27 25 23 21 20 19 17 17 22 25 25 28 39 43 46 47 48 48 49 49 49
33 32 31 30 32 29 30 29 26 28 28 26 29 30 30 31 31 29 29 31 30 29 30 28 28 27 24 21 20 17 19 19 17 19 25 29 38 43 47 46 43 43 43 43 44
43 37 32 32 26 24 27 28 28 30 30 29 29 30 32 32 32 32 31 30 31 31 31 30 28 26 19 21 17 12 15 17 19 20 20 24 35 41 43 43 42 41 42 42 41

GFSSW_sfc_dewp_081.txt.gz
Dewpoint
56 56 55 56 56 56 56 56 56 57 57 57 57 57 56 57 56 50 32 42 44 68 71 56 58 60 59 59 59 60 60 55 54 54 58 61 61 63 64 59 59 59 55 57 58
55 55 55 55 56 56 56 56 56 56 56 56 56 57 57 57 46 35 54 62 67 71 61 52 53 58 57 56 58 59 60 55 57 55 59 59 60 60 60 59 59 57 55 57 58
55 55 54 55 55 55 55 56 56 56 56 55 56 57 57 55 43 24 62 62 64 70 52 48 52 56 54 53 57 59 55 55 58 57 59 59 59 60 59 59 60 56 56 57 58
54 54 54 54 55 55 55 55 55 55 55 55 55 56 57 50 27 48 63 64 64 60 50 42 48 52 50 51 57 55 56 54 58 58 58 59 59 59 59 61 61 59 57 57 57
53 53 54 54 55 55 55 55 55 54 55 55 55 56 53 36 24 54 61 61 48 55 47 39 45 48 47 50 55 55 52 49 53 56 59 58 59 59 60 61 62 59 57 56 55
54 54 54 54 54 54 55 54 54 54 54 55 55 56 46 25 33 49 44 39 40 48 43 38 42 45 43 51 54 53 53 46 47 52 59 57 58 59 59 61 61 59 57 56 54
54 54 54 54 54 54 54 54 54 55 55 55 55 51 39 23 39 39 36 34 41 42 39 35 35 39 44 48 53 51 47 44 46 51 54 58 57 57 61 61 61 57 57 55 54
54 54 54 55 55 54 54 53 54 57 57 56 56 46 37 26 40 37 35 36 42 39 33 33 33 34 40 46 48 48 46 41 45 48 53 57 55 59 61 61 60 57 56 55 54
54 55 55 54 54 54 52 52 55 56 57 56 51 45 29 50 42 38 42 37 37 34 34 34 39 35 41 42 42 45 40 39 45 50 52 55 57 61 60 58 58 56 56 55 55
55 55 55 55 54 53 52 52 54 57 54 50 43 35 36 30 37 39 41 39 32 33 34 37 36 32 36 39 35 39 38 37 44 50 52 55 54 59 60 60 57 57 55 54 53
55 55 55 54 53 51 50 49 47 47 42 33 27 26 27 26 37 36 37 36 31 30 28 29 30 27 31 33 34 34 35 44 45 47 51 50 54 57 60 61 61 55 54 52 51
55 55 54 52 53 52 49 34 30 30 26 29 25 21 30 36 34 34 34 33 30 26 25 23 26 28 28 31 34 37 36 32 41 45 51 55 52 58 60 60 62 61 58 52 52
55 55 53 53 52 49 36 30 31 31 25 21 25 19 26 33 30 32 34 30 30 26 24 22 21 25 24 27 36 37 35 33 33 41 40 35 45 54 57 60 62 63 60 58 55
54 54 53 52 45 34 30 30 31 31 22 19 19 20 21 27 26 32 35 31 28 27 24 22 21 22 21 27 35 34 35 32 32 33 34 39 46 49 57 56 62 62 62 59 59
55 54 52 51 42 30 31 30 30 30 16 13 15 18 21 23 22 30 33 32 28 22 25 22 20 22 27 30 34 28 33 36 32 30 34 38 42 51 54 54 59 62 62 61 60
53 52 52 48 42 30 29 33 31 19 18 13 14 15 19 21 20 28 30 32 29 22 24 23 20 30 30 31 30 29 32 35 33 28 26 28 34 49 49 53 57 61 60 61 62
52 51 50 45 34 35 33 32 24 22 29 14 13 15 19 19 19 27 27 29 28 25 23 24 25 32 30 30 32 31 32 30 28 25 22 25 33 46 49 52 53 55 56 64 61
51 50 48 41 39 37 36 30 29 27 22 21 16 16 16 14 17 27 29 27 27 25 19 22 27 31 35 32 32 31 30 25 26 21 18 25 35 45 51 54 56 57 56 58 59
50 45 42 37 37 38 32 34 31 25 23 20 16 16 15 16 20 25 27 24 25 27 22 23 26 28 32 34 30 31 29 22 19 20 15 30 45 48 51 54 55 57 59 59 53
45 36 36 34 36 36 32 34 27 26 24 22 17 19 17 20 23 23 26 30 25 26 27 26 26 25 22 23 26 27 30 23 21 25 21 29 40 40 48 52 55 56 59 62 61
43 30 35 33 34 33 37 28 26 27 27 23 23 23 23 18 21 29 25 25 26 25 28 28 27 24 23 24 24 26 27 27 21 22 21 28 39 49 50 53 54 56 57 60 61
34 26 31 32 29 27 28 27 32 27 28 25 26 26 29 27 32 34 25 27 28 27 27 25 22 23 21 23 22 23 26 27 23 27 22 23 43 48 52 54 55 55 57 58 60
32 25 29 29 29 25 30 27 27 27 28 27 25 25 26 27 25 25 25 26 28 26 28 26 21 21 21 20 23 22 24 25 23 23 28 21 42 49 52 54 54 54 54 56 58
30 24 26 31 29 28 30 29 27 26 28 29 28 27 26 25 28 27 24 25 27 25 43 37 22 23 19 21 22 24 22 23 23 22 25 30 43 47 48 51 53 52 53 53 55
29 23 30 25 25 28 30 27 25 24 26 29 29 27 27 23 26 26 26 26 26 38 30 26 24 25 21 19 19 21 21 20 23 24 26 40 42 45 48 48 50 51 51 51 52
32 30 25 25 30 23 27 25 22 25 26 25 29 27 28 29 30 27 27 28 30 29 30 26 26 26 22 17 18 17 18 17 20 22 25 37 42 46 47 47 47 47 47 47 48
38 33 30 31 24 22 24 25 24 26 26 26 29 31 32 31 32 32 31 29 32 32 30 28 28 26 19 19 14 14 16 17 18 19 25 34 43 45 44 43 43 44 45 45 45

GFSSW_sfc_dewp_084.txt.gz
Dewpoint
56 56 56 56 56 56 57 57 57 57 57 57 57 57 57 57 57 50 30 40 43 70 68 41 44 50 58 58 59 62 61 56 56 55 59 61 61 64 64 57 59 56 53 54 56
55 55 55 55 55 56 56 56 56 57 57 57 57 57 57 58 48 36 51 64 69 68 51 48 50 55 57 57 58 63 59 56 56 57 59 58 59 61 59 56 57 53 54 54 55
54 54 54 55 55 55 55 56 56 56 56 56 56 57 57 56 45 32 63 66 68 64 53 53 52 55 54 56 57 61 54 57 57 57 59 59 59 61 57 57 56 54 54 54 54
55 54 54 55 55 55 55 55 56 56 56 56 56 56 57 49 35 44 66 64 66 43 55 48 45 51 51 52 55 59 55 56 57 57 58 58 59 59 60 62 57 55 54 54 53
54 54 54 55 55 55 55 55 55 55 55 55 56 56 51 40 26 53 65 61 34 44 53 45 43 49 48 52 56 58 54 55 58 57 57 57 57 59 63 67 60 56 55 53 52
54 54 54 54 54 55 54 54 54 54 55 56 56 56 45 29 32 51 41 30 29 45 51 42 39 46 46 48 52 54 52 50 53 57 57 55 60 59 64 67 61 57 54 53 52
54 54 54 55 55 55 54 54 54 55 57 57 56 51 38 28 28 41 37 29 30 42 46 40 36 44 44 45 53 52 53 47 50 57 57 57 57 58 60 63 60 56 55 53 52
55 55 55 55 55 54 55 54 54 55 58 58 57 48 34 30 26 34 34 30 30 36 41 38 36 35 39 42 51 51 49 43 47 54 56 57 56 59 61 60 57 55 54 52 53
55 54 55 55 55 55 54 54 54 57 57 57 50 46 32 48 27 34 30 28 34 39 38 32 30 30 33 38 43 46 43 43 44 52 54 55 59 63 59 58 56 56 54 52 52
55 55 56 55 55 54 53 53 54 56 54 48 46 39 31 36 26 31 37 32 36 35 31 29 30 32 32 36 37 39 39 43 43 49 53 55 56 61 60 59 57 57 55 53 52
56 56 55 54 53 53 50 48 46 47 47 36 32 33 25 30 30 33 36 35 33 32 29 31 31 29 30 34 38 37 35 45 48 51 52 53 57 57 59 58 58 56 55 53 53
55 55 54 54 54 53 49 44 28 26 24 37 34 25 25 25 32 32 36 34 29 28 30 29 28 26 25 30 32 34 34 39 46 49 57 55 56 57 57 57 59 57 55 54 52
54 54 54 54 53 49 43 30 27 27 23 20 19 25 23 29 32 30 32 31 27 26 25 24 21 23 24 24 28 30 32 39 42 47 53 53 55 54 58 59 62 63 63 56 52
54 54 53 52 47 38 33 27 27 26 21 16 17 22 19 26 31 31 29 29 26 24 23 22 20 20 24 24 25 28 33 41 43 45 47 53 49 57 56 58 61 61 62 62 52
54 53 52 52 45 32 30 25 28 26 16 16 16 18 18 21 26 28 32 27 26 24 23 21 20 19 21 22 22 30 34 37 33 32 30 33 35 54 57 58 54 60 62 62 62
54 53 52 49 46 36 25 27 29 20 18 16 13 13 14 18 21 23 30 31 27 27 22 23 20 19 20 21 21 31 32 34 35 30 26 34 35 50 54 55 57 59 63 61 63
54 52 51 46 37 34 32 28 24 18 32 21 12 12 12 17 19 23 29 28 28 26 23 21 21 19 23 23 28 31 28 28 30 28 25 25 31 49 53 60 61 58 62 63 64
52 51 50 42 40 35 32 30 30 34 35 26 18 13 12 15 18 18 26 26 27 25 18 19 18 20 28 27 28 28 26 27 28 24 23 26 31 49 53 61 57 55 61 60 60
51 45 43 42 43 35 31 36 35 35 24 20 19 16 15 17 15 20 23 24 24 26 24 18 20 22 24 28 28 28 27 28 25 24 21 37 47 51 53 54 55 57 61 61 65
46 38 39 37 33 34 39 40 41 32 24 20 20 19 22 22 22 20 22 27 28 30 28 25 21 24 27 30 32 32 28 26 26 27 24 39 44 44 51 53 55 56 58 60 62
43 36 34 33 27 36 43 40 33 24 24 23 21 26 29 29 33 30 34 30 32 30 30 26 32 33 30 30 30 29 28 27 25 23 22 35 45 49 52 54 55 57 58 60 61
39 34 32 27 23 35 37 41 30 24 22 26 26 27 29 28 35 36 39 37 28 28 26 28 34 33 25 24 27 27 28 28 26 31 26 43 46 50 53 54 55 55 57 60 61
40 24 24 23 30 45 40 24 25 25 26 26 26 23 29 34 30 34 36 33 27 27 32 34 30 30 24 20 21 22 24 24 25 26 32 36 43 50 55 55 55 54 56 58 59
39 22 25 25 24 30 30 28 27 25 24 26 27 26 23 28 32 31 24 23 24 25 46 41 25 36 25 23 22 23 22 24 24 24 27 41 46 49 53 54 53 53 54 55 57
38 20 25 24 24 25 26 27 23 23 25 27 28 23 21 28 24 23 23 23 23 39 28 26 27 29 32 19 20 19 20 20 24 26 42 45 45 48 51 53 53 52 53 52 52
31 30 23 23 25 21 27 23 21 21 25 21 27 26 27 25 28 27 23 27 30 26 29 25 28 28 21 18 19 18 19 20 21 23 35 38 44 48 49 50 50 50 50 49 50
37 31 32 29 24 21 23 24 21 24 22 26 30 31 33 31 32 33 28 29 33 32 32 32 30 28 23 19 17 18 19 19 19 22 43 45 46 47 46 46 46 46 47 47 46

GFSSW_sfc_dewp_087.txt.gz
Dewpoint
54 55 54 55 55 56 56 57 57 57 57 57 57 57 58 59 58 53 39 38 43 68 68 49 38 48 54 61 62 65 60 57 56 56 60 61 61 64 64 58 55 55 55 58 61
55 55 55 55 55 56 56 56 56 57 57 57 57 57 58 59 52 44 49 62 67 67 41 44 39 42 47 57 60 63 59 60 60 59 60 61 61 62 60 59 57 54 55 59 60
55 55 55 55 55 55 55 56 56 56 56 56 56 57 58 57 49 39 65 63 69 65 35 46 42 45 49 56 61 64 58 59 59 60 60 60 60 61 58 56 53 53 54 59 59
54 55 54 54 55 55 55 56 56 56 56 56 56 56 58 52 39 44 69 64 68 46 34 46 51 50 52 53 60 61 59 60 59 60 59 59 60 59 63 63 57 53 55 60 59
54 54 54 54 54 55 55 55 54 55 55 56 56 56 53 46 36 53 67 65 49 38 36 51 50 46 50 52 58 53 58 59 58 59 59 58 58 61 63 65 61 54 53 60 59
53 53 54 54 55 54 55 55 54 55 55 56 57 56 51 30 45 52 41 38 25 32 40 52 50 44 49 49 55 58 57 58 58 58 57 57 58 59 62 61 63 53 53 52 53
55 54 54 54 54 55 54 54 54 54 55 56 57 52 44 35 43 49 37 25 23 30 49 51 51 39 44 45 54 58 54 52 56 59 57 62 60 59 62 61 62 53 53 53 52
55 55 54 55 55 55 55 55 54 54 56 59 57 49 41 31 34 38 37 29 22 31 48 49 44 36 35 40 47 50 54 52 54 57 59 58 57 61 63 61 60 54 53 52 52
55 54 54 56 56 55 55 54 54 55 58 58 52 49 38 44 30 28 34 30 25 32 36 41 38 33 31 32 35 47 48 49 48 56 56 57 59 63 64 61 58 55 53 52 51
54 54 55 55 53 53 53 53 53 54 56 49 44 43 41 35 31 26 30 28 25 32 33 37 30 28 28 29 32 43 46 48 48 54 56 57 56 61 61 62 57 56 53 52 52
55 55 53 54 54 54 51 48 48 46 49 38 34 39 34 32 28 28 32 27 32 37 34 31 27 27 30 30 31 37 40 47 50 58 56 56 58 61 60 59 57 55 54 51 52
55 54 54 54 54 53 51 45 43 25 24 38 39 35 34 28 26 29 34 33 33 32 31 28 27 30 31 32 31 30 36 43 51 58 56 53 56 60 59 59 58 56 54 52 52
54 54 53 53 53 49 42 40 40 26 25 23 22 35 31 24 28 30 33 34 30 29 29 28 29 30 30 26 26 27 31 38 46 53 55 54 55 57 59 60 62 63 59 60 54
54 53 53 52 49 42 38 41 41 28 23 21 19 19 25 25 29 32 32 33 29 25 26 28 28 27 26 23 22 23 28 31 46 46 44 52 49 53 58 58 60 60 61 62 61
55 54 52 52 49 39 31 24 25 28 19 17 16 22 22 22 26 32 30 30 28 25 24 23 23 22 20 21 24 23 31 42 43 43 45 45 48 52 58 57 59 59 61 62 62
55 54 53 50 50 45 41 37 30 25 20 27 15 16 18 18 18 25 29 29 28 26 25 23 22 21 20 20 22 24 23 40 40 44 41 41 44 53 55 57 59 60 61 62 63
53 53 51 48 39 37 38 33 28 23 34 29 28 23 14 15 16 19 27 29 28 23 24 26 22 22 20 20 21 21 22 31 34 34 31 31 44 52 57 59 57 56 60 61 63
52 51 50 48 42 39 40 33 31 32 32 34 31 27 22 12 15 18 24 27 29 28 26 25 19 20 21 19 21 22 29 30 30 30 28 31 46 51 55 59 60 59 61 60 61
51 49 46 42 47 44 40 35 37 34 30 29 21 19 20 16 21 19 23 26 28 27 26 23 20 21 20 24 26 26 28 29 26 28 26 47 51 54 56 57 59 61 61 58 59
49 43 38 40 41 42 41 38 39 36 33 28 22 27 31 30 33 39 31 29 26 28 32 30 28 22 20 25 28 27 33 25 27 27 25 47 49 51 54 55 57 58 60 61 63
48 39 39 38 39 43 42 40 37 37 35 24 26 29 32 33 35 39 41 38 34 31 30 30 34 32 25 20 26 32 33 35 28 29 26 41 47 55 53 55 55 58 60 61 63
40 39 40 35 37 44 43 39 39 27 25 28 28 30 37 40 35 39 39 41 39 35 28 38 32 32 32 33 31 32 31 31 29 27 34 44 48 57 56 55 56 58 60 61 62
43 42 32 25 35 43 43 39 38 29 28 28 29 28 32 38 36 35 37 39 39 31 33 36 33 32 29 29 26 25 28 31 28 27 27 36 48 56 56 55 57 58 58 60 60
45 38 33 34 36 37 38 36 31 26 25 28 29 31 27 32 34 34 34 31 26 31 50 41 33 34 32 30 31 23 24 23 29 26 40 46 50 53 53 53 55 56 57 58 59
47 32 32 27 27 28 30 29 22 24 27 31 36 30 28 32 32 31 30 25 24 42 34 34 35 32 33 34 32 26 22 22 24 43 44 47 50 52 53 52 53 54 54 55 54
39 36 35 28 32 32 32 27 23 21 25 26 31 32 30 32 33 33 31 28 32 31 32 32 31 33 34 32 22 19 21 22 23 41 45 46 49 53 52 52 52 51 51 51 52
49 46 46 39 29 24 26 25 22 30 26 23 30 39 34 33 33 33 30 30 32 35 33 34 33 33 30 25 20 22 22 21 28 43 46 46 51 52 51 48 48 47 47 47 48

GFSSW_sfc_dewp_090.txt.gz
Dewpoint
55 55 55 55 55 56 56 56 57 57 57 57 57 57 57 58 58 54 40 36 40 67 66 55 56 44 55 60 62 64 60 56 56 57 60 62 59 64 59 55 56 57 60 61 64
55 55 55 55 55 55 56 56 56 56 57 56 57 57 57 58 54 48 50 59 61 68 53 42 40 37 46 51 59 62 59 58 59 58 60 60 61 62 56 53 55 59 61 63 65
54 54 54 54 54 55 55 56 56 56 56 56 56 57 57 57 49 43 61 62 65 67 39 36 41 40 41 48 61 62 60 59 59 59 61 61 61 61 59 59 55 58 60 62 62
54 54 54 54 54 54 55 55 55 55 55 56 56 57 57 54 38 44 69 63 67 58 38 32 44 42 47 48 63 59 63 62 60 61 60 59 61 62 61 58 57 59 61 61 61
54 53 53 53 54 54 54 54 55 54 55 55 55 57 53 45 37 46 69 65 62 41 32 33 47 49 48 53 62 60 60 60 61 60 60 59 60 62 60 62 58 59 59 60 59
55 54 54 54 54 54 54 54 54 54 55 55 56 56 49 27 34 58 55 50 39 35 32 40 51 51 46 48 56 59 59 59 60 59 60 58 61 59 61 60 57 58 57 57 58
55 55 55 54 54 54 54 54 55 55 54 55 56 53 47 30 40 49 38 32 26 31 41 35 48 51 46 38 57 55 57 60 58 58 57 59 58 58 60 60 54 58 59 58 57
54 54 54 54 54 54 54 55 55 55 55 56 57 51 39 39 38 36 39 29 21 28 32 48 50 48 42 35 33 54 57 54 58 59 59 57 55 60 61 60 60 53 55 56 57
54 54 54 54 54 53 53 54 54 55 56 58 50 48 37 47 37 33 37 31 21 24 31 35 41 39 34 30 32 41 49 52 56 57 59 58 56 62 62 61 58 53 52 53 58
54 54 53 53 53 54 53 53 53 53 55 53 47 43 42 35 27 29 35 32 25 27 32 33 35 32 28 28 28 33 46 51 51 58 58 57 57 62 61 61 59 53 52 52 54
54 54 53 53 53 53 50 47 45 46 48 34 33 41 39 35 34 27 30 29 26 32 31 35 28 25 26 28 29 31 31 34 54 58 55 57 56 59 62 63 62 56 53 52 54
54 54 53 53 52 53 49 43 43 33 24 44 37 39 38 36 29 27 30 26 29 32 36 31 27 28 29 30 30 32 31 46 56 55 55 55 55 55 60 61 60 57 54 52 53
56 54 53 52 52 49 44 40 41 37 28 24 38 38 37 33 30 26 31 33 32 33 32 29 27 29 30 29 29 29 29 36 50 54 55 54 52 53 58 62 62 61 60 53 53
56 54 53 52 45 45 39 39 40 35 22 21 20 20 23 30 26 31 34 34 31 30 30 29 30 29 28 29 29 23 24 26 53 50 47 53 46 53 58 59 60 59 62 61 53
55 55 53 51 47 40 34 37 40 27 18 28 18 20 22 22 29 32 33 34 32 26 26 25 28 27 27 29 28 24 24 25 49 47 48 48 49 51 57 58 58 59 62 61 61
55 54 53 49 49 47 45 43 30 23 19 31 24 28 20 19 22 23 30 31 31 28 27 24 25 25 25 24 22 22 25 38 46 49 43 44 47 51 53 57 59 60 61 62 62
53 52 51 48 38 41 40 34 26 23 34 30 31 31 25 16 17 18 24 27 26 24 24 25 26 26 22 20 21 21 23 28 33 39 38 40 45 47 54 57 59 59 59 61 62
52 51 50 49 47 44 40 33 30 31 32 32 31 23 24 19 16 17 22 27 30 28 26 25 24 24 23 21 19 19 21 30 30 33 35 46 44 51 56 58 59 60 60 61 61
51 47 47 46 48 44 38 33 35 33 33 31 29 25 29 31 35 34 36 28 29 28 26 26 25 26 23 20 21 19 26 29 31 34 28 48 50 53 57 59 59 59 61 61 60
47 43 39 43 45 43 36 34 36 37 35 34 26 30 31 33 34 38 39 37 34 33 33 28 26 29 28 21 23 24 28 28 27 25 25 45 48 48 55 58 59 60 60 62 63
47 35 37 39 44 39 35 35 37 37 37 32 27 31 35 35 37 38 40 37 34 35 34 35 31 28 32 24 22 27 29 31 27 29 27 40 46 56 55 57 58 59 60 62 63
43 35 39 40 37 42 37 41 39 36 36 30 31 37 37 39 35 38 39 37 40 37 32 34 31 30 31 34 30 32 30 31 27 25 36 44 49 56 57 57 59 60 60 62 62
41 39 40 36 34 37 41 38 38 37 33 28 28 29 38 36 33 37 38 40 40 32 30 29 32 30 29 30 30 24 27 29 29 29 29 38 46 57 57 57 58 59 61 61 62
42 36 27 29 37 35 36 38 33 34 33 27 28 26 29 32 35 32 36 36 35 33 49 42 33 32 31 30 32 29 28 25 23 25 43 46 51 55 55 55 57 58 59 60 61
43 33 24 20 22 30 37 35 27 23 26 30 30 32 32 30 31 30 32 30 27 46 38 34 34 34 32 32 33 30 29 23 28 38 39 49 49 53 53 54 55 56 56 56 57
40 39 41 35 26 23 29 23 22 22 21 24 35 33 32 31 31 31 29 30 31 32 35 32 31 34 31 32 28 21 22 23 38 45 50 50 50 53 53 54 53 54 53 53 54
48 45 43 41 26 25 27 27 28 30 27 31 35 37 31 30 32 31 30 29 30 30 32 32 32 36 32 33 27 22 25 29 40 47 51 48 52 52 52 51 52 51 52 52 50

GFSSW_sfc_dewp_093.txt.gz
Dewpoint
54 54 54 54 54 55 55 55 56 56 56 57 57 57 57 57 58 56 40 32 41 63 69 65 62 55 54 58 62 66 60 55 56 58 57 61 56 61 60 58 58 60 60 62 65
54 55 54 54 54 54 54 55 55 55 55 55 56 57 57 57 54 49 48 53 58 70 51 51 47 43 50 52 59 62 59 57 60 61 59 60 58 57 58 57 59 59 61 63 65
54 54 53 53 53 54 54 55 55 55 55 54 55 57 57 57 46 31 59 60 63 68 43 41 38 39 42 46 58 62 59 59 58 60 60 60 61 57 55 58 59 59 62 63 64
54 53 53 54 54 54 54 54 54 54 55 54 55 56 57 54 23 43 68 64 66 62 39 34 41 40 52 49 61 59 62 62 60 61 61 60 62 55 58 59 61 62 63 64 63
54 54 54 54 54 54 54 54 54 54 54 54 54 55 52 41 31 31 68 64 62 53 37 32 45 49 49 51 62 60 59 61 63 62 61 61 61 59 61 60 62 62 63 63 63
54 54 54 54 54 54 54 54 54 53 54 54 54 55 48 14 17 56 55 59 53 39 33 35 46 49 50 48 58 59 60 61 61 62 61 59 61 60 60 61 60 61 62 62 61
55 54 54 53 54 54 54 53 53 54 54 54 54 54 47 22 42 53 51 46 38 34 31 33 46 52 50 46 54 59 59 60 60 61 59 60 59 59 60 60 59 60 60 61 60
55 54 53 53 53 53 53 53 53 54 54 55 56 51 33 34 39 40 37 29 26 30 35 39 37 49 49 46 34 55 58 54 58 58 59 58 55 60 61 58 58 58 59 59 58
54 54 54 53 53 53 54 54 54 55 55 57 50 46 30 45 38 31 39 31 20 23 31 34 44 42 39 31 30 44 52 53 56 59 57 56 55 61 62 59 57 57 57 57 58
54 54 54 53 53 52 54 53 53 53 55 54 50 42 41 35 33 31 37 30 23 22 29 32 34 35 29 28 29 35 44 52 52 57 57 57 53 59 60 60 59 56 57 56 58
55 54 53 53 52 52 50 47 43 40 47 28 30 37 38 37 35 29 35 31 28 31 28 33 32 30 30 28 29 31 30 43 56 58 56 56 56 58 60 61 61 55 52 55 59
56 54 53 53 52 51 48 38 39 37 32 40 41 38 38 37 35 29 31 28 27 27 34 33 31 31 28 28 29 34 31 54 56 57 57 57 55 57 60 60 62 57 53 56 58
56 56 53 53 52 49 43 37 40 40 32 28 40 38 35 37 35 33 28 28 26 29 34 33 31 29 29 29 28 30 30 48 53 55 56 54 52 53 57 61 62 61 60 54 56
56 55 54 52 44 45 39 38 38 35 22 21 21 24 32 30 27 29 31 31 33 26 31 31 32 30 28 29 30 34 30 30 53 50 47 52 45 51 53 58 61 60 61 52 55
55 55 53 51 46 38 37 44 40 27 19 28 23 22 21 22 27 30 34 34 31 30 29 29 29 29 28 28 29 29 33 25 51 47 49 50 48 49 57 57 59 62 61 61 54
55 54 53 49 49 47 47 43 28 22 21 31 30 31 21 19 22 24 31 32 32 31 28 28 27 28 28 28 29 32 26 40 48 47 41 46 48 49 54 56 59 60 60 61 57
53 52 50 48 37 43 42 33 26 22 33 29 30 31 26 20 18 20 22 28 28 25 25 26 25 26 24 22 23 21 23 24 37 39 38 44 46 45 54 57 58 59 61 61 62
51 50 49 49 47 44 39 33 29 32 31 32 31 25 28 32 30 28 24 23 29 27 26 26 23 26 25 24 21 20 20 26 31 34 36 45 41 44 57 55 58 60 61 62 62
50 46 47 46 49 44 36 31 32 33 34 33 28 28 30 32 34 35 35 29 32 29 25 26 25 28 27 23 22 21 21 24 29 34 32 43 49 53 58 58 59 60 60 61 62
46 43 39 46 46 39 32 32 35 38 35 34 26 31 31 33 31 36 36 37 32 34 33 29 25 28 30 27 23 20 25 26 27 31 30 39 44 46 55 57 59 59 60 61 62
43 35 36 44 41 36 33 33 37 37 37 32 28 32 35 34 36 36 37 37 35 32 32 35 30 27 31 25 22 26 28 29 27 30 30 35 42 54 55 57 58 58 61 61 62
41 33 39 40 36 40 35 39 39 36 37 32 35 35 35 38 36 36 37 37 37 35 30 32 31 29 28 32 34 27 26 29 26 27 39 39 43 55 57 58 59 59 60 62 63
39 37 40 34 28 34 37 39 37 36 35 27 27 32 36 36 32 36 38 39 41 31 28 33 31 29 26 30 32 30 26 32 28 30 41 39 42 56 57 57 59 58 59 61 62
41 24 28 35 35 34 36 35 32 34 30 29 29 26 33 31 37 31 33 37 36 37 49 41 33 32 28 30 31 31 32 28 24 26 36 40 50 53 55 55 58 59 59 59 61
37 29 29 22 21 34 35 34 25 23 23 30 31 34 32 27 30 30 31 28 34 49 35 35 31 34 32 32 32 32 31 25 23 29 36 46 49 52 54 55 57 58 58 59 60
39 39 41 37 30 23 26 23 23 22 24 27 34 33 31 30 34 30 29 28 29 33 34 32 32 35 32 35 32 26 26 27 40 49 49 49 49 54 55 56 56 55 55 57 58
47 44 41 37 24 27 27 26 28 28 28 32 36 36 31 31 33 31 31 31 29 31 31 31 32 35 31 35 30 22 25 26 40 50 49 47 50 53 54 54 54 52 53 53 55

GFSSW_sfc_dewp_096.txt.gz
Dewpoint
54 54 54 54 54 53 53 54 55 55 55 54 55 56 57 57 57 56 39 31 41 58 65 66 62 59 60 59 62 66 59 55 56 57 57 61 58 61 60 57 59 60 61 63 67
54 54 54 54 53 53 54 54 54 54 55 55 54 55 57 57 54 48 47 51 55 68 62 55 52 46 52 54 59 62 58 57 61 61 59 58 58 59 57 58 59 61 64 66 66
54 53 53 53 54 54 53 54 54 53 54 54 55 55 57 56 44 22 56 56 61 65 52 46 44 42 44 46 57 62 58 60 61 61 61 57 57 58 58 58 57 60 63 65 65
54 55 54 54 54 54 54 54 54 53 53 53 55 55 57 53 10 47 62 62 66 64 37 41 37 50 53 48 58 59 61 61 62 60 59 59 60 57 58 59 60 62 63 64 64
54 54 54 54 54 53 54 54 54 53 53 53 55 55 51 34 29 36 68 62 61 58 34 37 43 55 53 54 59 60 60 63 63 61 61 61 58 57 60 61 62 63 63 63 63
54 54 54 53 53 53 54 54 54 53 53 53 54 55 47 13 20 57 58 59 56 45 37 37 51 54 50 50 58 60 59 63 64 62 61 60 60 58 61 62 62 63 62 62 63
54 54 53 53 53 53 52 52 52 52 53 53 53 53 45 19 37 53 54 51 48 36 33 32 50 50 51 48 49 60 58 61 62 62 61 62 59 58 62 62 61 62 62 63 63
54 54 53 53 53 53 53 53 53 53 53 53 54 50 22 31 38 43 37 30 35 30 34 33 34 48 49 47 34 57 57 54 60 62 62 61 56 62 64 60 60 61 62 62 61
54 54 53 53 53 53 52 53 54 54 54 55 48 44 25 46 39 33 36 29 25 27 29 32 37 44 39 32 30 44 51 53 56 59 59 58 57 60 62 59 59 60 61 61 59
55 54 53 53 52 52 52 53 55 55 55 54 51 41 39 35 36 30 39 20 19 23 29 29 34 35 30 28 31 36 46 52 53 58 58 55 55 59 61 60 59 59 59 59 59
55 54 53 53 52 52 49 48 37 35 48 30 29 34 33 37 34 31 37 32 29 29 28 32 33 33 32 30 31 35 37 48 57 60 57 57 56 59 60 60 60 59 57 57 60
56 54 54 53 52 52 48 35 36 37 34 40 42 38 37 37 31 28 34 31 26 27 34 32 33 34 31 30 30 33 47 54 56 58 56 56 56 57 60 59 60 61 56 57 58
56 55 53 53 52 48 42 37 39 37 32 28 39 38 35 35 30 31 32 28 26 31 33 33 33 33 28 28 30 31 34 53 53 54 55 54 52 55 57 60 61 61 61 59 58
55 55 54 52 43 44 40 39 39 37 22 23 24 24 35 33 27 32 31 29 29 28 34 33 34 30 29 29 29 33 37 48 53 50 43 53 42 51 53 58 60 60 60 60 59
55 55 53 51 46 39 39 44 42 27 18 31 27 23 22 23 27 30 33 30 30 29 32 32 29 29 29 28 29 32 35 46 52 48 47 48 47 48 54 53 59 61 60 60 57
54 53 51 48 48 46 46 43 28 20 25 31 31 31 21 19 20 28 31 32 32 30 29 31 29 29 28 29 30 31 31 44 48 46 41 44 45 46 53 52 56 60 61 60 57
53 51 50 49 34 44 41 32 25 24 31 29 30 29 28 30 19 21 28 29 29 27 30 27 26 26 26 24 25 24 27 31 40 40 38 43 46 45 54 56 57 60 61 61 59
51 50 49 49 48 44 38 32 28 32 30 33 32 28 29 32 34 32 22 20 29 27 26 25 23 26 26 25 23 20 26 29 32 36 37 46 43 44 57 58 59 60 61 61 59
50 45 45 46 49 45 32 28 30 33 34 33 29 28 29 33 33 34 32 27 31 28 25 26 25 28 25 24 22 21 19 24 30 34 37 43 45 52 58 59 59 60 60 61 61
46 42 37 47 47 36 30 31 32 38 35 33 29 31 29 32 30 36 35 35 32 33 30 27 25 27 30 27 24 22 25 23 27 29 30 35 44 42 55 57 59 59 59 61 62
40 34 37 46 41 35 31 31 35 37 37 30 29 30 33 33 35 35 35 35 34 33 33 33 28 26 29 25 23 27 26 27 28 33 30 32 38 52 54 58 59 60 61 61 62
38 32 39 40 34 38 32 37 39 36 37 33 34 35 34 37 35 35 35 36 37 35 29 34 30 28 27 30 33 31 26 27 26 26 35 34 37 55 56 59 59 59 61 62 63
38 37 40 35 30 31 35 38 38 35 33 27 27 32 38 37 31 35 37 38 39 36 28 31 31 27 25 29 31 31 32 32 28 37 40 33 36 57 58 59 59 59 60 62 63
38 26 30 35 34 32 34 33 32 34 28 31 30 29 34 34 36 32 31 36 36 36 48 38 33 30 26 28 31 31 32 32 26 27 32 37 46 54 56 56 58 59 60 61 63
34 31 33 26 24 33 33 26 24 21 22 32 32 33 32 29 31 30 30 29 37 44 35 32 30 32 32 32 32 32 27 27 24 25 31 37 46 51 53 55 58 59 59 60 61
40 37 41 37 28 24 27 26 23 24 25 25 32 34 31 30 31 30 29 31 34 32 34 32 33 35 33 34 34 26 28 34 33 46 48 48 47 54 54 58 58 56 58 58 60
46 44 34 36 24 27 26 26 28 28 27 30 33 36 30 31 36 32 31 30 31 30 31 31 34 35 30 34 29 22 29 31 34 47 49 45 48 55 56 56 55 55 56 57 59

GFSSW_sfc_dewp_099.txt.gz
Dewpoint
54 54 54 53 53 54 53 53 54 53 54 55 55 55 56 56 56 53 31 30 39 62 67 58 64 63 62 60 63 66 60 55 56 55 56 59 57 59 59 57 59 60 59 62 67
53 53 53 53 53 53 53 53 53 54 53 54 55 55 56 57 51 42 44 49 55 67 56 51 55 57 57 56 58 62 59 57 60 60 57 58 57 56 56 57 60 62 64 65 66
54 54 55 54 54 54 53 53 53 54 53 53 54 55 56 57 39 13 59 55 60 65 55 44 52 52 51 52 58 61 58 60 60 60 59 57 57 55 56 55 59 60 62 64 64
54 54 54 54 54 54 53 53 53 54 53 53 54 55 56 53 5 46 60 59 65 54 47 40 46 52 54 48 54 58 60 60 59 61 58 57 57 56 56 57 58 61 62 63 61
55 54 53 53 53 53 54 53 53 53 53 53 53 55 51 32 21 29 67 60 65 43 40 36 44 54 55 53 54 58 59 61 61 60 61 58 57 56 59 59 61 62 62 60 59
54 54 54 53 53 53 53 53 52 52 53 53 53 55 47 21 32 58 53 57 57 39 35 39 47 54 52 51 54 58 59 62 62 61 63 58 57 55 60 60 61 61 61 61 61
54 54 53 53 53 53 52 52 52 52 52 53 54 53 42 24 35 57 51 48 52 39 32 37 49 50 51 48 51 58 58 60 60 61 61 61 56 58 61 59 60 60 61 61 61
54 54 54 53 53 53 52 52 52 53 52 53 54 52 24 26 38 51 39 40 35 33 32 34 41 49 49 48 41 57 56 54 60 61 62 60 54 60 62 59 59 60 61 62 62
54 54 54 53 53 52 52 52 53 53 53 54 51 46 21 47 37 40 35 33 40 30 28 31 30 44 41 36 36 52 52 52 58 62 62 57 56 62 63 60 59 60 61 61 62
54 55 53 53 52 52 52 52 55 56 55 53 50 42 38 33 36 39 35 30 27 26 26 30 34 42 38 34 36 44 49 51 54 60 58 56 55 61 63 61 59 60 61 61 61
55 54 53 53 53 52 49 51 40 38 49 34 31 32 31 35 31 32 31 24 25 26 29 33 39 43 43 34 33 35 42 50 57 59 58 56 56 60 60 61 61 59 60 60 60
56 55 53 53 52 51 48 35 36 37 34 38 41 36 36 35 29 31 35 27 22 19 31 34 35 41 36 33 30 42 48 53 57 59 57 57 57 58 59 59 61 60 59 59 60
55 55 53 52 52 49 42 37 39 37 33 28 35 36 33 33 28 31 33 28 22 29 29 25 32 37 29 30 29 30 36 50 52 55 54 54 54 56 59 60 61 62 61 59 59
55 55 53 52 45 43 40 39 40 39 25 31 23 28 35 34 28 32 32 26 27 25 34 33 33 36 30 28 29 28 34 52 52 48 44 52 45 53 57 58 60 60 62 59 59
55 54 51 50 46 40 38 44 42 31 19 32 28 25 30 24 28 29 32 30 26 30 32 30 32 33 31 28 32 30 36 50 50 49 48 48 47 49 56 55 58 60 60 60 59
54 52 51 49 49 43 45 41 31 22 24 29 30 29 21 27 21 30 30 32 32 30 32 31 30 32 31 30 31 34 47 48 48 48 42 41 41 47 52 54 56 59 60 60 60
53 51 50 48 34 45 43 34 25 26 31 29 30 28 30 28 25 26 28 29 29 29 29 28 28 26 28 27 28 29 34 38 38 37 33 44 44 42 52 54 53 58 60 61 60
51 49 50 48 48 46 39 34 29 31 31 34 31 29 30 33 33 27 28 27 29 30 29 26 21 27 27 26 25 27 28 32 34 34 34 47 41 44 53 57 56 57 60 61 60
50 46 45 44 48 45 35 29 31 32 35 32 29 28 28 32 32 31 27 26 28 29 29 28 26 28 26 27 26 24 24 30 33 37 37 44 45 49 57 57 57 56 59 61 61
48 42 39 47 46 38 33 31 32 36 35 31 29 31 27 32 28 32 31 34 30 32 31 30 26 27 28 28 25 24 25 22 27 31 32 37 43 39 55 57 58 58 58 60 61
42 37 40 45 43 38 33 32 34 36 37 29 30 28 32 32 35 33 34 34 32 32 34 30 29 28 30 28 25 26 24 28 25 29 27 29 37 52 55 59 58 60 60 61 61
39 35 42 42 36 39 35 36 39 35 36 33 34 34 33 36 33 34 34 36 36 34 30 34 29 27 26 31 32 32 27 27 23 30 30 29 33 56 57 59 60 61 61 62 63
40 39 41 37 32 34 35 36 38 34 30 27 27 32 36 34 32 33 35 37 39 34 32 35 32 26 26 30 32 31 32 32 29 35 33 26 28 55 57 60 60 60 61 62 64
37 32 33 38 35 33 35 32 30 32 29 31 31 32 34 33 37 33 30 34 33 35 47 40 34 31 21 28 32 32 29 30 28 25 26 32 38 54 56 58 59 61 61 62 64
39 35 33 33 29 32 32 26 23 23 25 33 33 33 32 29 31 31 30 30 36 42 36 34 34 34 32 32 32 30 26 34 27 30 28 28 41 49 55 56 58 60 61 62 63
43 41 38 34 29 27 30 28 23 25 27 25 26 30 32 32 33 30 30 31 32 34 35 34 34 36 33 33 33 27 28 34 37 31 32 43 41 52 56 58 59 60 60 61 62
48 46 36 35 26 28 28 27 26 27 28 27 28 30 32 30 31 32 31 31 32 33 35 35 36 36 30 34 30 27 29 33 39 42 44 42 48 54 56 57 58 58 59 59 61

GFSSW_sfc_dewp_102.txt.gz
Dewpoint
54 54 54 54 53 54 54 53 53 54 54 54 54 56 56 56 57 48 27 30 35 61 65 60 61 60 58 59 62 66 61 56 53 54 57 58 57 59 58 57 56 57 55 61 65
55 54 55 54 55 55 54 53 53 53 54 54 54 55 56 57 47 34 44 52 56 66 51 52 57 57 55 57 59 62 60 56 58 57 56 56 57 56 56 57 56 56 59 62 64
55 55 55 55 55 55 54 53 53 53 53 54 54 54 56 55 38 15 59 56 59 67 45 44 52 55 54 55 56 60 58 58 60 59 57 56 56 55 54 55 58 58 60 61 62
55 54 54 54 54 54 54 54 53 53 53 54 54 55 56 49 13 41 59 59 63 53 45 40 47 51 53 53 55 58 60 58 59 59 57 57 55 54 53 54 58 59 59 59 58
55 55 54 54 53 53 53 53 53 53 53 53 54 55 51 37 21 36 65 60 47 46 41 35 43 53 55 54 55 57 59 59 60 59 57 56 55 55 56 57 58 57 57 56 55
55 55 54 54 53 53 53 52 52 52 52 53 54 55 44 26 32 52 46 46 44 40 34 32 40 55 56 52 52 57 59 58 61 61 61 55 55 53 57 58 57 56 54 54 53
55 54 54 54 53 53 52 52 52 52 52 53 54 51 39 26 35 50 44 44 41 38 34 33 40 54 51 48 50 57 59 60 59 60 60 58 55 54 56 55 55 55 55 55 56
54 55 54 54 53 53 52 52 52 53 53 54 54 47 27 26 44 42 40 45 45 36 34 38 47 53 49 47 46 57 58 55 58 61 62 60 55 59 57 54 55 55 55 57 57
54 54 54 54 53 52 52 52 53 54 53 54 50 39 23 42 35 34 27 34 36 31 31 36 41 50 47 42 44 57 53 53 57 62 60 56 56 60 59 54 55 56 57 57 59
55 55 54 54 53 52 52 53 55 56 54 51 46 40 35 31 33 32 31 30 29 28 26 29 36 45 46 40 36 45 50 53 53 59 57 55 57 60 61 56 55 56 57 57 57
56 56 54 54 53 52 50 50 46 45 46 34 29 29 30 32 36 34 31 27 25 22 21 24 29 43 48 44 37 43 48 54 58 59 54 54 56 59 61 61 58 56 56 57 57
56 56 54 53 52 52 47 37 36 36 31 34 35 34 32 32 29 35 26 23 23 18 23 24 25 41 46 40 35 45 48 55 58 59 57 57 56 59 58 60 59 56 56 56 56
56 56 53 52 52 49 40 36 38 38 32 28 29 28 30 31 26 31 30 25 18 16 23 19 15 39 43 39 33 37 41 50 53 55 56 53 53 57 58 60 61 61 57 56 57
55 55 52 52 47 40 37 39 37 39 26 25 23 29 31 30 27 27 29 25 19 17 19 21 28 36 40 37 32 33 40 45 52 50 44 51 47 53 58 59 58 57 59 56 58
55 53 51 50 44 36 39 39 40 36 18 28 23 27 30 28 30 29 30 27 22 18 24 21 27 33 33 36 33 33 35 41 43 43 43 47 42 46 55 57 58 57 57 58 57
54 52 51 48 46 38 40 39 36 24 24 26 27 26 23 23 26 29 29 30 28 23 24 26 30 33 33 31 32 44 45 43 40 38 36 38 39 48 51 53 57 59 60 60 58
52 51 50 45 35 40 39 36 23 23 30 26 26 25 23 22 26 28 28 28 27 25 21 26 27 30 32 33 32 36 38 38 39 35 35 42 39 41 52 53 55 57 60 59 60
50 50 49 45 43 43 40 31 24 27 28 30 27 25 23 27 27 26 26 25 30 27 21 21 23 26 27 30 33 34 34 35 34 36 31 42 38 42 49 52 53 56 59 60 59
50 44 42 43 44 42 35 25 26 28 30 27 26 22 23 26 26 26 26 24 26 29 27 22 20 24 26 25 27 30 32 33 33 33 31 35 38 47 51 53 54 53 55 59 60
46 40 40 44 44 40 28 29 29 32 31 28 25 26 22 25 22 23 25 27 27 30 31 29 25 24 23 25 25 24 25 27 31 30 30 33 36 37 51 52 54 53 56 59 61
43 34 41 44 43 34 27 29 29 32 34 28 26 26 27 27 28 25 27 30 30 29 32 28 27 27 28 24 21 23 22 22 21 25 24 27 31 49 50 54 54 54 56 58 61
39 30 42 38 30 34 29 32 37 30 32 28 28 27 29 29 28 28 30 33 34 32 27 29 26 26 23 27 28 28 22 23 20 26 26 27 35 53 56 57 57 57 57 59 60
40 37 41 38 25 29 34 30 32 28 27 26 26 28 30 29 28 29 30 35 35 33 32 33 26 24 25 26 29 26 27 27 23 22 27 23 24 52 56 59 60 60 61 62 62
39 31 35 39 37 30 30 29 27 26 30 30 29 29 28 28 32 31 28 32 32 34 44 37 27 27 21 26 26 27 29 30 26 22 23 23 26 49 53 57 60 61 62 63 64
40 32 35 27 26 28 27 25 23 24 25 28 31 29 29 28 29 29 29 29 32 45 37 34 30 31 27 27 26 28 27 27 29 27 24 23 26 31 49 56 59 61 62 62 63
40 37 36 31 32 27 29 25 21 22 22 20 21 24 30 31 33 30 30 32 32 35 35 33 33 33 29 30 30 28 28 28 31 29 26 27 29 44 51 57 59 61 61 62 63
48 46 38 34 28 24 26 25 24 24 26 24 25 21 30 31 32 32 30 31 33 35 33 33 30 33 26 30 30 29 29 28 32 37 36 28 36 50 54 56 59 60 61 62 62

GFSSW_sfc_dewp_105.txt.gz
Dewpoint
55 54 54 55 54 54 54 54 54 54 54 55 55 55 56 57 57 51 31 37 39 67 67 59 59 59 57 56 62 64 60 55 52 53 56 55 56 57 58 55 54 54 55 58 58
55 55 55 54 54 54 54 54 54 54 54 55 55 55 56 57 48 38 52 57 58 67 58 55 57 57 54 55 59 62 60 56 56 55 56 55 55 56 54 54 54 54 57 59 58
55 56 55 54 54 54 54 55 54 54 54 55 55 55 56 56 44 29 58 63 62 63 49 49 56 55 53 56 56 59 59 61 57 58 54 53 54 53 51 51 54 57 58 59 57
56 55 55 54 54 54 54 54 54 54 54 55 54 55 56 50 25 43 60 63 64 50 44 43 48 54 52 53 55 57 59 58 58 59 55 53 54 52 50 52 56 58 57 57 56
55 55 55 54 54 54 53 53 54 54 54 54 55 55 51 39 29 51 61 57 42 49 43 39 43 51 52 54 54 56 59 58 58 58 56 54 52 53 52 55 56 56 56 55 52
55 55 55 54 54 54 54 53 53 53 53 53 54 55 46 33 29 44 45 33 28 44 39 36 40 48 55 55 53 57 58 60 60 59 56 53 53 51 52 56 55 55 53 51 51
55 55 55 54 54 54 53 53 52 52 53 54 55 51 39 31 32 44 36 27 28 38 33 32 32 48 54 52 51 58 56 57 59 60 57 60 52 51 53 54 54 52 49 51 50
55 55 55 55 54 54 53 53 53 53 54 54 56 49 34 26 39 40 38 35 35 35 30 29 34 43 52 49 54 57 57 55 59 62 59 59 53 53 54 53 50 49 49 50 52
56 55 55 55 54 53 53 52 54 54 55 55 53 47 24 36 37 35 36 37 34 34 33 33 36 48 51 47 48 58 54 54 58 61 59 58 56 55 52 50 50 50 50 52 53
57 56 55 54 54 54 53 53 55 55 54 50 45 37 30 27 34 27 25 32 34 28 27 28 33 48 48 45 39 51 54 55 56 57 58 57 58 59 51 51 51 51 52 53 53
56 56 56 54 53 53 50 51 49 48 45 36 28 29 28 31 34 30 29 26 26 26 21 22 25 40 44 44 42 54 56 55 58 57 56 56 57 58 59 56 57 54 53 54 55
56 56 56 54 53 53 50 37 33 33 31 29 28 29 30 29 31 29 29 24 21 20 22 18 20 30 44 48 39 40 50 54 58 57 54 56 56 58 59 58 59 55 55 54 55
56 56 54 53 53 49 41 36 35 35 33 22 23 25 28 29 26 27 25 23 21 16 17 20 15 21 43 45 38 38 51 52 53 57 57 55 53 56 58 59 60 61 60 55 55
56 55 53 52 47 36 34 37 35 36 30 23 24 28 29 28 24 30 24 23 17 14 16 20 18 17 40 40 39 34 51 54 52 51 46 52 46 53 56 58 59 57 58 58 52
55 53 52 51 46 31 36 35 36 37 22 23 20 30 29 27 26 24 25 24 20 14 16 15 18 21 31 37 38 35 38 55 53 47 42 49 45 49 57 56 58 57 57 58 59
54 53 52 48 44 36 36 35 37 25 24 23 24 24 26 22 25 25 24 27 27 19 16 19 22 26 30 32 36 38 41 41 43 42 36 44 41 45 51 56 56 56 56 58 58
52 51 50 44 33 35 36 36 26 21 25 22 20 21 21 19 23 26 26 25 25 22 20 19 24 25 29 30 35 40 40 38 36 32 31 41 38 46 50 53 57 56 55 56 58
51 50 48 43 38 37 41 35 24 23 24 25 21 20 20 20 22 24 24 23 25 24 16 13 19 25 29 32 31 36 36 37 37 34 32 41 35 45 50 53 55 56 55 53 55
50 46 39 39 39 39 37 29 25 24 24 22 21 20 20 19 21 22 23 21 23 27 25 18 19 22 24 26 30 30 33 35 35 43 39 40 42 50 49 50 52 54 56 56 58
49 35 35 39 42 40 34 27 26 27 25 24 24 23 22 20 18 20 22 22 23 25 28 30 23 22 22 23 22 26 28 27 30 32 33 33 39 43 48 49 50 51 54 58 58
46 32 34 38 40 38 27 26 25 27 29 25 21 20 22 21 23 20 28 28 25 27 28 29 25 24 23 22 21 20 22 25 25 25 24 26 34 49 51 50 52 52 53 56 59
38 32 32 37 33 29 25 26 34 24 25 25 25 24 24 25 23 21 23 32 30 26 26 26 24 25 25 23 19 20 20 21 19 27 23 23 42 49 49 50 52 52 54 58 61
38 30 32 32 29 26 29 26 27 25 24 24 24 26 27 27 27 25 26 32 32 28 31 30 23 24 24 23 24 22 24 20 17 19 25 20 34 50 53 55 55 54 56 59 62
34 29 29 28 27 27 29 27 25 24 26 27 27 26 26 26 29 29 27 27 30 29 49 39 25 25 25 30 30 26 22 23 22 20 20 20 30 47 49 54 57 58 58 59 61
32 29 31 26 22 25 26 23 22 22 22 23 29 24 26 28 27 29 26 27 29 42 35 28 28 27 29 29 28 27 23 21 26 26 25 23 23 28 47 52 58 60 62 63 63
38 31 26 24 24 25 25 23 18 19 19 19 19 17 23 30 32 33 28 29 29 33 32 29 29 36 34 25 26 25 27 29 25 25 24 24 24 35 51 55 58 61 61 62 63
44 38 33 31 24 22 24 23 21 20 22 18 20 18 20 29 31 32 29 30 33 34 34 32 29 30 28 23 25 23 25 26 26 26 26 25 28 46 49 53 57 60 61 62 63

GFSSW_sfc_dewp_108.txt.gz
Dewpoint
55 55 55 55 55 55 55 55 55 55 55 55 56 56 56 57 57 49 36 38 42 69 69 47 56 60 56 56 62 64 59 58 52 50 48 47 54 56 57 55 52 53 54 56 54
56 56 55 55 54 54 55 55 55 55 55 55 56 56 56 57 49 41 52 62 68 69 57 56 56 57 55 54 59 63 60 57 58 53 49 51 55 55 54 51 54 53 55 55 54
56 55 55 55 55 55 54 54 55 55 55 55 56 56 56 55 46 34 65 64 62 60 53 54 57 56 53 53 58 59 60 62 60 56 53 53 56 52 51 52 54 54 53 53 53
55 55 55 55 54 54 54 54 54 54 55 55 55 56 57 50 33 42 64 64 64 27 51 47 52 54 52 52 55 55 64 60 63 56 57 50 49 49 49 52 54 56 54 53 52
55 55 55 55 55 55 54 54 54 54 54 54 55 56 51 43 34 50 67 61 31 27 45 43 45 52 52 53 54 58 58 59 60 58 54 50 48 53 52 56 56 57 55 52 51
56 55 56 55 55 55 55 54 54 54 54 54 55 56 46 37 29 53 41 35 21 34 41 40 39 48 52 54 57 57 58 57 56 57 60 51 52 49 53 54 54 55 53 52 50
56 56 56 56 55 55 55 54 54 54 54 55 55 51 42 35 30 38 38 18 19 33 39 38 37 41 49 55 55 58 58 57 60 60 61 57 52 48 51 52 52 52 51 50 50
57 56 56 55 55 55 54 54 54 54 54 55 55 48 41 29 32 40 34 25 18 30 36 34 32 31 41 54 52 56 57 54 56 60 62 57 53 50 52 52 51 50 48 50 50
57 56 56 56 55 55 55 54 54 55 56 56 52 46 34 36 25 36 34 29 31 33 33 28 27 32 41 51 49 56 54 54 56 61 60 58 55 53 51 50 49 48 48 49 51
57 57 56 56 55 54 54 54 57 55 55 50 47 40 36 25 27 32 33 33 30 31 30 30 30 32 42 49 44 52 52 52 55 59 59 56 55 51 50 50 48 47 48 49 51
57 57 56 56 55 54 51 49 50 47 48 40 33 31 27 26 32 25 24 31 32 28 25 25 24 29 42 46 50 49 51 54 57 58 57 57 57 57 55 51 52 49 49 52 52
56 56 56 55 54 53 50 41 31 31 31 39 22 25 27 28 28 26 25 24 25 22 23 19 16 23 37 45 50 51 53 55 56 58 57 57 56 59 59 59 54 57 52 52 55
56 56 55 54 53 50 39 36 33 32 32 21 21 22 24 25 27 26 25 21 19 17 18 19 15 16 22 36 52 53 52 53 52 56 57 56 53 57 58 59 59 61 60 58 57
56 56 54 53 49 36 34 33 31 33 31 21 19 25 25 24 23 27 25 22 20 16 13 15 19 15 18 31 40 50 52 51 53 52 48 53 47 52 55 56 56 58 59 58 59
56 54 52 52 47 35 34 28 31 33 29 22 19 29 26 25 24 25 25 21 20 13 13 13 16 19 16 36 38 47 50 49 52 52 47 50 47 53 56 54 55 57 58 58 61
54 53 52 48 47 35 31 30 31 28 30 23 21 23 23 24 24 23 25 24 23 21 13 13 15 17 19 28 35 45 48 48 50 52 49 48 47 46 52 52 53 53 53 58 59
53 52 51 48 36 30 31 32 29 26 31 20 19 18 21 18 22 24 20 23 23 22 18 14 19 20 24 27 34 38 45 41 44 48 42 43 47 47 52 54 52 52 53 57 60
52 51 50 41 40 34 35 36 32 31 19 21 18 18 21 18 21 22 22 21 23 22 17 15 13 21 22 26 29 32 34 33 34 35 44 49 41 45 50 52 54 55 54 56 58
50 44 44 39 37 36 36 32 29 24 21 17 17 17 24 18 22 20 22 19 20 23 23 26 14 18 23 25 30 31 31 32 39 41 35 45 46 50 50 51 54 55 56 54 57
48 43 31 31 35 37 35 29 23 22 19 20 25 25 26 24 14 18 21 21 25 26 25 29 29 19 21 22 25 27 29 27 27 36 36 41 42 51 51 52 55 56 56 56 55
43 38 24 32 36 37 33 23 22 22 25 24 24 23 26 23 23 24 26 28 28 28 27 28 30 27 22 21 20 18 23 26 24 26 28 40 45 56 51 53 52 56 56 57 54
38 36 26 34 33 31 26 24 32 22 20 22 22 22 25 26 22 22 25 29 29 26 24 26 25 29 26 23 21 20 19 23 22 29 27 30 41 52 56 58 55 52 57 57 57
39 34 26 30 28 26 26 23 25 25 22 23 23 24 25 25 26 30 28 33 29 23 33 32 27 23 25 26 23 19 19 18 16 19 29 21 37 52 52 56 55 52 57 60 61
42 31 29 27 26 25 26 26 25 21 23 24 25 24 24 25 26 31 34 24 26 22 52 38 28 27 25 33 33 27 17 19 22 16 18 18 44 49 52 51 53 55 59 61 63
37 33 31 27 23 25 26 25 20 21 20 21 25 22 23 27 33 32 29 24 27 41 31 25 28 27 32 30 29 31 29 26 22 23 22 24 29 46 49 51 52 58 60 62 63
41 37 29 23 25 25 25 23 17 18 18 19 19 17 15 26 30 31 30 31 34 32 29 27 28 29 30 29 28 26 26 30 25 20 23 25 28 45 57 59 57 59 63 63 62
40 38 33 32 22 22 24 22 20 19 21 17 18 19 15 27 30 29 29 27 31 36 40 38 28 29 27 27 25 26 26 29 28 27 24 23 41 40 52 60 61 60 62 64 64

GFSSW_sfc_dewp_111.txt.gz
Dewpoint
55 55 55 55 54 54 55 55 55 55 56 56 56 56 57 58 57 50 42 40 45 64 66 48 43 52 61 58 64 65 58 56 55 54 49 56 57 59 55 52 52 54 55 56 60
55 55 55 55 55 55 55 55 55 56 55 56 56 56 57 58 51 44 51 64 68 68 44 50 48 54 58 56 59 62 58 58 60 60 54 56 57 54 54 55 54 55 55 56 61
55 55 55 56 55 55 55 55 55 55 55 56 56 56 57 56 48 40 67 65 66 65 43 53 55 57 55 54 57 62 58 59 60 61 54 54 55 54 54 54 55 54 54 52 54
56 56 55 55 55 55 55 55 55 55 55 55 55 56 57 52 38 42 64 65 64 37 32 49 50 53 54 52 56 58 62 61 60 61 60 55 55 54 53 55 55 54 54 52 51
56 56 56 56 56 56 56 56 55 55 55 55 55 56 53 46 39 46 67 64 46 23 20 46 48 50 54 53 55 58 60 60 60 61 62 58 54 55 55 56 54 53 52 52 50
57 57 57 57 56 56 56 56 55 55 55 55 55 56 51 37 45 51 54 49 23 16 25 43 44 46 55 54 56 60 61 60 62 63 61 55 54 54 55 57 54 53 51 52 51
57 57 57 57 56 56 56 56 55 55 55 55 56 52 44 41 33 52 38 32 19 19 33 41 42 38 46 56 57 58 58 59 61 61 60 62 52 53 55 56 54 53 51 51 52
57 57 57 57 56 56 55 56 54 55 55 56 56 52 42 40 35 36 34 21 15 25 33 39 39 35 32 57 61 61 58 54 59 61 60 61 53 53 54 53 53 52 51 50 51
57 57 57 57 57 56 55 55 55 57 57 56 53 48 42 42 25 30 36 28 14 18 28 35 32 28 28 41 52 55 52 51 54 61 57 59 53 55 53 52 51 50 50 49 52
57 57 57 57 56 55 54 54 54 56 56 51 48 44 43 35 25 23 35 30 23 28 31 32 29 27 32 39 47 52 51 52 52 58 59 58 55 55 52 51 50 48 49 50 52
57 56 56 56 56 54 52 47 51 50 46 44 40 38 28 31 32 30 31 32 30 29 29 30 27 27 30 37 53 51 52 54 56 60 58 57 57 58 59 53 51 47 48 50 52
56 56 56 56 55 53 51 40 41 30 30 43 41 24 27 28 28 25 24 28 32 26 26 25 23 24 27 51 52 53 53 52 56 58 57 57 56 59 59 59 60 59 49 51 53
56 56 55 54 53 51 44 38 36 32 32 33 35 21 23 23 26 26 25 22 26 25 22 21 21 18 17 48 52 52 52 52 52 55 56 56 53 55 58 59 59 59 60 56 54
56 55 53 52 50 44 38 39 37 32 32 24 17 23 25 24 23 26 26 23 21 17 16 17 19 18 14 28 51 50 54 53 52 51 48 54 46 52 55 56 57 57 58 58 58
55 53 52 52 49 40 37 30 29 32 31 32 21 29 28 23 24 26 26 24 22 20 16 13 13 15 19 35 50 51 53 54 51 51 51 51 50 50 53 53 55 55 57 59 59
53 53 52 50 50 44 35 32 32 30 30 31 21 22 24 23 25 26 25 23 22 23 22 13 14 15 19 46 46 54 55 53 51 51 46 47 49 45 53 52 52 54 56 59 59
53 52 51 48 44 41 33 35 34 29 33 25 20 21 23 22 22 22 24 22 23 21 23 16 12 18 22 42 47 52 50 44 44 44 43 49 49 48 50 53 52 51 53 57 60
52 51 50 46 40 37 37 38 36 33 28 22 18 18 25 26 23 22 21 18 23 22 22 17 13 21 21 31 43 46 44 40 38 41 44 51 48 49 52 52 52 53 50 55 60
51 49 44 46 47 40 38 36 33 25 19 20 22 27 27 25 24 23 23 20 21 21 22 26 26 20 21 21 27 32 38 36 42 43 36 47 50 55 54 52 53 52 51 53 59
50 44 41 43 40 37 40 36 25 21 21 28 28 28 29 29 23 24 29 28 26 28 27 28 29 31 18 23 24 33 32 28 34 38 38 42 41 48 51 53 53 52 50 53 56
50 41 39 35 37 42 37 32 26 18 24 25 24 27 29 29 26 29 30 31 32 27 26 27 33 31 27 22 22 23 25 27 28 30 35 41 43 53 48 54 56 58 54 54 55
46 41 34 36 39 39 32 25 31 22 21 24 24 24 31 28 28 32 30 30 28 25 28 32 29 28 29 29 22 21 20 25 26 25 28 34 40 48 51 55 57 56 60 59 56
45 38 40 33 32 33 30 22 25 24 23 24 26 24 26 26 31 34 34 33 30 24 34 30 32 28 27 29 32 22 21 27 20 18 20 24 38 51 52 48 57 54 59 61 60
48 41 39 37 32 30 32 33 26 23 23 23 28 26 27 29 35 36 30 28 27 26 53 38 27 31 30 34 36 32 31 28 27 19 19 21 47 48 48 51 53 47 52 59 59
48 39 39 35 30 30 28 29 21 25 24 29 29 26 22 26 35 36 35 31 31 42 34 26 26 30 30 31 31 30 30 29 29 28 28 33 46 53 54 55 55 55 57 58 58
46 43 41 35 32 30 32 31 21 19 23 22 23 19 21 21 34 37 35 33 35 35 37 34 28 31 29 29 29 29 31 30 29 30 25 44 49 52 56 61 60 60 64 62 62
53 52 49 40 32 28 31 26 20 27 30 23 24 25 23 31 33 30 22 26 28 38 37 37 38 37 32 30 29 27 34 33 34 42 47 50 55 57 54 55 58 57 62 63 64

GFSSW_sfc_dewp_114.txt.gz
Dewpoint
55 55 55 55 55 55 55 56 56 56 56 56 56 57 57 57 58 52 42 40 46 60 67 45 44 42 52 60 64 65 58 55 54 54 54 54 51 57 55 55 55 57 58 61 63
56 55 55 55 56 56 55 55 55 56 56 56 56 56 57 58 53 47 50 62 65 65 43 46 42 47 54 59 62 61 58 57 60 60 58 52 55 53 52 52 54 55 61 62 62
56 56 56 56 56 55 55 55 56 55 55 56 56 56 56 57 49 43 64 63 68 67 40 46 51 51 55 55 60 61 57 58 57 59 61 56 51 54 53 52 52 56 59 61 60
57 57 57 57 56 56 56 56 56 56 55 55 55 56 57 54 37 42 65 65 68 51 33 43 50 50 53 53 58 59 59 59 58 58 60 58 56 55 55 55 54 57 60 60 61
57 57 57 57 57 56 57 56 56 56 55 55 55 56 53 46 42 46 68 66 48 27 19 37 49 48 54 54 58 58 59 59 61 60 60 61 59 56 56 56 55 58 59 60 60
57 57 57 57 57 57 57 57 56 56 55 55 55 56 49 34 41 54 52 48 36 17 15 25 46 46 53 55 55 60 60 59 60 61 63 59 57 56 57 55 54 53 52 55 58
57 58 58 57 56 57 56 56 55 55 55 55 55 53 46 34 45 54 49 42 24 16 23 26 34 43 40 57 60 60 58 60 61 63 62 61 54 54 54 52 52 52 51 54 59
57 57 57 57 56 56 56 55 55 55 56 56 56 51 39 41 42 38 39 25 22 18 22 35 38 38 34 58 58 57 59 57 61 61 60 59 54 55 54 53 53 51 52 57 58
57 57 57 56 56 56 55 54 55 56 58 56 51 48 42 50 31 34 32 22 13 15 23 30 35 34 30 50 55 56 53 53 54 61 59 58 54 57 55 53 53 51 51 56 57
57 56 56 56 56 55 54 54 53 55 56 54 50 43 41 37 25 25 28 29 15 16 20 25 30 26 28 38 46 51 51 52 52 59 59 57 56 59 54 54 52 51 51 51 55
56 56 56 56 55 54 51 46 42 43 49 42 41 40 37 34 29 26 26 32 23 28 28 30 26 26 27 34 51 53 52 53 56 59 58 57 56 58 59 58 53 49 50 52 54
56 56 56 55 53 52 50 39 38 39 30 41 44 43 41 29 30 29 30 29 29 27 29 26 25 27 35 51 52 52 53 52 55 59 57 57 56 58 59 59 59 59 51 51 52
56 55 53 53 52 50 45 41 38 34 30 32 40 39 33 23 26 27 22 22 31 30 25 24 23 27 44 52 48 52 51 52 53 55 57 56 54 55 57 60 59 59 59 53 52
56 54 52 52 48 47 42 40 39 34 30 31 20 22 22 24 22 26 24 24 24 27 25 20 22 22 21 51 51 50 52 52 53 50 46 54 46 52 54 54 57 57 57 56 53
55 55 52 51 47 39 36 34 32 35 28 33 23 28 27 22 24 26 27 26 23 23 19 15 14 16 17 50 49 48 53 52 51 51 50 50 47 49 54 52 54 55 57 58 57
55 54 52 49 47 45 42 39 31 28 29 32 23 21 25 24 23 26 24 24 24 21 22 21 17 14 19 49 47 52 53 52 52 51 44 47 49 47 49 50 50 54 56 58 59
53 52 50 48 42 42 37 37 34 27 32 29 24 22 23 23 24 25 25 23 20 24 21 23 18 31 51 50 54 53 49 46 44 44 42 49 49 47 51 53 51 51 55 57 60
51 51 50 48 44 42 37 35 33 34 31 29 18 23 24 25 24 24 22 20 21 23 21 20 15 31 39 49 51 49 46 45 39 41 43 51 46 48 52 52 53 53 55 55 58
50 48 45 44 46 40 37 34 30 22 21 26 26 25 23 25 28 23 23 19 23 21 19 25 25 30 34 40 50 47 43 44 41 42 40 46 47 53 53 52 53 53 53 53 56
46 44 40 42 44 37 36 35 25 21 23 25 26 28 27 28 25 26 28 31 31 28 27 27 25 31 31 28 46 41 41 34 36 37 35 44 43 47 51 53 52 51 52 51 58
46 35 37 42 39 38 34 35 26 18 25 23 24 29 30 28 27 29 29 30 30 25 31 33 31 28 27 22 21 22 25 25 30 38 34 39 41 51 50 53 54 54 52 52 58
46 35 43 36 32 35 33 24 31 22 23 25 24 29 29 25 28 31 32 33 33 26 30 31 29 27 26 28 31 22 21 24 23 23 28 37 32 49 52 53 56 58 58 55 58
41 39 38 33 26 27 30 22 25 19 21 23 24 24 25 32 28 32 32 33 32 32 29 28 33 29 28 29 33 33 32 34 24 21 16 18 21 51 50 50 55 55 58 61 58
44 36 39 33 29 35 27 28 25 23 23 22 23 23 21 30 33 34 32 35 30 31 52 37 28 32 27 28 34 32 32 30 25 20 19 19 30 48 55 57 59 61 51 57 59
47 36 39 37 27 31 28 23 20 23 20 21 21 19 19 13 30 34 35 33 32 42 30 25 22 30 32 29 32 32 31 32 29 34 26 32 48 52 58 56 55 59 58 60 61
41 45 46 43 31 26 32 21 19 20 20 20 19 19 18 27 32 32 27 26 29 31 39 35 28 35 30 29 29 30 37 46 46 46 49 51 53 57 58 57 57 60 60 58 60
50 51 48 43 41 38 25 21 25 25 28 24 22 18 20 27 27 29 26 29 36 38 36 35 35 34 29 32 29 34 40 46 48 52 52 49 53 55 54 58 60 60 60 59 60

GFSSW_sfc_dewp_117.txt.gz
Dewpoint
56 56 55 55 55 55 55 55 55 55 55 56 56 56 57 57 57 54 39 38 46 61 66 43 50 42 50 59 65 64 56 54 53 53 55 55 53 56 58 57 57 58 60 61 66
56 56 56 56 56 56 55 55 55 55 55 55 56 56 57 57 53 47 48 59 62 64 45 41 41 46 53 60 61 61 56 56 59 59 57 52 53 54 55 55 57 58 62 64 65
57 57 57 56 55 56 55 55 55 55 55 55 56 56 56 56 47 34 61 63 65 67 37 44 50 50 52 58 61 61 56 58 57 59 60 60 55 53 54 54 57 60 61 63 61
58 57 57 57 57 56 55 56 56 56 55 55 56 56 57 54 29 42 65 64 68 51 31 44 50 50 52 54 60 57 59 59 59 59 60 58 59 54 52 55 59 61 61 61 61
57 57 57 57 57 57 57 56 56 56 55 56 56 56 52 40 35 46 70 64 58 31 23 38 50 50 49 56 58 58 59 59 60 60 60 59 58 56 55 57 60 60 60 60 60
57 57 57 57 57 56 57 56 56 56 55 56 56 56 48 21 33 54 58 51 36 19 14 38 48 48 47 52 56 59 60 59 59 60 60 60 59 59 57 57 59 59 59 59 61
57 57 57 57 56 56 56 56 55 55 56 56 56 54 46 20 47 50 44 37 32 18 16 25 36 42 42 53 61 61 58 59 60 61 60 61 57 55 56 57 58 59 59 60 61
57 56 56 56 56 56 56 55 55 55 56 56 56 51 38 37 42 38 49 29 26 24 18 35 33 38 38 58 58 56 59 54 59 60 60 59 53 57 55 54 56 56 58 58 59
57 56 56 56 56 55 55 54 55 55 57 56 50 47 40 50 40 39 45 21 18 17 24 23 34 34 37 51 53 55 52 52 55 59 60 58 55 57 55 52 52 51 52 55 59
57 56 56 56 54 53 52 54 55 55 56 54 51 40 36 34 30 32 36 21 15 14 18 22 29 27 29 37 41 50 52 52 53 56 59 56 56 57 56 53 51 51 56 57 58
56 56 55 54 53 52 50 45 37 36 49 37 34 36 37 36 29 25 25 29 24 25 23 32 27 26 25 32 49 52 53 53 55 57 58 56 57 58 59 58 54 51 53 56 57
56 55 54 53 52 52 49 30 34 38 31 40 43 43 43 40 29 29 31 30 28 24 30 27 25 27 30 43 52 53 52 52 55 58 57 56 56 59 59 59 58 58 51 54 56
56 56 54 52 52 49 42 37 37 39 32 31 38 39 36 30 25 27 27 27 30 28 27 26 26 28 50 52 52 51 51 52 52 55 56 56 54 56 58 59 60 59 58 54 56
56 55 53 52 47 47 39 44 36 35 30 29 20 27 23 24 23 25 23 23 23 27 28 24 25 25 52 50 50 49 53 52 53 50 46 54 45 53 56 55 56 57 58 55 57
55 54 52 51 44 33 33 39 40 34 21 29 28 26 24 22 24 25 27 25 22 23 19 20 18 22 24 50 49 46 53 52 51 51 48 50 48 49 55 55 55 55 57 56 58
54 53 51 48 46 43 45 40 31 29 25 30 26 22 24 25 24 26 26 24 25 24 23 20 23 15 21 38 49 53 51 52 51 49 43 46 49 47 51 54 54 53 56 57 57
53 52 50 48 37 43 38 39 30 26 32 27 27 21 23 23 25 25 24 22 20 20 21 22 23 50 51 51 53 52 49 43 42 43 41 49 47 47 50 51 51 50 55 57 57
51 50 50 49 43 40 38 35 27 31 32 29 25 23 23 25 25 25 23 22 23 22 21 20 31 47 49 49 49 48 45 43 39 41 42 51 45 47 50 51 51 52 55 56 59
50 46 45 44 48 41 37 32 22 21 20 25 27 27 27 28 27 25 23 19 25 21 18 23 23 26 48 50 48 47 43 43 41 41 41 47 48 49 52 52 52 51 51 55 57
47 43 38 44 42 38 35 34 34 21 23 25 26 28 27 27 25 27 28 31 30 27 25 27 23 29 33 49 50 45 45 40 40 36 35 42 43 44 51 51 52 53 51 54 56
45 36 37 43 39 36 32 33 33 21 22 22 27 27 29 27 27 29 32 31 30 25 30 32 30 28 28 28 43 29 29 30 35 37 33 36 39 49 50 53 52 53 53 54 56
41 26 39 36 32 35 32 33 30 21 23 25 24 25 23 30 29 29 30 30 33 34 27 30 29 27 27 29 32 29 24 24 24 22 30 32 25 50 55 56 57 57 58 55 56
40 40 41 36 31 27 29 27 24 20 22 23 23 24 31 31 30 33 32 33 32 31 26 26 31 34 30 28 31 33 33 34 23 21 18 17 22 57 58 60 61 57 57 59 60
40 31 38 35 31 30 25 26 23 22 20 20 20 18 21 21 32 31 32 34 33 32 49 38 31 33 33 27 31 32 32 32 27 28 27 21 44 54 53 57 56 59 60 60 60
44 35 41 39 39 32 24 22 23 19 20 20 18 19 15 27 30 32 30 28 29 41 34 25 23 31 33 36 30 32 42 45 41 41 31 44 51 54 57 56 58 57 59 60 61
41 47 48 45 40 38 28 20 18 20 19 21 17 20 28 29 31 29 27 22 28 31 35 35 27 32 28 32 34 43 45 46 48 50 51 52 51 54 58 59 59 59 58 57 60
46 49 49 43 42 38 35 25 20 26 29 20 20 17 24 25 26 26 31 38 40 38 35 36 33 31 28 32 33 33 43 47 49 53 51 45 50 54 56 56 57 58 59 59 59

GFSSW_sfc_dewp_120.txt.gz
Dewpoint
55 55 55 55 55 55 54 54 54 54 55 55 55 55 56 57 57 53 36 37 44 66 61 57 47 42 51 60 65 63 55 53 53 52 53 55 55 58 60 57 57 60 61 63 68
57 57 56 55 55 55 55 55 55 55 55 55 55 56 56 57 53 46 46 54 61 64 39 42 38 49 55 60 61 59 55 56 59 59 58 54 55 56 56 57 59 60 63 66 65
57 57 57 57 57 56 55 55 55 55 55 55 55 56 57 57 45 29 61 61 65 64 37 46 48 51 53 60 60 61 55 58 59 59 60 60 55 56 55 56 58 59 63 65 63
57 57 57 57 57 57 57 56 55 55 55 55 56 56 57 53 23 42 66 64 66 61 31 44 51 51 53 55 60 57 60 59 60 60 59 58 59 53 55 57 59 61 63 63 61
57 57 57 57 57 57 57 57 56 55 55 55 56 57 50 31 30 46 69 66 54 37 27 44 50 51 50 56 59 58 59 59 61 60 60 60 59 55 55 60 61 62 62 62 61
57 57 57 57 57 57 57 56 56 55 55 56 56 57 46 14 32 57 57 52 37 22 19 47 51 52 48 47 58 59 60 59 60 60 60 59 59 57 57 60 60 61 61 60 61
57 57 56 56 56 56 56 56 55 55 55 56 56 54 41 14 47 51 46 44 32 21 15 21 47 42 41 55 61 59 57 59 61 61 59 61 57 58 58 60 59 59 60 60 61
56 56 56 56 56 55 54 53 54 55 55 56 56 50 36 32 42 42 47 34 28 22 20 32 35 37 38 59 58 58 57 54 59 59 60 59 53 59 58 58 58 59 59 59 61
56 56 56 55 54 53 52 53 55 55 57 56 50 45 32 50 41 41 47 20 19 20 21 24 35 34 48 53 51 54 50 52 55 59 59 58 54 57 58 57 57 58 59 59 60
57 56 55 54 53 52 52 54 56 56 56 54 51 37 34 34 35 36 40 15 14 15 20 22 28 27 30 37 36 48 50 51 52 56 59 56 56 57 56 56 57 57 58 59 59
56 56 55 53 52 51 49 44 35 35 48 39 35 35 35 38 31 28 34 32 25 25 26 30 28 26 25 30 46 53 52 51 55 58 58 56 57 57 57 55 54 52 53 55 58
56 56 55 53 52 51 47 26 34 36 30 38 43 42 43 42 31 28 30 29 30 26 30 27 26 28 28 37 52 53 52 52 56 57 57 56 56 59 60 59 56 53 55 56 58
55 55 53 52 53 48 42 36 36 36 31 31 38 39 35 37 26 27 30 30 29 28 27 27 28 28 50 52 51 52 51 52 52 56 56 55 53 57 59 60 59 59 55 57 57
55 54 52 51 46 45 35 44 38 36 26 26 22 27 27 24 23 27 25 23 23 27 27 26 26 38 51 51 51 48 52 53 53 49 48 55 46 53 57 57 57 57 58 55 56
55 53 52 51 39 27 31 41 40 32 19 28 30 25 24 23 24 25 26 24 22 23 21 21 19 25 50 49 49 49 54 52 51 50 48 51 48 48 55 55 56 56 57 57 56
54 53 51 48 45 41 45 39 32 26 24 29 30 21 24 24 24 26 26 24 26 23 24 22 23 21 28 44 50 52 51 50 50 47 41 46 47 46 52 53 55 56 56 58 56
52 51 49 47 33 42 38 38 24 24 31 26 26 21 22 23 25 25 23 23 20 24 21 22 27 50 53 52 52 50 45 40 39 42 42 48 47 45 49 53 55 55 55 57 57
51 50 50 49 45 43 38 25 21 24 28 29 26 25 25 27 25 24 24 23 22 23 20 20 26 49 50 51 50 47 44 41 37 40 42 51 46 44 50 53 55 55 54 57 56
50 46 44 43 48 43 35 25 19 22 20 25 27 26 26 27 26 26 22 19 22 21 18 25 23 34 48 51 50 47 43 44 41 42 40 44 48 48 52 50 52 53 53 56 57
46 41 37 43 44 37 33 33 33 29 21 26 25 28 26 27 25 27 28 31 28 26 23 27 23 30 44 49 50 47 48 39 40 37 36 38 44 44 49 51 51 51 52 55 58
42 33 37 44 39 34 30 33 34 27 23 23 27 26 27 26 28 29 30 30 32 28 29 31 30 28 31 40 43 39 40 33 37 37 33 34 32 52 54 53 52 53 54 54 58
37 29 37 36 32 34 31 33 33 21 23 24 24 24 26 30 30 29 30 31 33 33 26 32 28 26 29 30 32 36 27 27 29 25 32 31 26 56 58 59 57 57 55 55 59
37 38 42 36 30 29 27 26 26 21 21 24 21 27 31 31 31 32 32 33 33 29 28 28 29 31 30 33 30 33 33 32 22 23 23 18 26 54 57 57 59 57 58 57 60
38 30 39 38 32 31 28 25 23 22 20 20 18 17 19 27 32 28 27 32 30 38 48 39 32 32 31 30 30 31 33 32 26 22 21 22 48 53 54 56 57 58 60 59 60
41 35 41 39 38 38 35 24 25 18 20 19 18 21 17 32 33 28 30 23 27 39 36 24 27 30 33 36 32 34 43 47 45 43 31 44 49 53 55 57 58 58 58 60 61
47 48 48 45 42 39 30 20 18 20 17 19 16 23 28 29 29 27 26 21 24 33 35 36 27 33 28 32 39 44 45 46 50 51 50 50 49 54 57 58 57 59 59 58 60
43 47 49 44 42 38 36 36 23 27 26 19 20 24 25 25 28 28 34 38 38 36 35 35 32 30 23 32 36 33 42 47 49 51 50 46 51 56 55 56 56 56 57 57 58